ftp/pub/palmer/observations_modified/2019/June/AR190421_BASE.txt

Download

Sample DateTime	Unit Id	WS Avg 2min	WD Avg 2min	WGS 10min	WGD 10min	Air Temp	Rel Humidity	Dew Point	Pyranometer	Quantum	Air Pressure	Snow Level	Rainfall	PW Current	Visibility	CBase 1	CBase 2	CBase 3	Vert Vis
2019/04/21 00:00:00	BASE	7.89	239	12.30	226	-4.0	81	-6.8	0	0	991.0	NA	0.0000		9999	2200	0	0	0
2019/04/21 00:01:00	BASE	8.27	235	11.57	242	-4.0	81	-6.8	0	0	991.0	NA	0.0000		9999	2260	0	0	0
2019/04/21 00:02:00	BASE	7.79	234	11.57	242	-4.0	81	-6.8	0	0	991.0	NA	0.0000		9999	2200	0	0	0
2019/04/21 00:03:00	BASE	7.29	236	10.80	247	-4.0	81	-6.8	0	0	991.0	NA	0.0000		9999	2100	0	0	0
2019/04/21 00:04:00	BASE	8.32	234	10.65	231	-4.0	81	-6.7	0	0	991.0	NA	0.0000		9999	2030	0	0	0
2019/04/21 00:05:00	BASE	10.19	233	13.48	242	-3.9	81	-6.7	0	0	991.0	NA	0.0000		9999	2100	0	0	0
2019/04/21 00:06:00	BASE	12.16	235	14.15	234	-3.9	81	-6.7	0	0	991.0	NA	0.0000		9999	2100	0	0	0
2019/04/21 00:07:00	BASE	12.01	236	14.15	234	-3.9	81	-6.6	0	0	991.0	NA	0.0000		9999	2030	0	0	0
2019/04/21 00:08:00	BASE	9.27	230	14.15	234	-3.9	81	-6.6	0	0	991.0	NA	0.0000		9999	2100	0	0	0
2019/04/21 00:09:00	BASE	7.29	226	14.15	234	-3.9	81	-6.6	0	0	991.1	NA	0.0000		9999	2130	0	0	0
2019/04/21 00:10:00	BASE	6.49	232	14.15	234	-3.9	82	-6.6	0	0	991.1	NA	0.0000		9999	2000	0	0	0
2019/04/21 00:11:00	BASE	6.44	238	14.15	234	-3.9	82	-6.6	0	0	991.1	NA	0.0000		9999	2030	0	0	0
2019/04/21 00:12:00	BASE	7.18	241	14.15	234	-4.0	82	-6.6	0	0	991.0	NA	0.0000		9999	2070	0	0	0
2019/04/21 00:13:00	BASE	7.18	244	14.15	234	-4.0	82	-6.6	0	0	991.0	NA	0.0000		9999	2030	0	0	0
2019/04/21 00:14:00	BASE	7.31	244	14.15	234	-4.0	82	-6.6	0	0	991.1	NA	0.0000		9999	2000	0	0	0
2019/04/21 00:15:00	BASE	7.21	239	14.15	234	-4.0	82	-6.6	0	0	991.1	NA	0.0000		9999	2070	0	0	0
2019/04/21 00:16:00	BASE	8.22	244	11.99	236	-4.0	82	-6.6	0	0	991.0	NA	0.0000		9999	2030	0	0	0
2019/04/21 00:17:00	BASE	10.52	247	12.60	230	-4.0	82	-6.6	0	0	991.0	NA	0.0000		9999	1970	0	0	0
2019/04/21 00:18:00	BASE	11.65	237	12.60	230	-4.0	82	-6.6	0	0	991.0	NA	0.0000		9999	2030	0	0	0
2019/04/21 00:19:00	BASE	11.35	237	12.60	230	-4.0	82	-6.6	0	0	991.0	NA	0.0000		9999	2100	0	0	0
2019/04/21 00:20:00	BASE	10.11	246	12.60	230	-4.0	82	-6.6	0	0	991.0	NA	0.0000		9999	2130	0	0	0
2019/04/21 00:21:00	BASE	8.60	250	12.60	230	-4.0	82	-6.6	0	0	991.0	NA	0.0000		9999	2170	0	0	0
2019/04/21 00:22:00	BASE	7.79	250	12.60	230	-4.0	82	-6.6	0	0	991.0	NA	0.0000		9999	2070	0	0	0
2019/04/21 00:23:00	BASE	7.72	241	12.60	230	-4.0	82	-6.6	0	0	991.0	NA	0.0000		9999	2170	0	0	0
2019/04/21 00:24:00	BASE	7.86	240	12.60	230	-4.0	82	-6.7	0	0	991.0	NA	0.0000		9999	2130	0	0	0
2019/04/21 00:25:00	BASE	8.15	242	12.60	230	-4.0	82	-6.7	0	0	991.0	NA	0.0000		9999	2030	0	0	0
2019/04/21 00:26:00	BASE	8.36	239	12.60	230	-4.0	82	-6.6	0	0	991.0	NA	0.0000		9999	1970	0	0	0
2019/04/21 00:27:00	BASE	8.51	238	12.55	229	-4.0	82	-6.6	0	0	991.0	NA	0.0000		9999	2000	0	0	0
2019/04/21 00:28:00	BASE	8.39	240	11.83	247	-4.0	82	-6.5	0	0	991.0	NA	0.0000		9999	2000	0	0	0
2019/04/21 00:29:00	BASE	7.86	245	10.85	245	-4.0	82	-6.5	0	0	991.0	NA	0.0000		9999	1970	0	0	0
2019/04/21 00:30:00	BASE	6.82	243	9.88	243	-4.0	83	-6.5	0	0	991.0	NA	0.0000		9999	1970	0	0	0
2019/04/21 00:31:00	BASE	7.51	234	10.34	235	-4.0	83	-6.4	0	0	991.0	NA	0.0000		9999	1970	0	0	0
2019/04/21 00:32:00	BASE	8.36	233	10.34	235	-3.9	83	-6.4	0	0	991.0	NA	0.0000		9999	2000	0	0	0
2019/04/21 00:33:00	BASE	8.32	235	10.49	237	-3.9	83	-6.4	0	0	991.0	NA	0.0000		9999	1900	0	0	0
2019/04/21 00:34:00	BASE	8.68	243	10.49	237	-3.9	83	-6.4	0	0	991.0	NA	0.0000		9999	2000	0	0	0
2019/04/21 00:35:00	BASE	9.11	249	10.80	254	-3.9	83	-6.4	0	0	991.0	NA	0.0000		9999	2000	0	0	0
2019/04/21 00:36:00	BASE	9.23	247	10.80	254	-3.9	83	-6.4	0	0	991.0	NA	0.0000		9999	2070	0	0	0
2019/04/21 00:37:00	BASE	8.66	248	10.80	254	-3.9	83	-6.3	0	0	991.0	NA	0.0000		9999	2030	0	0	0
2019/04/21 00:38:00	BASE	8.81	252	10.80	254	-3.9	83	-6.3	0	0	991.0	NA	0.0000		9999	2070	0	0	0
2019/04/21 00:39:00	BASE	8.45	252	10.80	254	-3.9	84	-6.3	0	0	991.0	NA	0.0000		9999	2000	0	0	0
2019/04/21 00:40:00	BASE	7.76	247	10.80	254	-3.9	84	-6.2	0	0	991.0	NA	0.0000		9999	1940	0	0	0
2019/04/21 00:41:00	BASE	8.53	247	10.91	247	-3.9	84	-6.2	0	0	991.0	NA	0.0000		9999	1940	0	0	0
2019/04/21 00:42:00	BASE	9.53	252	10.91	251	-3.9	84	-6.2	0	0	991.0	NA	0.0000		9999	1970	0	0	0
2019/04/21 00:43:00	BASE	9.93	255	10.91	251	-3.9	84	-6.2	0	0	991.0	NA	0.0000		9999	1970	0	0	0
2019/04/21 00:44:00	BASE	10.23	253	12.30	245	-3.9	84	-6.2	0	0	991.0	NA	0.0000		9999	1940	0	0	0
2019/04/21 00:45:00	BASE	9.49	245	12.30	245	-3.8	84	-6.1	0	0	991.0	NA	0.0000		9999	2000	0	0	0
2019/04/21 00:46:00	BASE	9.51	240	12.30	245	-3.8	84	-6.1	0	0	991.0	NA	0.0000		9999	1940	0	0	0
2019/04/21 00:47:00	BASE	10.43	246	12.30	245	-3.8	84	-6.0	0	0	991.0	NA	0.0000		9999	1900	0	0	0
2019/04/21 00:48:00	BASE	10.87	251	12.50	250	-3.8	85	-6.0	0	0	991.0	NA	0.0000		9999	1900	0	0	0
2019/04/21 00:49:00	BASE	10.60	247	12.50	250	-3.7	85	-5.9	0	0	991.0	NA	0.0000		9999	1940	0	0	0
2019/04/21 00:50:00	BASE	9.30	242	12.50	250	-3.7	85	-5.9	0	0	991.0	NA	0.0000		9999	2000	0	0	0
2019/04/21 00:51:00	BASE	9.38	246	12.50	250	-3.7	85	-5.9	0	0	991.0	NA	0.0000		9999	1970	0	0	0
2019/04/21 00:52:00	BASE	10.30	252	12.50	250	-3.7	85	-5.9	0	0	991.0	NA	0.0000		9999	2000	0	0	0
2019/04/21 00:53:00	BASE	10.32	254	12.50	250	-3.7	85	-5.9	0	0	991.0	NA	0.0000		9999	1970	0	0	0
2019/04/21 00:54:00	BASE	9.82	252	12.50	250	-3.7	85	-5.9	0	0	991.0	NA	0.0000		9999	1970	0	0	0
2019/04/21 00:55:00	BASE	8.82	250	12.50	250	-3.8	85	-5.9	0	0	991.0	NA	0.0000		9999	1940	0	0	0
2019/04/21 00:56:00	BASE	10.26	249	13.27	243	-3.8	86	-5.8	0	0	991.0	NA	0.0000		9999	1940	0	0	0
2019/04/21 00:57:00	BASE	11.54	249	13.43	248	-3.8	86	-5.8	0	0	991.0	NA	0.0000		9999	1940	0	0	0
2019/04/21 00:58:00	BASE	11.45	244	13.89	238	-3.8	86	-5.8	0	0	991.0	NA	0.0000		9999	2130	0	0	0
2019/04/21 00:59:00	BASE	11.57	233	13.89	238	-3.8	86	-5.8	0	0	991.0	NA	0.0000		9999	2200	0	0	0
2019/04/21 01:00:00	BASE	11.77	229	13.89	238	-3.7	86	-5.7	0	0	991.0	NA	0.0000		9999	1870	0	0	0
2019/04/21 01:01:00	BASE	11.83	235	13.89	238	-3.7	86	-5.7	0	0	991.0	NA	0.0000		9999	1970	0	0	0
2019/04/21 01:02:00	BASE	10.32	239	13.89	238	-3.6	86	-5.6	0	0	991.0	NA	0.0000		9999	1900	0	0	0
2019/04/21 01:03:00	BASE	9.71	242	13.89	238	-3.6	86	-5.6	0	0	991.0	NA	0.0000		9999	1970	0	0	0
2019/04/21 01:04:00	BASE	10.79	242	13.89	238	-3.6	86	-5.6	0	0	991.0	NA	0.0000		9999	1970	0	0	0
2019/04/21 01:05:00	BASE	11.17	238	13.89	238	-3.6	86	-5.6	0	0	991.0	NA	0.0000		9999	2030	0	0	0
2019/04/21 01:06:00	BASE	10.48	238	13.89	238	-3.7	86	-5.7	0	0	991.0	NA	0.0000		9999	2000	0	0	0
2019/04/21 01:07:00	BASE	9.07	240	13.89	238	-3.7	86	-5.7	0	0	991.0	NA	0.0000		9999	2030	0	0	0
2019/04/21 01:08:00	BASE	8.74	242	14.82	244	-3.7	86	-5.7	0	0	991.0	NA	0.0000		9999	2030	0	0	0
2019/04/21 01:09:00	BASE	11.86	234	15.02	223	-3.7	86	-5.7	0	0	991.0	NA	0.0000		9999	2030	0	0	0
2019/04/21 01:10:00	BASE	12.96	224	15.02	223	-3.7	86	-5.7	0	0	991.0	NA	0.0000		9999	1940	0	0	0
2019/04/21 01:11:00	BASE	11.32	228	15.02	223	-3.7	86	-5.7	0	0	991.0	NA	0.0000		9999	2000	0	0	0
2019/04/21 01:12:00	BASE	10.79	230	15.02	223	-3.7	86	-5.7	0	0	991.1	NA	0.0000		9999	2000	0	0	0
2019/04/21 01:13:00	BASE	10.38	228	15.02	223	-3.7	86	-5.7	0	0	991.1	NA	0.0000		9999	1970	0	0	0
2019/04/21 01:14:00	BASE	10.13	235	15.02	223	-3.7	86	-5.7	0	0	991.2	NA	0.0000		9999	1970	0	0	0
2019/04/21 01:15:00	BASE	9.72	242	15.02	223	-3.7	86	-5.7	0	0	991.2	NA	0.0000		9999	2000	0	0	0
2019/04/21 01:16:00	BASE	9.04	237	15.02	223	-3.7	86	-5.7	0	0	991.2	NA	0.0000		9999	2070	0	0	0
2019/04/21 01:17:00	BASE	10.72	236	15.02	223	-3.7	86	-5.7	0	0	991.1	NA	0.0000		9999	2130	0	0	0
2019/04/21 01:18:00	BASE	12.27	237	15.02	223	-3.7	86	-5.7	0	0	991.1	NA	0.0000		9999	2100	0	0	0
2019/04/21 01:19:00	BASE	11.67	232	14.97	242	-3.7	86	-5.7	0	0	991.2	NA	0.0000		9999	2100	0	0	0
2019/04/21 01:20:00	BASE	12.30	227	15.95	233	-3.7	86	-5.7	0	0	991.2	NA	0.0000		9999	2000	0	0	0
2019/04/21 01:21:00	BASE	13.89	226	17.08	229	-3.6	86	-5.6	0	0	991.2	NA	0.0000		9999	1940	0	0	0
2019/04/21 01:22:00	BASE	13.57	224	17.08	229	-3.7	86	-5.7	0	0	991.2	NA	0.0000		9999	2170	0	0	0
2019/04/21 01:23:00	BASE	11.49	219	17.08	229	-3.7	86	-5.7	0	0	991.3	NA	0.0000		9999	2100	0	0	0
2019/04/21 01:24:00	BASE	9.64	213	17.08	229	-3.7	85	-5.8	0	0	991.3	NA	0.0000		9999	2200	0	0	0
2019/04/21 01:25:00	BASE	9.37	208	17.08	229	-3.7	85	-5.9	0	0	991.3	NA	0.0000		9999	2130	0	0	0
2019/04/21 01:26:00	BASE	10.24	212	17.08	229	-3.8	84	-6.0	0	0	991.2	NA	0.0000		9999	2000	0	0	0
2019/04/21 01:27:00	BASE	10.79	213	17.08	229	-3.8	84	-6.1	0	0	991.2	NA	0.0000		9999	2000	0	0	0
2019/04/21 01:28:00	BASE	10.16	209	17.08	229	-3.8	83	-6.2	0	0	991.2	NA	0.0000		9999	2030	0	0	0
2019/04/21 01:29:00	BASE	9.97	212	17.08	229	-3.7	83	-6.2	0	0	991.2	NA	0.0000		9999	2070	0	0	0
2019/04/21 01:30:00	BASE	10.31	215	17.08	229	-3.7	83	-6.2	0	0	991.2	NA	0.0000		9999	2070	0	0	0
2019/04/21 01:31:00	BASE	9.76	218	13.74	230	-3.7	83	-6.2	0	0	991.3	NA	0.0000		9999	2100	0	0	0
2019/04/21 01:32:00	BASE	8.58	224	12.35	222	-3.7	83	-6.2	0	0	991.3	NA	0.0000		9999	2000	0	0	0
2019/04/21 01:33:00	BASE	7.23	228	12.35	222	-3.7	83	-6.1	0	0	991.3	NA	0.0000		9999	2030	0	0	0
2019/04/21 01:34:00	BASE	7.92	222	13.63	211	-3.7	83	-6.1	0	0	991.3	NA	0.0000		9999	2070	0	0	0
2019/04/21 01:35:00	BASE	11.09	214	14.92	218	-3.6	83	-6.0	0	0	991.2	NA	0.0000		9999	2000	0	0	0
2019/04/21 01:36:00	BASE	13.27	217	15.18	223	-3.6	84	-6.0	0	0	991.2	NA	0.0000		9999	2200	0	0	0
2019/04/21 01:37:00	BASE	12.90	224	15.18	223	-3.6	84	-6.0	0	0	991.2	NA	0.0000		9999	2070	0	0	0
2019/04/21 01:38:00	BASE	10.21	228	15.18	223	-3.7	84	-6.0	0	0	991.3	NA	0.0000		9999	1870	0	0	0
2019/04/21 01:39:01	BASE	7.54	223	15.18	223	-3.7	83	-6.1	0	0	991.4	NA	0.0000		9999	2030	0	0	0
2019/04/21 01:40:01	BASE	8.08	219	15.18	223	-3.8	83	-6.2	0	0	991.4	NA	0.0000		9999	2030	0	0	0
2019/04/21 01:41:01	BASE	9.19	220	15.18	223	-3.8	83	-6.3	0	0	991.4	NA	0.0000		9999	1970	0	0	0
2019/04/21 01:42:01	BASE	9.54	224	15.18	223	-3.7	82	-6.3	0	0	991.4	NA	0.0000		9999	1940	0	0	0
2019/04/21 01:43:01	BASE	9.83	230	15.18	223	-3.7	82	-6.3	0	0	991.4	NA	0.0000		9999	1940	0	0	0
2019/04/21 01:44:01	BASE	8.62	230	15.18	223	-3.7	82	-6.2	0	0	991.4	NA	0.0000		9999	1870	0	0	0
2019/04/21 01:45:01	BASE	9.81	229	15.18	223	-3.6	83	-6.1	0	0	991.4	NA	0.0000		9999	1900	0	0	0
2019/04/21 01:46:01	BASE	13.47	227	16.77	220	-3.6	83	-6.0	0	0	991.3	NA	0.0000		9999	2000	0	0	0
2019/04/21 01:47:01	BASE	15.02	224	16.77	220	-3.6	84	-5.9	0	0	991.3	NA	0.0000		9999	2030	0	0	0
2019/04/21 01:48:01	BASE	14.50	224	16.77	220	-3.6	84	-5.9	0	0	991.3	NA	0.0000		9999	2000	0	0	0
2019/04/21 01:49:01	BASE	12.00	228	16.77	220	-3.7	85	-5.9	0	0	991.4	NA	0.0000		9999	2100	0	0	0
2019/04/21 01:50:01	BASE	9.73	225	16.77	220	-3.7	85	-5.9	0	0	991.4	NA	0.0000		9999	2030	0	0	0
2019/04/21 01:51:01	BASE	9.36	229	16.77	220	-3.7	84	-6.0	0	0	991.4	NA	0.0000		9999	2000	0	0	0
2019/04/21 01:52:01	BASE	8.88	238	16.77	220	-3.8	84	-6.0	0	0	991.5	NA	0.0000		9999	1940	0	0	0
2019/04/21 01:53:01	BASE	8.41	242	16.77	220	-3.8	84	-6.0	0	0	991.5	NA	0.0000		9999	2030	0	0	0
2019/04/21 01:54:01	BASE	8.21	242	16.77	220	-3.8	84	-6.0	0	0	991.5	NA	0.0000		9999	1970	0	0	0
2019/04/21 01:55:01	BASE	7.53	237	16.77	220	-3.8	85	-6.0	0	0	991.5	NA	0.0000		9999	2000	0	0	0
2019/04/21 01:56:01	BASE	8.83	229	16.57	221	-3.8	85	-6.0	0	0	991.4	NA	0.0000		9999	1900	0	0	0
2019/04/21 01:57:01	BASE	12.19	223	15.48	223	-3.8	85	-5.9	0	0	991.4	NA	0.0000		9999	2030	0	0	0
2019/04/21 01:58:01	BASE	13.44	227	15.38	231	-3.8	85	-5.9	0	0	991.4	NA	0.0000		9999	2200	0	0	0
2019/04/21 01:59:01	BASE	12.21	228	15.38	231	-3.7	85	-5.8	0	0	991.4	NA	0.0000		9999	2070	0	0	0
2019/04/21 02:00:01	BASE	11.47	228	15.38	231	-3.7	86	-5.8	0	0	991.5	NA	0.0000		9999	2070	0	0	0
2019/04/21 02:01:01	BASE	11.11	236	15.38	231	-3.7	86	-5.8	0	0	991.5	NA	0.0000		9999	2100	0	0	0
2019/04/21 02:02:01	BASE	10.21	243	15.38	231	-3.8	86	-5.8	0	0	991.5	NA	0.0000		9999	2030	0	0	0
2019/04/21 02:03:01	BASE	9.37	241	15.38	231	-3.8	86	-5.9	0	0	991.6	NA	0.0000		9999	2030	0	0	0
2019/04/21 02:04:01	BASE	9.22	243	15.38	231	-3.9	86	-5.9	0	0	991.6	NA	0.0000		9999	2000	0	0	0
2019/04/21 02:05:01	BASE	9.51	246	15.38	231	-3.9	86	-6.0	0	0	991.6	NA	0.0000		9999	1900	0	0	0
2019/04/21 02:06:01	BASE	9.56	248	15.38	231	-3.9	86	-6.0	0	0	991.6	NA	0.0000		9999	1900	0	0	0
2019/04/21 02:07:01	BASE	9.70	250	14.51	223	-3.9	86	-6.0	0	0	991.6	NA	0.0000		9999	1900	0	0	0
2019/04/21 02:08:01	BASE	9.71	250	13.17	221	-3.9	86	-5.9	0	0	991.6	NA	0.0000		9999	2030	0	0	0
2019/04/21 02:09:01	BASE	10.56	249	13.27	254	-3.9	86	-5.9	0	0	991.6	NA	0.0000		9999	2000	0	0	0
2019/04/21 02:10:01	BASE	11.91	254	13.32	260	-3.9	86	-5.9	0	0	991.6	NA	0.0000		9999	2030	0	0	0
2019/04/21 02:11:00	BASE	11.43	254	13.32	260	-3.9	86	-5.9	0	0	991.6	NA	0.0000		9999	2100	0	0	0
2019/04/21 02:12:00	BASE	10.47	246	13.32	260	-3.9	86	-5.9	0	0	991.6	NA	0.0000		9999	2070	0	0	0
2019/04/21 02:13:00	BASE	11.76	229	14.46	214	-3.9	86	-5.9	0	0	991.6	NA	0.0000		9999	2100	0	0	0
2019/04/21 02:14:01	BASE	13.16	215	14.66	213	-3.9	86	-5.9	0	0	991.6	NA	0.0000		9999	2130	0	0	0
2019/04/21 02:15:01	BASE	11.66	216	14.66	213	-3.9	86	-5.9	0	0	991.6	NA	0.0000		9999	2000	0	0	0
2019/04/21 02:16:00	BASE	9.66	224	14.66	213	-3.9	86	-5.9	0	0	991.6	NA	0.0000		9999	2100	0	0	0
2019/04/21 02:17:00	BASE	9.93	228	14.66	213	-3.8	86	-5.9	0	0	991.6	NA	0.0000		9999	1970	0	0	0
2019/04/21 02:18:01	BASE	11.55	224	14.66	213	-3.8	86	-5.9	0	0	991.6	NA	0.0000		9999	2030	0	0	0
2019/04/21 02:19:00	BASE	12.11	227	14.66	213	-3.8	85	-5.9	0	0	991.6	NA	0.0000		9999	2000	0	0	0
2019/04/21 02:20:01	BASE	12.63	231	15.28	227	-3.8	85	-5.9	0	0	991.5	NA	0.0000		9999	1970	0	0	0
2019/04/21 02:21:00	BASE	13.41	229	15.28	227	-3.8	85	-6.0	0	0	991.6	NA	0.0000		9999	1970	0	0	0
2019/04/21 02:22:00	BASE	11.97	229	15.28	227	-3.8	85	-6.0	0	0	991.6	NA	0.0000		9999	2070	0	0	0
2019/04/21 02:23:01	BASE	11.85	229	15.64	230	-3.8	85	-6.0	0	0	991.6	NA	0.0000		9999	2030	0	0	0
2019/04/21 02:24:00	BASE	12.76	232	15.64	230	-3.8	85	-5.9	0	0	991.6	NA	0.0000		9999	2030	0	0	0
2019/04/21 02:25:00	BASE	11.15	231	15.64	230	-3.9	85	-6.0	0	0	991.6	NA	0.0000		9999	2070	0	0	0
2019/04/21 02:26:00	BASE	10.91	234	15.64	230	-3.9	85	-6.0	0	0	991.6	NA	0.0000		9999	2030	0	0	0
2019/04/21 02:27:00	BASE	11.52	232	15.64	230	-3.9	85	-6.0	0	0	991.6	NA	0.0000		9999	2100	0	0	0
2019/04/21 02:28:00	BASE	10.94	228	15.64	230	-4.0	85	-6.1	0	0	991.6	NA	0.0000		9999	2100	0	0	0
2019/04/21 02:29:00	BASE	10.84	238	15.64	230	-4.0	85	-6.1	0	0	991.6	NA	0.0000		9999	2100	0	0	0
2019/04/21 02:30:00	BASE	10.33	240	15.64	230	-4.0	85	-6.1	0	0	991.6	NA	0.0000		9999	2130	0	0	0
2019/04/21 02:31:00	BASE	9.40	238	15.64	230	-4.0	85	-6.1	0	0	991.6	NA	0.0000		9999	2200	0	0	0
2019/04/21 02:32:00	BASE	9.78	238	15.64	230	-4.0	85	-6.1	0	0	991.6	NA	0.0000		9999	2170	0	0	0
2019/04/21 02:33:00	BASE	10.35	236	14.30	238	-4.0	85	-6.1	0	0	991.6	NA	0.0000		9999	2130	0	0	0
2019/04/21 02:34:00	BASE	10.39	238	14.30	238	-4.0	85	-6.1	0	0	991.6	NA	0.0000		9999	2200	0	0	0
2019/04/21 02:35:00	BASE	10.48	237	14.30	238	-4.0	85	-6.2	0	0	991.6	NA	0.0000		9999	2260	0	0	0
2019/04/21 02:36:00	BASE	10.99	235	13.02	237	-4.0	85	-6.2	0	0	991.6	NA	0.0000		9999	2200	0	0	0
2019/04/21 02:37:00	BASE	11.81	231	13.27	220	-4.0	84	-6.2	0	0	991.6	NA	0.0000		9999	2230	0	0	0
2019/04/21 02:38:01	BASE	12.84	224	14.97	219	-4.0	84	-6.3	0	0	991.6	NA	0.0000		9999	2230	0	0	0
2019/04/21 02:39:01	BASE	13.13	227	15.48	234	-4.0	84	-6.3	0	0	991.7	NA	0.0000		9999	2200	0	0	0
2019/04/21 02:40:00	BASE	10.44	232	15.48	234	-4.0	84	-6.4	0	0	991.7	NA	0.0000		9999	2170	0	0	0
2019/04/21 02:41:00	BASE	7.42	229	15.48	234	-4.1	83	-6.5	0	0	991.7	NA	0.0000		9999	2260	0	0	0
2019/04/21 02:42:00	BASE	7.56	220	15.48	234	-4.1	83	-6.5	0	0	991.7	NA	0.0000		9999	2230	0	0	0
2019/04/21 02:43:00	BASE	8.34	211	15.48	234	-4.1	83	-6.6	0	0	991.8	NA	0.0000		9999	2260	0	0	0
2019/04/21 02:44:00	BASE	7.72	209	15.48	234	-4.1	82	-6.7	0	0	991.8	NA	0.0000		9999	2230	0	0	0
2019/04/21 02:45:00	BASE	6.83	207	15.48	234	-4.1	82	-6.7	0	0	991.8	NA	0.0000		9999	2260	0	0	0
2019/04/21 02:46:00	BASE	7.10	204	15.48	234	-4.0	82	-6.7	0	0	991.7	NA	0.0000		9999	2230	0	0	0
2019/04/21 02:47:00	BASE	7.79	198	15.48	234	-4.0	82	-6.7	0	0	991.7	NA	0.0000		9999	2230	0	0	0
2019/04/21 02:48:00	BASE	10.34	201	15.48	234	-4.0	82	-6.6	0	0	991.8	NA	0.0000		9999	2360	0	0	0
2019/04/21 02:49:00	BASE	12.78	212	14.87	216	-4.0	82	-6.6	0	0	991.7	NA	0.0000		9999	2230	0	0	0
2019/04/21 02:50:00	BASE	11.63	220	14.87	216	-4.0	82	-6.7	0	0	991.8	NA	0.0000		9999	2330	0	0	0
2019/04/21 02:51:00	BASE	10.17	226	14.87	216	-4.0	82	-6.7	0	0	991.8	NA	0.0000		9999	2330	0	0	0
2019/04/21 02:52:00	BASE	10.01	225	14.87	216	-4.0	81	-6.7	0	0	991.9	NA	0.0000		9999	2360	0	0	0
2019/04/21 02:53:00	BASE	8.98	220	14.87	216	-4.0	81	-6.8	0	0	991.9	NA	0.0000		9999	2400	0	0	0
2019/04/21 02:54:00	BASE	8.57	218	14.87	216	-4.1	80	-6.9	0	0	992.0	NA	0.0000		9999	2130	0	0	0
2019/04/21 02:55:00	BASE	9.79	221	14.87	216	-4.1	80	-7.0	0	0	991.9	NA	0.0000		9999	2130	0	0	0
2019/04/21 02:56:00	BASE	9.61	222	14.87	216	-4.1	80	-7.1	0	0	991.9	NA	0.0000		9999	2070	0	0	0
2019/04/21 02:57:00	BASE	8.83	224	14.87	216	-4.1	79	-7.1	0	0	992.0	NA	0.0000		9999	2100	0	0	0
2019/04/21 02:58:00	BASE	8.69	229	13.74	217	-4.0	79	-7.1	0	0	992.0	NA	0.0000		9999	2100	0	0	0
2019/04/21 02:59:00	BASE	8.54	237	12.50	220	-4.0	79	-7.1	0	0	992.0	NA	0.0000		9999	2130	0	0	0
2019/04/21 03:00:00	BASE	8.51	239	12.50	220	-4.0	79	-7.1	0	0	992.0	NA	0.0000		9999	2000	0	0	0
2019/04/21 03:01:00	BASE	8.64	242	12.50	220	-4.0	79	-7.0	0	0	992.0	NA	0.0000		9999	2100	0	0	0
2019/04/21 03:02:00	BASE	8.07	244	12.35	221	-4.0	80	-7.0	0	0	992.0	NA	0.0000		9999	2070	0	0	0
2019/04/21 03:03:00	BASE	8.31	245	12.35	221	-4.0	80	-7.0	0	0	991.9	NA	0.0000		9999	1940	0	0	0
2019/04/21 03:04:00	BASE	8.54	245	12.35	221	-4.0	80	-6.9	0	0	991.9	NA	0.0000		9999	2000	0	0	0
2019/04/21 03:05:00	BASE	7.25	244	10.55	239	-4.0	80	-6.9	0	0	992.0	NA	0.0000		9999	2100	0	0	0
2019/04/21 03:06:00	BASE	6.16	242	10.55	239	-4.1	80	-6.9	0	0	992.0	NA	0.0000		9999	2030	0	0	0
2019/04/21 03:07:00	BASE	6.08	233	10.55	239	-4.1	81	-6.9	0	0	992.0	NA	0.0000		9999	2000	0	0	0
2019/04/21 03:08:00	BASE	6.29	228	11.68	239	-4.1	81	-6.9	0	0	991.9	NA	0.0000		9999	1970	0	0	0
2019/04/21 03:09:00	BASE	8.42	228	11.88	227	-4.0	81	-6.8	0	0	991.9	NA	0.0000		9999	1900	0	0	0
2019/04/21 03:10:00	BASE	10.21	233	11.88	227	-4.0	81	-6.7	0	0	991.9	NA	0.0000		9999	1940	0	0	0
2019/04/21 03:11:00	BASE	10.29	241	11.94	240	-4.0	82	-6.6	0	0	992.0	NA	0.0000		9999	1970	0	0	0
2019/04/21 03:12:00	BASE	9.77	235	11.94	240	-4.0	82	-6.5	0	0	992.0	NA	0.0000		9999	2030	0	0	0
2019/04/21 03:13:00	BASE	9.11	227	11.94	240	-3.9	83	-6.4	0	0	992.0	NA	0.0000		9999	1900	0	0	0
2019/04/21 03:14:00	BASE	9.61	227	11.94	240	-3.9	83	-6.4	0	0	992.0	NA	0.0000		9999	1840	0	0	0
2019/04/21 03:15:00	BASE	8.86	233	11.94	240	-4.0	84	-6.3	0	0	992.0	NA	0.0000		9999	1970	0	0	0
2019/04/21 03:16:00	BASE	7.54	232	11.94	240	-4.0	84	-6.3	0	0	992.0	NA	0.0000		9999	2000	0	0	0
2019/04/21 03:17:00	BASE	8.63	232	12.09	236	-4.0	84	-6.3	0	0	992.1	NA	0.0000		9999	2000	0	0	0
2019/04/21 03:18:00	BASE	9.24	236	12.09	236	-4.0	84	-6.3	0	0	992.1	NA	0.0000		9999	1940	0	0	0
2019/04/21 03:19:00	BASE	7.88	238	12.09	236	-4.1	84	-6.4	0	0	992.1	NA	0.0000		9999	2030	0	0	0
2019/04/21 03:20:00	BASE	7.87	243	12.09	236	-4.1	84	-6.4	0	0	992.1	NA	0.0000		9999	2030	0	0	0
2019/04/21 03:21:00	BASE	9.05	240	12.09	236	-4.1	84	-6.4	0	0	992.1	NA	0.0000		9999	2000	0	0	0
2019/04/21 03:22:00	BASE	8.69	230	12.09	236	-4.1	84	-6.4	0	0	992.1	NA	0.0000		9999	2000	0	0	0
2019/04/21 03:23:00	BASE	6.97	233	12.09	236	-4.1	84	-6.4	0	0	992.1	NA	0.0000		9999	1970	0	0	0
2019/04/21 03:24:00	BASE	7.04	231	12.09	236	-4.1	84	-6.4	0	0	992.1	NA	0.0000		9999	2000	0	0	0
2019/04/21 03:25:00	BASE	8.83	225	12.09	236	-4.1	84	-6.4	0	0	992.0	NA	0.0000		9999	2000	0	0	0
2019/04/21 03:26:00	BASE	9.43	232	12.09	236	-4.1	84	-6.4	0	0	992.0	NA	0.0000		9999	2000	0	0	0
2019/04/21 03:27:00	BASE	9.57	238	11.47	234	-4.1	84	-6.4	0	0	992.0	NA	0.0000		9999	2070	0	0	0
2019/04/21 03:28:00	BASE	9.58	238	11.47	234	-4.1	84	-6.4	0	0	992.1	NA	0.0000		9999	2100	0	0	0
2019/04/21 03:29:00	BASE	8.90	233	11.47	234	-4.1	84	-6.4	0	0	992.1	NA	0.0000		9999	2130	0	0	0
2019/04/21 03:30:00	BASE	9.36	233	12.04	229	-4.1	84	-6.4	0	0	992.0	NA	0.0000		9999	2070	0	0	0
2019/04/21 03:31:00	BASE	9.57	233	12.04	229	-4.1	84	-6.4	0	0	992.1	NA	0.0000		9999	2100	0	0	0
2019/04/21 03:32:00	BASE	9.72	235	12.71	242	-4.0	84	-6.3	0	0	992.0	NA	0.0000		9999	2070	0	0	0
2019/04/21 03:33:00	BASE	11.13	240	13.12	237	-4.0	84	-6.3	0	0	992.1	NA	0.0000		9999	2130	0	0	0
2019/04/21 03:34:00	BASE	10.36	237	13.12	237	-4.0	84	-6.3	0	0	992.1	NA	0.0000		9999	2100	0	0	0
2019/04/21 03:35:00	BASE	9.61	230	13.12	237	-4.0	84	-6.3	0	0	992.1	NA	0.0000		9999	2130	0	0	0
2019/04/21 03:36:00	BASE	9.12	233	13.12	237	-4.0	84	-6.4	0	0	992.1	NA	0.0000		9999	2000	0	0	0
2019/04/21 03:37:00	BASE	7.04	238	13.12	237	-4.1	84	-6.4	0	0	992.2	NA	0.0000		9999	2100	0	0	0
2019/04/21 03:38:00	BASE	5.51	240	13.12	237	-4.2	84	-6.5	0	0	992.2	NA	0.0000		9999	2030	0	0	0
2019/04/21 03:39:00	BASE	5.40	254	13.12	237	-4.2	84	-6.5	0	0	992.2	NA	0.0000		9999	2100	0	0	0
2019/04/21 03:40:00	BASE	5.67	253	13.12	237	-4.2	84	-6.6	0	0	992.2	NA	0.0000		9999	2130	0	0	0
2019/04/21 03:41:00	BASE	5.54	239	13.12	237	-4.3	83	-6.7	0	0	992.2	NA	0.0000		9999	2130	0	0	0
2019/04/21 03:42:00	BASE	5.36	238	13.12	237	-4.3	83	-6.7	0	0	992.2	NA	0.0000		9999	2130	0	0	0
2019/04/21 03:43:00	BASE	5.61	244	11.88	226	-4.3	83	-6.7	0	0	992.1	NA	0.0000		9999	2200	0	0	0
2019/04/21 03:44:00	BASE	7.56	234	11.88	226	-4.3	83	-6.7	0	0	992.1	NA	0.0000		9999	2100	0	0	0
2019/04/21 03:45:00	BASE	9.32	219	11.32	230	-4.2	83	-6.7	0	0	992.1	NA	0.0000		9999	2100	0	0	0
2019/04/21 03:46:00	BASE	9.46	212	11.32	230	-4.2	83	-6.6	0	0	992.1	NA	0.0000		9999	2070	0	0	0
2019/04/21 03:47:00	BASE	8.02	209	11.32	230	-4.2	83	-6.6	0	0	992.2	NA	0.0000		9999	2070	0	0	0
2019/04/21 03:48:00	BASE	6.92	210	11.32	230	-4.2	83	-6.6	0	0	992.2	NA	0.0000		9999	2070	0	0	0
2019/04/21 03:49:00	BASE	6.80	217	11.32	230	-4.2	83	-6.6	0	0	992.2	NA	0.0000		9999	2130	0	0	0
2019/04/21 03:50:00	BASE	6.67	225	11.32	230	-4.2	83	-6.6	0	0	992.2	NA	0.0000		9999	2200	0	0	0
2019/04/21 03:51:00	BASE	6.57	227	11.32	230	-4.2	83	-6.7	0	0	992.2	NA	0.0000		9999	2230	0	0	0
2019/04/21 03:52:00	BASE	7.99	232	11.32	230	-4.2	82	-6.8	0	0	992.2	NA	0.0000		9999	2230	0	0	0
2019/04/21 03:53:00	BASE	10.05	241	11.78	247	-4.2	82	-6.8	0	0	992.2	NA	0.0000		9999	2170	0	0	0
2019/04/21 03:54:00	BASE	9.90	239	11.78	247	-4.3	82	-6.9	0	0	992.2	NA	0.0000		9999	2130	0	0	0
2019/04/21 03:55:00	BASE	9.34	233	11.78	247	-4.3	81	-7.0	0	0	992.2	NA	0.0000		9999	2130	0	0	0
2019/04/21 03:56:00	BASE	8.91	237	11.78	247	-4.3	81	-7.0	0	0	992.2	NA	0.0000		9999	2100	0	0	0
2019/04/21 03:57:00	BASE	7.86	244	11.78	247	-4.3	81	-7.0	0	0	992.2	NA	0.0000		9999	2230	0	0	0
2019/04/21 03:58:00	BASE	7.13	245	11.78	247	-4.3	81	-7.1	0	0	992.2	NA	0.0000		9999	2260	0	0	0
2019/04/21 03:59:00	BASE	7.43	242	11.78	247	-4.3	81	-7.1	0	0	992.2	NA	0.0000		9999	2130	0	0	0
2019/04/21 04:00:00	BASE	8.22	240	11.78	247	-4.3	80	-7.1	0	0	992.2	NA	0.0000		9999	2260	0	0	0
2019/04/21 04:01:00	BASE	8.34	241	11.78	247	-4.3	80	-7.2	0	0	992.2	NA	0.0000		9999	2300	0	0	0
2019/04/21 04:02:00	BASE	7.21	234	11.78	247	-4.3	80	-7.2	0	0	992.2	NA	0.0000		9999	2130	0	0	0
2019/04/21 04:03:00	BASE	6.78	232	10.85	228	-4.3	80	-7.2	0	0	992.2	NA	0.0000		9999	2230	0	0	0
2019/04/21 04:04:00	BASE	6.54	236	10.85	228	-4.3	80	-7.2	0	0	992.2	NA	0.0000		9999	2260	0	0	0
2019/04/21 04:05:00	BASE	5.63	234	9.93	236	-4.2	80	-7.1	0	0	992.2	NA	0.0000		9999	2230	0	0	0
2019/04/21 04:06:00	BASE	5.68	235	9.93	236	-4.2	81	-7.1	0	0	992.2	NA	0.0000		9999	2170	0	0	0
2019/04/21 04:07:00	BASE	6.43	228	9.93	236	-4.2	81	-7.0	0	0	992.2	NA	0.0000		9999	2300	0	0	0
2019/04/21 04:08:00	BASE	7.34	213	9.93	236	-4.2	81	-7.0	0	0	992.2	NA	0.0000		9999	2300	0	0	0
2019/04/21 04:09:00	BASE	8.58	212	11.16	214	-4.2	81	-7.0	0	0	992.2	NA	0.0000		9999	2260	0	0	0
2019/04/21 04:10:00	BASE	8.95	212	11.16	214	-4.2	81	-7.0	0	0	992.2	NA	0.0000		9999	2200	0	0	0
2019/04/21 04:11:00	BASE	7.36	208	11.16	214	-4.2	81	-7.0	0	0	992.2	NA	0.0000		9999	2200	0	0	0
2019/04/21 04:12:00	BASE	6.33	211	11.16	214	-4.2	80	-7.1	0	0	992.2	NA	0.0000		9999	2360	0	0	0
2019/04/21 04:13:00	BASE	5.70	213	11.16	214	-4.3	80	-7.2	0	0	992.2	NA	0.0000		9999	2230	0	0	0
2019/04/21 04:14:00	BASE	5.69	217	11.16	214	-4.3	79	-7.3	0	0	992.2	NA	0.0000		9999	2170	0	0	0
2019/04/21 04:15:00	BASE	6.88	234	11.16	214	-4.3	79	-7.4	0	0	992.2	NA	0.0000		9999	2130	0	0	0
2019/04/21 04:16:00	BASE	7.78	245	11.16	214	-4.3	79	-7.4	0	0	992.2	NA	0.0000		9999	2170	0	0	0
2019/04/21 04:17:00	BASE	8.14	247	11.16	214	-4.3	79	-7.4	0	0	992.2	NA	0.0000		9999	2170	0	0	0
2019/04/21 04:18:00	BASE	7.71	247	11.16	214	-4.3	79	-7.4	0	0	992.2	NA	0.0000		9999	2130	0	0	0
2019/04/21 04:19:00	BASE	5.94	233	9.77	215	-4.3	80	-7.3	0	0	992.2	NA	0.0000		9999	2130	0	0	0
2019/04/21 04:20:00	BASE	4.80	227	9.67	245	-4.4	80	-7.3	0	0	992.2	NA	0.0000		9999	2170	0	0	0
2019/04/21 04:21:00	BASE	7.07	228	12.45	221	-4.4	80	-7.3	0	0	992.2	NA	0.0000		9999	2130	0	0	0
2019/04/21 04:22:00	BASE	10.34	217	14.51	214	-4.3	80	-7.2	0	0	992.2	NA	0.0000		9999	2200	0	0	0
2019/04/21 04:23:00	BASE	11.70	211	14.51	214	-4.3	80	-7.2	0	0	992.2	NA	0.0000		9999	2200	0	0	0
2019/04/21 04:24:00	BASE	10.38	205	14.51	214	-4.3	81	-7.1	0	0	992.2	NA	0.0000		9999	2170	0	0	0
2019/04/21 04:25:00	BASE	8.64	199	14.51	214	-4.3	81	-7.1	0	0	992.3	NA	0.0000		9999	2200	0	0	0
2019/04/21 04:26:00	BASE	7.32	200	14.51	214	-4.3	81	-7.0	0	0	992.3	NA	0.0000		9999	2030	0	0	0
2019/04/21 04:27:00	BASE	5.48	202	14.51	214	-4.3	81	-7.0	0	0	992.3	NA	0.0000		9999	2000	0	0	0
2019/04/21 04:28:00	BASE	4.26	212	14.51	214	-4.3	81	-7.0	0	0	992.3	NA	0.0000		9999	1900	0	0	0
2019/04/21 04:29:00	BASE	3.70	239	14.51	214	-4.3	81	-7.0	0	0	992.3	NA	0.0000		9999	1940	0	0	0
2019/04/21 04:30:00	BASE	3.43	245	14.51	214	-4.3	81	-7.0	0	0	992.3	NA	0.0000		9999	1970	0	0	0
2019/04/21 04:31:00	BASE	3.21	237	14.51	214	-4.3	81	-7.0	0	0	992.3	NA	0.0000		9999	2000	0	0	0
2019/04/21 04:32:00	BASE	3.66	234	12.91	215	-4.3	81	-7.1	0	0	992.3	NA	0.0000		9999	1970	0	0	0
2019/04/21 04:33:00	BASE	4.30	239	10.80	198	-4.3	81	-7.1	0	0	992.3	NA	0.0000		9999	2030	0	0	0
2019/04/21 04:34:00	BASE	4.46	244	9.31	195	-4.3	81	-7.1	0	0	992.3	NA	0.0000		9999	2000	0	0	0
2019/04/21 04:35:00	BASE	4.57	235	6.84	209	-4.3	81	-7.1	0	0	992.3	NA	0.0000		9999	2000	0	0	0
2019/04/21 04:36:00	BASE	4.69	227	7.05	220	-4.3	81	-7.1	0	0	992.3	NA	0.0000		9999	2000	0	0	0
2019/04/21 04:37:00	BASE	5.90	225	9.05	224	-4.3	81	-7.1	0	0	992.3	NA	0.0000		9999	1940	0	0	0
2019/04/21 04:38:00	BASE	7.83	220	9.31	212	-4.3	81	-7.0	0	0	992.3	NA	0.0000		9999	2030	0	0	0
2019/04/21 04:39:00	BASE	8.14	209	9.36	211	-4.2	81	-6.9	0	0	992.3	NA	0.0000		9999	2000	0	0	0
2019/04/21 04:40:00	BASE	8.25	204	9.36	213	-4.2	82	-6.9	0	0	992.3	NA	0.0000		9999	1940	0	0	0
2019/04/21 04:41:00	BASE	8.17	214	9.36	213	-4.2	82	-6.8	0	0	992.3	NA	0.0000		9999	2130	0	0	0
2019/04/21 04:42:00	BASE	7.30	232	9.36	213	-4.2	82	-6.8	0	0	992.3	NA	0.0000		9999	2130	0	0	0
2019/04/21 04:43:00	BASE	6.84	244	9.36	213	-4.2	82	-6.7	0	0	992.3	NA	0.0000		9999	1900	0	0	0
2019/04/21 04:44:00	BASE	6.03	244	9.36	213	-4.2	82	-6.8	0	0	992.3	NA	0.0000		9999	1940	0	0	0
2019/04/21 04:45:00	BASE	5.65	247	9.36	213	-4.2	82	-6.8	0	0	992.4	NA	0.0000		9999	1900	0	0	0
2019/04/21 04:46:00	BASE	5.42	251	9.36	213	-4.2	82	-6.8	0	0	992.3	NA	0.0000		9999	1940	0	0	0
2019/04/21 04:47:00	BASE	5.39	250	9.36	213	-4.3	82	-6.8	0	0	992.4	NA	0.0000		9999	1900	0	0	0
2019/04/21 04:48:00	BASE	7.19	240	9.36	230	-4.3	82	-6.8	0	0	992.3	NA	0.0000		9999	1900	0	0	0
2019/04/21 04:49:00	BASE	8.08	229	9.36	230	-4.2	82	-6.8	0	0	992.4	NA	0.0000		9999	1900	0	0	0
2019/04/21 04:50:00	BASE	7.72	226	10.80	220	-4.2	83	-6.7	0	0	992.4	NA	0.0000		9999	1900	0	0	0
2019/04/21 04:51:00	BASE	9.24	224	11.99	225	-4.2	83	-6.7	0	0	992.4	NA	0.0000		9999	1940	0	0	0
2019/04/21 04:52:00	BASE	9.34	226	11.99	225	-4.2	83	-6.6	0	0	992.4	NA	0.0000		9999	1940	0	0	0
2019/04/21 04:53:00	BASE	8.45	223	11.99	225	-4.1	83	-6.5	0	0	992.4	NA	0.0000		9999	1940	0	0	0
2019/04/21 04:54:00	BASE	9.37	222	11.99	225	-4.1	84	-6.5	0	0	992.4	NA	0.0000		9999	1970	0	0	0
2019/04/21 04:55:00	BASE	9.50	232	11.99	225	-4.1	84	-6.4	0	0	992.4	NA	0.0000		9999	1970	0	0	0
2019/04/21 04:56:00	BASE	9.01	236	11.99	225	-4.1	84	-6.4	0	0	992.4	NA	0.0000		9999	1940	0	0	0
2019/04/21 04:57:00	BASE	8.61	231	11.99	225	-4.1	84	-6.4	0	0	992.4	NA	0.0000		9999	1900	0	0	0
2019/04/21 04:58:00	BASE	7.56	233	11.99	225	-4.1	84	-6.4	0	0	992.4	NA	0.0000		9999	1940	0	0	0
2019/04/21 04:59:00	BASE	6.92	239	11.99	225	-4.1	84	-6.4	0	0	992.4	NA	0.0000		9999	1970	0	0	0
2019/04/21 05:00:00	BASE	8.71	238	12.55	238	-4.2	84	-6.4	0	0	992.4	NA	0.0000		9999	1970	0	0	0
2019/04/21 05:01:00	BASE	9.83	236	12.55	238	-4.2	85	-6.4	0	0	992.4	NA	0.0000		9999	1970	0	0	0
2019/04/21 05:02:00	BASE	9.61	244	12.55	238	-4.2	85	-6.4	0	0	992.4	NA	0.0000		9999	1970	0	0	0
2019/04/21 05:03:00	BASE	8.80	247	12.55	238	-4.2	85	-6.3	0	0	992.4	NA	0.0000		9999	2070	0	0	0
2019/04/21 05:04:00	BASE	8.84	229	12.55	238	-4.2	85	-6.4	0	0	992.4	NA	0.0000		9999	2070	0	0	0
2019/04/21 05:05:00	BASE	10.11	218	12.55	238	-4.2	85	-6.4	0	0	992.4	NA	0.0000		9999	2070	0	0	0
2019/04/21 05:06:00	BASE	10.33	219	12.55	238	-4.2	85	-6.4	0	0	992.5	NA	0.0000		9999	2070	0	0	0
2019/04/21 05:07:00	BASE	9.98	223	12.55	238	-4.2	85	-6.4	0	0	992.5	NA	0.0000		9999	2100	0	0	0
2019/04/21 05:08:00	BASE	9.69	230	12.55	238	-4.2	84	-6.4	0	0	992.4	NA	0.0000		9999	2100	0	0	0
2019/04/21 05:09:00	BASE	9.46	233	12.55	238	-4.2	84	-6.4	0	0	992.5	NA	0.0000		9999	2070	0	0	0
2019/04/21 05:10:00	BASE	8.90	234	12.24	223	-4.2	84	-6.5	0	0	992.6	NA	0.0000		9999	1970	0	0	0
2019/04/21 05:11:00	BASE	8.20	238	12.24	223	-4.2	84	-6.5	0	0	992.6	NA	0.0000		9999	2070	0	0	0
2019/04/21 05:12:00	BASE	8.03	241	12.24	223	-4.2	84	-6.6	0	0	992.6	NA	0.0000		9999	2070	0	0	0
2019/04/21 05:13:00	BASE	7.89	240	12.24	223	-4.3	84	-6.6	0	0	992.6	NA	0.0000		9999	2100	0	0	0
2019/04/21 05:14:00	BASE	6.96	242	12.24	223	-4.3	83	-6.7	0	0	992.5	NA	0.0000		9999	2030	0	0	0
2019/04/21 05:15:00	BASE	9.09	236	12.45	232	-4.3	83	-6.7	0	0	992.5	NA	0.0000		9999	1970	0	0	0
2019/04/21 05:16:00	BASE	11.02	232	12.45	232	-4.3	83	-6.7	0	0	992.5	NA	0.0000		9999	2070	0	0	0
2019/04/21 05:17:00	BASE	10.24	234	12.45	232	-4.3	83	-6.7	0	0	992.6	NA	0.0000		9999	2130	0	0	0
2019/04/21 05:18:00	BASE	9.87	239	12.45	232	-4.3	83	-6.7	0	0	992.6	NA	0.0000		9999	2030	0	0	0
2019/04/21 05:19:00	BASE	8.87	245	12.45	232	-4.3	83	-6.7	0	0	992.6	NA	0.0000		9999	2000	0	0	0
2019/04/21 05:20:00	BASE	8.21	247	12.45	232	-4.3	83	-6.7	0	0	992.6	NA	0.0000		9999	2070	0	0	0
2019/04/21 05:21:00	BASE	8.26	244	12.45	232	-4.3	83	-6.7	0	0	992.6	NA	0.0000		9999	2070	0	0	0
2019/04/21 05:22:00	BASE	8.00	241	12.45	232	-4.3	84	-6.7	0	0	992.6	NA	0.0000		9999	2100	0	0	0
2019/04/21 05:23:00	BASE	7.46	241	12.45	232	-4.3	84	-6.6	0	0	992.7	NA	0.0000		9999	2100	0	0	0
2019/04/21 05:24:00	BASE	6.99	239	12.45	232	-4.3	84	-6.6	0	0	992.7	NA	0.0000		9999	2170	0	0	0
2019/04/21 05:25:00	BASE	6.76	241	11.78	234	-4.4	84	-6.7	0	0	992.7	NA	0.0000		9999	2130	0	0	0
2019/04/21 05:26:00	BASE	5.76	240	11.16	232	-4.4	84	-6.7	0	0	992.7	NA	0.0000		9999	2100	0	0	0
2019/04/21 05:27:00	BASE	4.82	244	10.85	231	-4.4	83	-6.8	0	0	992.7	NA	0.0000		9999	2100	0	0	0
2019/04/21 05:28:00	BASE	4.79	254	9.52	257	-4.3	83	-6.8	0	0	992.8	NA	0.0000		9999	1970	0	0	0
2019/04/21 05:29:00	BASE	4.97	253	9.52	257	-4.3	83	-6.8	0	0	992.8	NA	0.0000		9999	1900	0	0	0
2019/04/21 05:30:00	BASE	5.02	248	9.00	242	-4.3	83	-6.8	0	0	992.8	NA	0.0000		9999	2000	0	0	0
2019/04/21 05:31:00	BASE	7.06	238	10.24	230	-4.4	83	-6.7	0	0	992.7	NA	0.0000		9999	2070	0	0	0
2019/04/21 05:32:00	BASE	8.47	232	10.24	230	-4.4	84	-6.7	0	0	992.7	NA	0.0000		9999	2030	0	0	0
2019/04/21 05:33:00	BASE	6.62	237	10.24	230	-4.4	84	-6.7	0	0	992.7	NA	0.0000		9999	2000	0	0	0
2019/04/21 05:34:00	BASE	6.18	245	10.24	230	-4.4	84	-6.7	0	0	992.8	NA	0.0000		9999	2000	0	0	0
2019/04/21 05:35:00	BASE	6.95	245	10.24	230	-4.4	84	-6.7	0	0	992.8	NA	0.0000		9999	2130	0	0	0
2019/04/21 05:36:00	BASE	6.96	247	10.24	230	-4.4	83	-6.7	0	0	992.8	NA	0.0000		9999	2070	0	0	0
2019/04/21 05:37:00	BASE	6.90	252	10.24	230	-4.3	83	-6.8	0	0	992.8	NA	0.0000		9999	2000	0	0	0
2019/04/21 05:38:00	BASE	6.10	241	10.24	230	-4.3	83	-6.8	0	0	992.8	NA	0.0000		9999	2030	0	0	0
2019/04/21 05:39:00	BASE	5.14	240	10.24	230	-4.3	83	-6.7	0	0	992.8	NA	0.0000		9999	2030	0	0	0
2019/04/21 05:40:00	BASE	5.78	249	10.24	230	-4.3	83	-6.7	0	0	992.8	NA	0.0000		9999	1970	0	0	0
2019/04/21 05:41:00	BASE	6.86	239	9.67	238	-4.3	84	-6.6	0	0	992.8	NA	0.0000		9999	1970	0	0	0
2019/04/21 05:42:00	BASE	7.42	230	8.90	232	-4.3	84	-6.6	0	0	992.8	NA	0.0000		9999	2000	0	0	0
2019/04/21 05:43:00	BASE	8.40	231	10.70	226	-4.2	84	-6.5	0	0	992.8	NA	0.0000		9999	2070	0	0	0
2019/04/21 05:44:00	BASE	10.01	229	13.84	218	-4.2	84	-6.5	0	0	992.8	NA	0.0000		9999	2030	0	0	0
2019/04/21 05:45:00	BASE	10.38	226	13.84	218	-4.2	84	-6.5	0	0	992.8	NA	0.0000		9999	1970	0	0	0
2019/04/21 05:46:00	BASE	10.20	228	13.84	218	-4.3	84	-6.6	0	0	992.8	NA	0.0000		9999	2000	0	0	0
2019/04/21 05:47:00	BASE	8.69	225	13.84	218	-4.3	84	-6.6	0	0	992.9	NA	0.0000		9999	1900	0	0	0
2019/04/21 05:48:00	BASE	5.88	230	13.84	218	-4.3	84	-6.7	0	0	992.9	NA	0.0000		9999	1940	0	0	0
2019/04/21 05:49:00	BASE	5.38	239	13.84	218	-4.4	83	-6.8	0	0	992.9	NA	0.0000		9999	2000	0	0	0
2019/04/21 05:50:00	BASE	5.98	239	13.84	218	-4.4	83	-6.8	0	0	992.9	NA	0.0000		9999	2000	0	0	0
2019/04/21 05:51:00	BASE	6.02	236	13.84	218	-4.4	83	-6.8	0	0	992.9	NA	0.0000		9999	1970	0	0	0
2019/04/21 05:52:00	BASE	5.89	234	13.84	218	-4.4	83	-6.8	0	0	992.9	NA	0.0000		9999	2000	0	0	0
2019/04/21 05:53:00	BASE	7.53	235	13.84	218	-4.3	83	-6.8	0	0	992.9	NA	0.0000		9999	2000	0	0	0
2019/04/21 05:54:00	BASE	9.19	234	12.60	229	-4.3	83	-6.8	0	0	992.9	NA	0.0000		9999	1970	0	0	0
2019/04/21 05:55:00	BASE	8.05	239	12.60	229	-4.3	83	-6.8	0	0	993.0	NA	0.0000		9999	1870	0	0	0
2019/04/21 05:56:00	BASE	6.28	249	10.91	235	-4.3	83	-6.8	0	0	993.0	NA	0.0000		9999	2030	0	0	0
2019/04/21 05:57:00	BASE	5.33	242	10.91	235	-4.4	83	-6.8	0	0	993.0	NA	0.0000		9999	2070	0	0	0
2019/04/21 05:58:00	BASE	6.47	224	10.91	235	-4.4	83	-6.8	0	0	993.0	NA	0.0000		9999	2100	0	0	0
2019/04/21 05:59:00	BASE	7.25	219	10.91	235	-4.4	83	-6.8	0	0	993.0	NA	0.0000		9999	1970	0	0	0
2019/04/21 06:00:00	BASE	7.32	222	10.91	235	-4.3	83	-6.8	0	0	993.0	NA	0.0000		9999	2000	0	0	0
2019/04/21 06:01:00	BASE	9.48	217	11.83	208	-4.3	83	-6.8	0	0	993.0	NA	0.0000		9999	2030	0	0	0
2019/04/21 06:02:00	BASE	9.84	216	11.83	208	-4.3	83	-6.7	0	0	993.0	NA	0.0000		9999	2000	0	0	0
2019/04/21 06:03:00	BASE	9.07	215	11.83	208	-4.3	83	-6.8	0	0	993.1	NA	0.0000		9999	1970	0	0	0
2019/04/21 06:04:00	BASE	8.32	213	11.83	208	-4.3	83	-6.7	0	0	993.1	NA	0.0000		9999	2100	0	0	0
2019/04/21 06:05:00	BASE	7.40	210	11.83	208	-4.3	83	-6.7	0	0	993.1	NA	0.0000		9999	2000	0	0	0
2019/04/21 06:06:00	BASE	7.42	204	11.83	208	-4.3	83	-6.7	0	0	993.1	NA	0.0000		9999	1970	0	0	0
2019/04/21 06:07:00	BASE	7.69	209	11.83	208	-4.2	83	-6.7	0	0	993.1	NA	0.0000		9999	1940	0	0	0
2019/04/21 06:08:00	BASE	8.78	218	11.83	208	-4.2	83	-6.6	0	0	993.1	NA	0.0000		9999	1900	0	0	0
2019/04/21 06:09:00	BASE	9.21	222	11.83	208	-4.2	83	-6.6	0	0	993.1	NA	0.0000		9999	1940	0	0	0
2019/04/21 06:10:00	BASE	9.11	231	11.83	208	-4.2	84	-6.6	0	0	993.2	NA	0.0000		9999	1940	0	0	0
2019/04/21 06:11:00	BASE	9.87	241	11.63	240	-4.3	84	-6.6	0	0	993.2	NA	0.0000		9999	2000	0	0	0
2019/04/21 06:12:00	BASE	8.46	236	11.63	240	-4.3	84	-6.6	0	0	993.2	NA	0.0000		9999	1840	0	0	0
2019/04/21 06:13:00	BASE	5.84	238	11.63	240	-4.3	84	-6.6	0	0	993.2	NA	0.0000		9999	1940	0	0	0
2019/04/21 06:14:00	BASE	5.83	240	11.63	240	-4.3	84	-6.6	0	0	993.2	NA	0.0000		9999	1970	0	0	0
2019/04/21 06:15:00	BASE	7.14	235	11.63	240	-4.3	84	-6.6	0	0	993.2	NA	0.0000		9999	2000	0	0	0
2019/04/21 06:16:00	BASE	7.89	236	11.63	240	-4.3	84	-6.6	0	0	993.2	NA	0.0000		9999	1970	0	0	0
2019/04/21 06:17:00	BASE	7.32	247	11.63	240	-4.3	85	-6.5	0	0	993.2	NA	0.0000		9999	1940	0	0	0
2019/04/21 06:18:00	BASE	5.94	256	11.63	240	-4.3	85	-6.5	0	0	993.2	NA	0.0000		9999	1970	0	0	0
2019/04/21 06:19:00	BASE	5.07	252	11.63	240	-4.4	85	-6.6	0	0	993.2	NA	0.0000		9999	1970	0	0	0
2019/04/21 06:20:00	BASE	4.85	250	11.63	240	-4.4	84	-6.6	0	0	993.3	NA	0.0000		9999	1970	0	0	0
2019/04/21 06:21:00	BASE	5.00	239	10.24	238	-4.5	84	-6.7	0	0	993.3	NA	0.0000		9999	1970	0	0	0
2019/04/21 06:22:00	BASE	5.41	224	10.24	238	-4.5	84	-6.8	0	0	993.2	NA	0.0000		9999	2000	0	0	0
2019/04/21 06:23:00	BASE	6.22	225	10.24	238	-4.5	84	-6.8	0	0	993.2	NA	0.0000		9999	2000	0	0	0
2019/04/21 06:24:00	BASE	9.16	229	12.91	235	-4.4	84	-6.7	0	0	993.2	NA	0.0000		9999	2070	0	0	0
2019/04/21 06:25:00	BASE	10.13	230	12.91	235	-4.4	84	-6.6	0	0	993.2	NA	0.0000		9999	2030	0	0	0
2019/04/21 06:26:00	BASE	8.06	233	12.91	235	-4.4	85	-6.6	0	0	993.3	NA	0.0000		9999	2000	0	0	0
2019/04/21 06:27:00	BASE	7.64	240	12.91	235	-4.3	85	-6.5	0	0	993.3	NA	0.0000		9999	1940	0	0	0
2019/04/21 06:28:00	BASE	7.98	242	12.91	235	-4.3	85	-6.5	0	0	993.3	NA	0.0000		9999	1940	0	0	0
2019/04/21 06:29:00	BASE	8.65	238	12.91	235	-4.3	85	-6.5	0	0	993.2	NA	0.0000		9999	2030	0	0	0
2019/04/21 06:30:00	BASE	8.91	240	12.91	235	-4.3	85	-6.5	0	0	993.2	NA	0.0000		9999	2000	0	0	0
2019/04/21 06:31:00	BASE	8.61	240	12.91	235	-4.3	85	-6.5	0	0	993.2	NA	0.0000		9999	2000	0	0	0
2019/04/21 06:32:00	BASE	8.25	237	12.91	235	-4.4	85	-6.5	0	0	993.2	NA	0.0000		9999	1870	0	0	0
2019/04/21 06:33:01	BASE	7.69	240	12.91	235	-4.4	85	-6.5	0	0	993.3	NA	0.0000		9999	1940	0	0	0
2019/04/21 06:34:01	BASE	8.13	242	11.16	233	-4.4	85	-6.6	0	0	993.3	NA	0.0000		9999	1900	0	0	0
2019/04/21 06:35:00	BASE	8.61	239	11.16	233	-4.4	85	-6.6	0	0	993.3	NA	0.0000		9999	1940	0	0	0
2019/04/21 06:36:00	BASE	7.46	242	11.16	233	-4.5	85	-6.6	0	0	993.3	NA	0.0000		9999	2000	0	0	0
2019/04/21 06:37:00	BASE	5.94	241	11.16	233	-4.5	85	-6.7	0	0	993.3	NA	0.0000		9999	1940	0	0	0
2019/04/21 06:38:00	BASE	4.40	244	11.16	233	-4.5	85	-6.7	0	0	993.3	NA	0.0000		9999	2030	0	0	0
2019/04/21 06:39:00	BASE	4.22	253	10.19	239	-4.5	84	-6.7	0	0	993.3	NA	0.0000		9999	2030	0	0	0
2019/04/21 06:40:00	BASE	6.76	239	11.42	223	-4.5	84	-6.7	0	0	993.3	NA	0.0000		9999	2030	0	0	0
2019/04/21 06:41:00	BASE	8.65	220	11.42	223	-4.5	84	-6.7	0	0	993.3	NA	0.0000		9999	2000	0	0	0
2019/04/21 06:42:00	BASE	7.92	217	11.42	223	-4.4	85	-6.6	0	0	993.3	NA	0.0000		9999	1970	0	0	0
2019/04/21 06:43:00	BASE	6.51	213	11.42	223	-4.4	85	-6.6	0	0	993.4	NA	0.0000		9999	2000	0	0	0
2019/04/21 06:44:00	BASE	6.72	215	11.42	223	-4.4	85	-6.6	0	0	993.4	NA	0.0000		9999	1940	0	0	0
2019/04/21 06:45:00	BASE	7.57	225	11.42	223	-4.4	84	-6.7	0	0	993.4	NA	0.0000		9999	1970	0	0	0
2019/04/21 06:46:00	BASE	7.47	226	11.42	223	-4.4	84	-6.7	0	0	993.4	NA	0.0000		9999	2000	0	0	0
2019/04/21 06:47:00	BASE	6.86	229	11.42	223	-4.4	84	-6.7	0	0	993.4	NA	0.0000		9999	2000	0	0	0
2019/04/21 06:48:00	BASE	6.22	243	11.42	223	-4.4	84	-6.7	0	0	993.4	NA	0.0000		9999	1970	0	0	0
2019/04/21 06:49:00	BASE	7.45	239	11.63	224	-4.4	84	-6.7	0	0	993.4	NA	0.0000		9999	1970	0	0	0
2019/04/21 06:50:00	BASE	8.54	227	11.63	224	-4.4	84	-6.7	0	0	993.4	NA	0.0000		9999	2000	0	0	0
2019/04/21 06:51:00	BASE	8.72	228	11.63	224	-4.4	84	-6.7	0	0	993.3	NA	0.0000		9999	1970	0	0	0
2019/04/21 06:52:00	BASE	10.27	230	13.74	231	-4.3	84	-6.6	0	0	993.3	NA	0.0000		9999	1970	0	0	0
2019/04/21 06:53:00	BASE	10.84	229	13.74	231	-4.3	84	-6.5	0	0	993.3	NA	0.0000		9999	2000	0	0	0
2019/04/21 06:54:00	BASE	10.25	228	13.74	231	-4.3	85	-6.5	0	0	993.3	NA	0.0000		9999	1940	0	0	0
2019/04/21 06:55:00	BASE	9.63	230	13.74	231	-4.3	85	-6.4	0	0	993.4	NA	0.0000		9999	1900	0	0	0
2019/04/21 06:56:00	BASE	8.81	230	13.74	231	-4.3	85	-6.4	0	0	993.4	NA	0.0000		9999	1900	0	0	0
2019/04/21 06:57:00	BASE	7.93	224	13.74	231	-4.3	85	-6.4	0	0	993.4	NA	0.0000		9999	1900	0	0	0
2019/04/21 06:58:00	BASE	7.40	225	13.74	231	-4.3	85	-6.5	0	0	993.4	NA	0.0000		9999	1940	0	0	0
2019/04/21 06:59:00	BASE	6.91	231	13.74	231	-4.3	85	-6.5	0	0	993.4	NA	0.0000		9999	1940	0	0	0
2019/04/21 07:00:00	BASE	7.00	229	13.74	231	-4.4	85	-6.5	0	0	993.4	NA	0.0000		9999	1940	0	0	0
2019/04/21 07:01:00	BASE	6.98	231	13.74	231	-4.4	85	-6.5	0	0	993.4	NA	0.0000		9999	1900	0	0	0
2019/04/21 07:02:00	BASE	6.63	241	11.88	227	-4.4	85	-6.5	0	0	993.4	NA	0.0000		9999	1840	0	0	0
2019/04/21 07:03:00	BASE	7.78	248	11.42	226	-4.3	85	-6.5	0	0	993.4	NA	0.0000		9999	1940	0	0	0
2019/04/21 07:04:00	BASE	8.66	247	10.24	253	-4.3	85	-6.5	0	0	993.4	NA	0.0000		9999	1900	0	0	0
2019/04/21 07:05:00	BASE	8.39	242	10.24	253	-4.4	85	-6.5	0	0	993.4	NA	0.0000		9999	1940	0	0	0
2019/04/21 07:06:00	BASE	8.05	238	10.24	253	-4.4	85	-6.5	0	0	993.4	NA	0.0000		9999	1840	0	0	0
2019/04/21 07:07:00	BASE	7.19	238	10.24	253	-4.4	85	-6.6	0	0	993.4	NA	0.0000		9999	1940	0	0	0
2019/04/21 07:08:00	BASE	6.87	236	10.24	253	-4.4	85	-6.6	0	0	993.5	NA	0.0000		9999	1970	0	0	0
2019/04/21 07:09:00	BASE	6.67	236	10.24	253	-4.4	85	-6.6	0	0	993.5	NA	0.0000		9999	2000	0	0	0
2019/04/21 07:10:00	BASE	6.36	239	10.24	253	-4.4	85	-6.6	0	0	993.5	NA	0.0000		9999	1940	0	0	0
2019/04/21 07:11:00	BASE	6.37	238	10.24	253	-4.4	85	-6.6	0	0	993.5	NA	0.0000		9999	1900	0	0	0
2019/04/21 07:12:00	BASE	6.26	240	10.24	253	-4.4	85	-6.5	0	0	993.5	NA	0.0000		9999	1940	0	0	0
2019/04/21 07:13:00	BASE	7.52	236	10.75	231	-4.4	85	-6.5	0	0	993.5	NA	0.0000		9999	2000	0	0	0
2019/04/21 07:14:00	BASE	9.16	227	10.75	231	-4.4	85	-6.5	0	0	993.5	NA	0.0000		9999	1970	0	0	0
2019/04/21 07:15:00	BASE	9.94	225	11.78	226	-4.3	85	-6.5	0	0	993.5	NA	0.0000		9999	2070	0	0	0
2019/04/21 07:16:00	BASE	11.73	226	14.82	227	-4.3	85	-6.4	0	0	993.4	NA	0.0000		9999	1900	0	0	0
2019/04/21 07:17:00	BASE	12.41	225	14.82	227	-4.3	85	-6.4	0	0	993.4	NA	0.0000		9999	1870	0	0	0
2019/04/21 07:18:00	BASE	11.20	220	14.82	227	-4.2	85	-6.4	0	0	993.4	NA	0.0000		9999	1940	0	0	0
2019/04/21 07:19:00	BASE	9.43	212	14.82	227	-4.2	85	-6.4	0	0	993.5	NA	0.0000		9999	1870	0	0	0
2019/04/21 07:20:00	BASE	8.00	201	14.82	227	-4.3	85	-6.5	0	0	993.5	NA	0.0000		9999	1970	0	0	0
2019/04/21 07:21:00	BASE	7.96	200	14.82	227	-4.3	84	-6.6	0	0	993.5	NA	0.0000		9999	2030	0	0	0
2019/04/21 07:22:00	BASE	9.21	209	14.82	227	-4.3	84	-6.6	0	0	993.5	NA	0.0000		9999	2000	0	0	0
2019/04/21 07:23:00	BASE	10.12	220	14.82	227	-4.3	84	-6.6	0	0	993.5	NA	0.0000		9999	2000	0	0	0
2019/04/21 07:24:00	BASE	9.42	229	14.82	227	-4.3	84	-6.6	0	0	993.5	NA	0.0000		9999	1940	0	0	0
2019/04/21 07:25:00	BASE	8.93	230	14.82	227	-4.3	84	-6.6	0	0	993.5	NA	0.0000		9999	2000	0	0	0
2019/04/21 07:26:00	BASE	8.05	236	13.27	220	-4.2	84	-6.5	0	0	993.5	NA	0.0000		9999	2070	0	0	0
2019/04/21 07:27:00	BASE	6.62	246	11.99	218	-4.3	84	-6.6	0	0	993.5	NA	0.0000		9999	2070	0	0	0
2019/04/21 07:28:00	BASE	6.94	244	11.99	218	-4.3	84	-6.6	0	0	993.5	NA	0.0000		9999	2130	0	0	0
2019/04/21 07:29:00	BASE	9.11	233	11.99	218	-4.3	84	-6.7	0	0	993.5	NA	0.0000		9999	2100	0	0	0
2019/04/21 07:30:00	BASE	10.01	225	11.99	218	-4.3	84	-6.6	0	0	993.5	NA	0.0000		9999	2070	0	0	0
2019/04/21 07:31:00	BASE	11.19	225	14.56	222	-4.3	84	-6.6	0	0	993.5	NA	0.0000		9999	2070	0	0	0
2019/04/21 07:32:00	BASE	12.14	217	14.56	222	-4.3	84	-6.6	0	0	993.5	NA	0.0000		9999	1970	0	0	0
2019/04/21 07:33:00	BASE	10.10	211	14.56	222	-4.3	84	-6.6	0	0	993.6	NA	0.0000		9999	2000	0	0	0
2019/04/21 07:34:00	BASE	8.22	216	14.56	222	-4.3	83	-6.7	0	0	993.6	NA	0.0000		9999	2000	0	0	0
2019/04/21 07:35:00	BASE	7.89	221	14.56	222	-4.3	83	-6.7	0	0	993.6	NA	0.0000		9999	2000	0	0	0
2019/04/21 07:36:00	BASE	8.93	221	14.56	222	-4.3	83	-6.8	0	0	993.6	NA	0.0000		9999	2070	0	0	0
2019/04/21 07:37:00	BASE	10.87	222	14.56	222	-4.3	83	-6.8	0	0	993.6	NA	0.0000		9999	2170	0	0	0
2019/04/21 07:38:00	BASE	10.85	222	14.56	222	-4.3	82	-6.9	0	0	993.6	NA	0.0000		9999	2100	0	0	0
2019/04/21 07:39:00	BASE	9.16	220	14.56	222	-4.3	82	-6.9	0	0	993.6	NA	0.0000		9999	2130	0	0	0
2019/04/21 07:40:00	BASE	9.75	223	14.56	222	-4.3	82	-7.0	0	0	993.6	NA	0.0000		9999	2230	0	0	0
2019/04/21 07:41:00	BASE	9.88	218	14.30	219	-4.3	82	-7.0	0	0	993.6	NA	0.0000		9999	2030	0	0	0
2019/04/21 07:42:00	BASE	6.73	211	14.30	219	-4.4	82	-7.0	0	0	993.7	NA	0.0000		9999	2130	0	0	0
2019/04/21 07:43:00	BASE	5.08	215	14.30	219	-4.4	81	-7.1	0	0	993.7	NA	0.0000		9999	2030	0	0	0
2019/04/21 07:44:00	BASE	5.38	223	14.30	219	-4.4	81	-7.1	0	0	993.7	NA	0.0000		9999	1970	0	0	0
2019/04/21 07:45:00	BASE	5.97	223	14.30	219	-4.4	81	-7.1	0	0	993.6	NA	0.0000		9999	2000	0	0	0
2019/04/21 07:46:00	BASE	6.55	204	14.30	219	-4.3	81	-7.1	0	0	993.6	NA	0.0000		9999	1900	0	0	0
2019/04/21 07:47:00	BASE	7.40	187	12.50	215	-4.3	81	-7.0	0	0	993.6	NA	0.0000		9999	2000	0	0	0
2019/04/21 07:48:00	BASE	7.05	184	12.50	215	-4.3	82	-6.9	0	0	993.6	NA	0.0000		9999	2000	0	0	0
2019/04/21 07:49:00	BASE	5.57	187	12.50	215	-4.2	82	-6.9	0	0	993.7	NA	0.0000		9999	2000	0	0	0
2019/04/21 07:50:00	BASE	5.29	199	12.09	211	-4.2	82	-6.8	0	0	993.7	NA	0.0000		9999	1900	0	0	0
2019/04/21 07:51:00	BASE	5.54	216	9.00	186	-4.2	82	-6.8	0	0	993.7	NA	0.0000		9999	1970	0	0	0
2019/04/21 07:52:00	BASE	5.94	218	9.00	186	-4.2	83	-6.7	0	0	993.7	NA	0.0000		9999	1940	0	0	0
2019/04/21 07:53:00	BASE	5.83	206	9.00	186	-4.2	83	-6.7	0	0	993.7	NA	0.0000		9999	1870	0	0	0
2019/04/21 07:54:00	BASE	5.41	201	9.00	186	-4.2	83	-6.7	0	0	993.8	NA	0.0000		9999	1900	0	0	0
2019/04/21 07:55:00	BASE	5.30	202	9.00	186	-4.2	83	-6.7	0	0	993.9	NA	0.0000		9999	1970	0	0	0
2019/04/21 07:56:00	BASE	5.45	206	9.00	186	-4.2	82	-6.8	0	0	993.9	NA	0.0000		9999	1970	0	0	0
2019/04/21 07:57:00	BASE	6.75	217	9.31	233	-4.2	82	-6.7	0	0	993.9	NA	0.0000		9999	1900	0	0	0
2019/04/21 07:58:00	BASE	7.44	214	9.31	233	-4.2	82	-6.7	0	0	993.9	NA	0.0000		9999	1840	0	0	0
2019/04/21 07:59:00	BASE	6.48	203	9.31	233	-4.1	83	-6.7	0	0	993.9	NA	0.0000		9999	1970	0	0	0
2019/04/21 08:00:00	BASE	6.48	196	9.31	233	-4.1	83	-6.6	0	0	993.9	NA	0.0000		9999	1970	0	0	0
2019/04/21 08:01:00	BASE	8.03	189	10.19	183	-4.1	83	-6.6	0	0	993.9	NA	0.0000		9999	1870	0	0	0
2019/04/21 08:02:00	BASE	9.02	185	10.29	184	-4.1	83	-6.6	0	0	993.9	NA	0.0000		9999	1870	0	0	0
2019/04/21 08:03:00	BASE	8.53	183	10.29	184	-4.1	83	-6.6	0	0	994.0	NA	0.0000		9999	1940	0	0	0
2019/04/21 08:04:00	BASE	7.49	177	10.29	184	-4.2	83	-6.6	0	0	993.9	NA	0.0000		9999	1970	0	0	0
2019/04/21 08:05:00	BASE	7.39	172	10.29	184	-4.2	83	-6.7	0	0	993.9	NA	0.0000		9999	1940	0	0	0
2019/04/21 08:06:00	BASE	7.56	186	10.29	184	-4.2	83	-6.6	0	0	993.9	NA	0.0000		9999	1900	0	0	0
2019/04/21 08:07:00	BASE	7.52	207	10.29	184	-4.2	83	-6.6	0	0	993.9	NA	0.0000		9999	1900	0	0	0
2019/04/21 08:08:00	BASE	8.38	221	10.39	223	-4.1	84	-6.5	0	0	993.9	NA	0.0000		9999	1940	0	0	0
2019/04/21 08:09:00	BASE	9.13	226	11.21	223	-4.1	84	-6.4	0	0	994.0	NA	0.0000		9999	1940	0	0	0
2019/04/21 08:10:00	BASE	9.56	227	11.21	223	-4.1	84	-6.4	0	0	993.9	NA	0.0000		9999	1840	0	0	0
2019/04/21 08:11:00	BASE	8.02	231	11.21	223	-4.1	84	-6.4	0	0	994.0	NA	0.0000		9999	1840	0	0	0
2019/04/21 08:12:00	BASE	4.93	225	11.21	223	-4.1	84	-6.4	0	0	994.0	NA	0.0000		9999	2000	0	0	0
2019/04/21 08:13:00	BASE	4.37	208	11.21	223	-4.1	84	-6.4	0	0	994.0	NA	0.0000		9999	2000	0	0	0
2019/04/21 08:14:00	BASE	5.13	195	11.21	223	-4.1	84	-6.5	0	0	994.0	NA	0.0000		9999	1900	0	0	0
2019/04/21 08:15:00	BASE	5.76	192	11.21	223	-4.2	83	-6.6	0	0	994.0	NA	0.0000		9999	1900	0	0	0
2019/04/21 08:16:00	BASE	6.76	190	11.21	223	-4.2	83	-6.6	0	0	994.0	NA	0.0000		9999	2000	0	0	0
2019/04/21 08:17:00	BASE	7.86	187	11.21	223	-4.2	83	-6.6	0	0	994.0	NA	0.0000		9999	1940	0	0	0
2019/04/21 08:18:00	BASE	8.75	190	11.21	223	-4.2	84	-6.6	0	0	994.0	NA	0.0000		9999	1970	0	0	0
2019/04/21 08:19:00	BASE	8.48	192	11.06	225	-4.2	84	-6.6	0	0	994.0	NA	0.0000		9999	2000	0	0	0
2019/04/21 08:20:00	BASE	7.18	194	10.19	191	-4.3	84	-6.6	0	0	994.1	NA	0.0000		9999	2000	0	0	0
2019/04/21 08:21:00	BASE	6.83	191	10.19	191	-4.3	83	-6.7	0	0	994.0	NA	0.0000		9999	2000	0	0	0
2019/04/21 08:22:00	BASE	6.57	187	10.19	191	-4.3	83	-6.7	0	0	994.0	NA	0.0000		9999	2030	0	0	0
2019/04/21 08:23:00	BASE	6.22	182	10.19	191	-4.3	83	-6.8	0	0	994.0	NA	0.0000		9999	2000	0	0	0
2019/04/21 08:24:00	BASE	6.26	174	10.19	191	-4.3	83	-6.7	0	0	994.0	NA	0.0000		9999	2000	0	0	0
2019/04/21 08:25:00	BASE	6.14	167	10.19	191	-4.3	83	-6.7	0	0	994.0	NA	0.0000		9999	1970	0	0	0
2019/04/21 08:26:00	BASE	6.04	164	10.19	191	-4.3	83	-6.7	0	0	994.0	NA	0.0000		9999	1970	0	0	0
2019/04/21 08:27:00	BASE	5.12	175	9.57	189	-4.3	83	-6.7	0	0	994.0	NA	0.0000		9999	1970	0	0	0
2019/04/21 08:28:00	BASE	6.54	190	14.66	220	-4.3	83	-6.7	0	0	993.9	NA	0.0000		9999	1970	0	0	0
2019/04/21 08:29:00	BASE	9.70	205	14.66	220	-4.3	83	-6.6	0	0	994.0	NA	0.0000		9999	1940	0	0	0
2019/04/21 08:30:00	BASE	10.63	205	14.66	220	-4.2	84	-6.6	0	0	994.0	NA	0.0000		9999	1940	0	0	0
2019/04/21 08:31:00	BASE	9.15	201	14.66	220	-4.2	84	-6.5	0	0	994.0	NA	0.0000		9999	1800	0	0	0
2019/04/21 08:32:00	BASE	6.63	210	14.66	220	-4.2	84	-6.5	0	0	994.0	NA	0.0000		9999	1900	0	0	0
2019/04/21 08:33:00	BASE	5.03	219	14.66	220	-4.2	84	-6.5	0	0	994.1	NA	0.0000		9999	1940	0	0	0
2019/04/21 08:34:00	BASE	4.71	219	14.66	220	-4.2	84	-6.5	0	0	994.1	NA	0.0000		9999	2000	0	0	0
2019/04/21 08:35:00	BASE	5.49	198	14.66	220	-4.2	83	-6.6	0	0	994.0	NA	0.0000		9999	2000	0	0	0
2019/04/21 08:36:00	BASE	8.03	189	14.66	220	-4.2	83	-6.6	0	0	994.0	NA	0.0000		9999	1970	0	0	0
2019/04/21 08:37:00	BASE	9.23	201	14.66	220	-4.1	83	-6.5	0	0	994.0	NA	0.0000		9999	1970	0	0	0
2019/04/21 08:38:00	BASE	8.85	202	12.71	198	-4.1	84	-6.5	0	0	994.0	NA	0.0000		9999	2000	0	0	0
2019/04/21 08:39:00	BASE	8.72	197	12.55	191	-4.1	84	-6.4	0	0	994.1	NA	0.0000		9999	2000	0	0	0
2019/04/21 08:40:00	BASE	8.65	194	11.11	189	-4.1	84	-6.4	0	0	994.1	NA	0.0000		9999	1970	0	0	0
2019/04/21 08:41:00	BASE	9.57	195	11.42	198	-4.0	84	-6.3	0	0	994.1	NA	0.0000		9999	2000	0	0	0
2019/04/21 08:42:00	BASE	10.44	204	12.71	219	-4.0	84	-6.3	0	0	994.0	NA	0.0000		9999	2000	0	0	0
2019/04/21 08:43:00	BASE	10.61	214	12.71	219	-4.0	84	-6.3	0	0	994.1	NA	0.0000		9999	2000	0	0	0
2019/04/21 08:44:00	BASE	9.72	215	12.71	219	-4.0	84	-6.3	0	0	994.1	NA	0.0000		9999	1900	0	0	0
2019/04/21 08:45:00	BASE	8.68	204	12.71	219	-4.0	84	-6.3	0	0	994.1	NA	0.0000		9999	1900	0	0	0
2019/04/21 08:46:00	BASE	7.74	192	12.71	219	-4.1	84	-6.3	0	0	994.1	NA	0.0000		9999	1900	0	0	0
2019/04/21 08:47:00	BASE	6.40	195	12.71	219	-4.1	84	-6.4	0	0	994.1	NA	0.0000		9999	1940	0	0	0
2019/04/21 08:48:00	BASE	5.29	199	12.71	219	-4.1	84	-6.4	0	0	994.1	NA	0.0000		9999	1970	0	0	0
2019/04/21 08:49:00	BASE	4.98	194	12.71	219	-4.2	84	-6.5	0	0	994.1	NA	0.0000		9999	1970	0	0	0
2019/04/21 08:50:00	BASE	5.99	190	12.71	219	-4.2	84	-6.5	0	0	994.1	NA	0.0000		9999	1900	0	0	0
2019/04/21 08:51:00	BASE	6.95	183	12.71	219	-4.2	84	-6.5	0	0	994.1	NA	0.0000		9999	1940	0	0	0
2019/04/21 08:52:00	BASE	7.32	185	11.42	215	-4.2	84	-6.5	0	0	994.1	NA	0.0000		9999	1800	0	0	0
2019/04/21 08:53:00	BASE	8.64	196	10.70	194	-4.2	84	-6.5	0	0	994.1	NA	0.0000		9999	1870	0	0	0
2019/04/21 08:54:00	BASE	9.33	189	10.70	194	-4.2	84	-6.5	0	0	994.1	NA	0.0000		9999	1940	0	0	0
2019/04/21 08:55:00	BASE	8.16	178	10.70	194	-4.2	84	-6.5	0	0	994.1	NA	0.0000		9999	1940	0	0	0
2019/04/21 08:56:00	BASE	7.86	189	10.70	194	-4.2	84	-6.5	0	0	994.1	NA	0.0000		9999	1940	0	0	0
2019/04/21 08:57:00	BASE	8.59	205	10.70	194	-4.2	84	-6.5	0	0	994.1	NA	0.0000		9999	1900	0	0	0
2019/04/21 08:58:00	BASE	9.88	210	12.04	217	-4.2	84	-6.5	0	0	994.1	NA	0.0000		9999	1940	0	0	0
2019/04/21 08:59:00	BASE	10.92	204	13.02	202	-4.2	84	-6.4	0	0	994.1	NA	0.0000		9999	1940	0	0	0
2019/04/21 09:00:00	BASE	11.13	204	13.02	202	-4.2	84	-6.4	0	0	994.1	NA	0.0000		9999	1940	0	0	0
2019/04/21 09:01:00	BASE	10.35	212	13.02	202	-4.2	84	-6.4	0	0	994.1	NA	0.0000		9999	1940	0	0	0
2019/04/21 09:02:00	BASE	9.60	216	13.02	202	-4.2	84	-6.4	0	0	994.2	NA	0.0000		9999	1940	0	0	0
2019/04/21 09:03:00	BASE	9.26	215	13.02	202	-4.2	84	-6.5	0	0	994.2	NA	0.0000		9999	1900	0	0	0
2019/04/21 09:04:00	BASE	9.91	207	13.02	202	-4.2	84	-6.5	0	0	994.2	NA	0.0000		9999	1840	0	0	0
2019/04/21 09:05:00	BASE	9.87	198	13.02	202	-4.2	84	-6.5	0	0	994.4	NA	0.0000		9999	1940	0	0	0
2019/04/21 09:06:00	BASE	8.29	200	13.02	202	-4.2	84	-6.5	0	0	994.4	NA	0.0000		9999	1940	0	0	0
2019/04/21 09:07:00	BASE	7.45	206	13.02	202	-4.3	84	-6.6	0	0	994.4	NA	0.0000		9999	1970	0	0	0
2019/04/21 09:08:00	BASE	6.69	202	13.02	202	-4.3	84	-6.7	0	0	994.4	NA	0.0000		9999	2030	0	0	0
2019/04/21 09:09:00	BASE	6.80	194	12.81	210	-4.4	83	-6.7	0	0	994.4	NA	0.0000		9999	2070	0	0	0
2019/04/21 09:10:00	BASE	7.71	199	12.55	194	-4.4	83	-6.8	0	0	994.4	NA	0.0000		9999	2130	0	0	0
2019/04/21 09:11:00	BASE	9.29	211	12.55	194	-4.4	83	-6.8	0	0	994.4	NA	0.0000		9999	2100	0	0	0
2019/04/21 09:12:00	BASE	10.07	217	12.55	194	-4.3	83	-6.8	0	0	994.4	NA	0.0000		9999	2100	0	0	0
2019/04/21 09:13:00	BASE	9.11	216	12.55	194	-4.3	83	-6.8	0	0	994.5	NA	0.0000		9999	2100	0	0	0
2019/04/21 09:14:00	BASE	7.53	219	11.32	212	-4.3	83	-6.8	0	0	994.5	NA	0.0000		9999	2170	0	0	0
2019/04/21 09:15:00	BASE	5.94	222	11.32	212	-4.3	83	-6.8	0	0	994.5	NA	0.0000		9999	2130	0	0	0
2019/04/21 09:16:00	BASE	5.78	221	11.32	212	-4.3	83	-6.9	0	0	994.5	NA	0.0000		9999	2100	0	0	0
2019/04/21 09:17:00	BASE	6.11	216	11.32	212	-4.4	82	-6.9	0	0	994.6	NA	0.0000		9999	2130	0	0	0
2019/04/21 09:18:00	BASE	5.90	212	11.32	212	-4.4	82	-6.9	0	0	994.6	NA	0.0000		9999	2130	0	0	0
2019/04/21 09:19:00	BASE	6.57	203	11.32	212	-4.4	82	-7.0	0	0	994.5	NA	0.0000		9999	2200	0	0	0
2019/04/21 09:20:00	BASE	9.07	205	11.52	214	-4.3	82	-7.0	0	0	994.5	NA	0.0000		9999	2130	0	0	0
2019/04/21 09:21:00	BASE	10.38	215	11.52	214	-4.4	81	-7.1	0	0	994.5	NA	0.0000		9999	2100	0	0	0
2019/04/21 09:22:00	BASE	8.90	221	11.52	214	-4.4	81	-7.1	0	0	994.6	NA	0.0000		9999	2100	0	0	0
2019/04/21 09:23:00	BASE	8.07	224	11.52	214	-4.4	81	-7.2	0	0	994.6	NA	0.0000		9999	2070	0	0	0
2019/04/21 09:24:00	BASE	7.92	216	11.52	214	-4.4	81	-7.2	0	0	994.6	NA	0.0000		9999	2200	0	0	0
2019/04/21 09:25:00	BASE	6.86	202	11.52	214	-4.4	81	-7.2	0	0	994.6	NA	0.0000		9999	2260	0	0	0
2019/04/21 09:26:00	BASE	6.41	196	11.52	214	-4.4	81	-7.2	0	0	994.7	NA	0.0000		9999	2200	0	0	0
2019/04/21 09:27:00	BASE	6.34	195	11.52	214	-4.4	81	-7.2	0	0	994.6	NA	0.0000		9999	2200	0	0	0
2019/04/21 09:28:00	BASE	6.06	190	11.52	214	-4.4	81	-7.2	0	0	994.6	NA	0.0000		9999	2230	0	0	0
2019/04/21 09:29:01	BASE	7.05	190	11.52	214	-4.5	81	-7.2	0	0	994.6	NA	0.0000		9999	2200	0	0	0
2019/04/21 09:30:01	BASE	8.28	194	10.70	209	-4.5	81	-7.2	0	0	994.6	NA	0.0000		9999	2230	0	0	0
2019/04/21 09:31:01	BASE	8.47	198	10.70	209	-4.4	81	-7.2	0	0	994.6	NA	0.0000		9999	2200	0	0	0
2019/04/21 09:32:01	BASE	8.27	201	10.70	209	-4.4	81	-7.2	0	0	994.6	NA	0.0000		9999	2260	0	0	0
2019/04/21 09:33:01	BASE	7.36	207	10.70	209	-4.4	81	-7.2	0	0	994.6	NA	0.0000		9999	2100	0	0	0
2019/04/21 09:34:11	BASE	6.71	224	10.70	209	-4.4	81	-7.1	0	0	994.7	NA	0.0000		9999	2070	0	0	0
2019/04/21 09:35:01	BASE	6.88	232	10.70	209	-4.4	81	-7.2	0	0	994.7	NA	0.0000		9999	2130	0	0	0
2019/04/21 09:36:01	BASE	6.16	227	10.70	209	-4.4	81	-7.2	0	0	994.7	NA	0.0000		9999	2130	0	0	0
2019/04/21 09:37:01	BASE	5.85	226	10.70	209	-4.4	81	-7.1	0	0	994.7	NA	0.0000		9999	2130	0	0	0
2019/04/21 09:38:01	BASE	7.24	228	10.70	209	-4.3	81	-7.1	0	0	994.6	NA	0.0000		9999	2070	0	0	0
2019/04/21 09:39:01	BASE	8.48	225	12.19	221	-4.3	81	-7.1	0	0	994.6	NA	0.0000		9999	2100	0	0	0
2019/04/21 09:40:01	BASE	8.84	216	12.19	221	-4.3	81	-7.1	0	0	994.6	NA	0.0000		9999	2070	0	0	0
2019/04/21 09:41:01	BASE	9.10	219	12.19	221	-4.3	81	-7.1	0	0	994.6	NA	0.0000		9999	2100	0	0	0
2019/04/21 09:42:01	BASE	8.28	228	12.19	221	-4.3	81	-7.1	0	0	994.7	NA	0.0000		9999	2030	0	0	0
2019/04/21 09:43:01	BASE	6.51	227	12.19	221	-4.3	81	-7.1	0	0	994.7	NA	0.0000		9999	2070	0	0	0
2019/04/21 09:44:01	BASE	5.46	227	12.19	221	-4.3	81	-7.1	0	0	994.7	NA	0.0000		9999	2100	0	0	0
2019/04/21 09:45:01	BASE	6.03	201	12.19	221	-4.3	81	-7.1	0	0	994.6	NA	0.0000		9999	2000	0	0	0
2019/04/21 09:46:01	BASE	7.12	185	12.19	221	-4.3	81	-7.1	0	0	994.7	NA	0.0000		9999	2000	0	0	0
2019/04/21 09:47:01	BASE	6.50	191	12.19	221	-4.3	81	-7.1	0	0	994.7	NA	0.0000		9999	2030	0	0	0
2019/04/21 09:48:01	BASE	4.95	189	12.19	221	-4.3	81	-7.1	0	0	994.7	NA	0.0000		9999	2070	0	0	0
2019/04/21 09:49:01	BASE	3.92	178	11.21	227	-4.3	81	-7.1	0	0	994.7	NA	0.0000		9999	2070	0	0	0
2019/04/21 09:50:01	BASE	4.20	164	11.21	227	-4.4	81	-7.1	0	0	994.7	NA	0.0000		9999	2030	0	0	0
2019/04/21 09:51:01	BASE	5.62	167	9.05	185	-4.4	81	-7.1	0	0	994.6	NA	0.0000		9999	2030	0	0	0
2019/04/21 09:52:01	BASE	6.72	178	9.05	185	-4.4	82	-7.1	0	0	994.6	NA	0.0000		9999	2000	0	0	0
2019/04/21 09:53:01	BASE	6.54	181	9.05	185	-4.4	82	-7.0	0	0	994.7	NA	0.0000		9999	2000	0	0	0
2019/04/21 09:54:01	BASE	6.11	177	9.05	185	-4.4	82	-7.0	0	0	994.7	NA	0.0000		9999	2000	0	0	0
2019/04/21 09:55:01	BASE	6.56	178	8.39	189	-4.3	82	-7.0	0	0	994.7	NA	0.0000		9999	2030	0	0	0
2019/04/21 09:56:01	BASE	6.94	187	8.28	178	-4.3	82	-6.9	0	0	994.7	NA	0.0000		9999	1900	0	0	0
2019/04/21 09:57:01	BASE	6.27	194	8.28	178	-4.3	82	-6.9	0	0	994.7	NA	0.0000		9999	2000	0	0	0
2019/04/21 09:58:01	BASE	6.29	187	8.28	178	-4.3	82	-6.9	0	0	994.7	NA	0.0000		9999	2030	0	0	0
2019/04/21 09:59:01	BASE	7.15	179	8.54	187	-4.3	82	-6.9	0	0	994.7	NA	0.0000		9999	2030	0	0	0
2019/04/21 10:00:01	BASE	8.04	185	9.26	187	-4.3	82	-6.9	0	0	994.7	NA	0.0000		9999	2030	0	0	0
2019/04/21 10:01:01	BASE	8.28	197	9.57	208	-4.3	83	-6.8	0	0	994.7	NA	0.0000		9999	2000	0	0	0
2019/04/21 10:02:01	BASE	8.05	205	9.57	208	-4.3	83	-6.7	0	0	994.7	NA	0.0000		9999	1970	0	0	0
2019/04/21 10:03:01	BASE	9.01	213	11.37	218	-4.2	83	-6.6	0	0	994.8	NA	0.0000		9999	1900	0	0	0
2019/04/21 10:04:01	BASE	8.61	223	11.37	218	-4.2	83	-6.6	0	0	994.9	NA	0.0000		9999	1840	0	0	0
2019/04/21 10:05:01	BASE	6.37	227	11.37	218	-4.2	84	-6.6	0	0	994.9	NA	0.0000		9999	1870	0	0	0
2019/04/21 10:06:01	BASE	4.91	228	11.37	218	-4.2	84	-6.6	0	0	994.8	NA	0.0000		9999	1900	0	0	0
2019/04/21 10:07:01	BASE	3.73	223	11.37	218	-4.2	84	-6.6	0	0	994.8	NA	0.0000		9999	1900	0	0	0
2019/04/21 10:08:01	BASE	2.86	223	11.37	218	-4.3	83	-6.7	0	0	994.8	NA	0.0000		9999	1900	0	0	0
2019/04/21 10:09:00	BASE	3.24	225	11.37	218	-4.3	83	-6.7	0	0	994.9	NA	0.0000		9999	1970	0	0	0
2019/04/21 10:10:00	BASE	4.32	220	11.37	218	-4.3	83	-6.7	0	0	994.9	NA	0.0000		9999	2000	0	0	0
2019/04/21 10:11:01	BASE	4.42	213	11.37	218	-4.3	83	-6.7	0	0	994.9	NA	0.0000		9999	1970	0	0	0
2019/04/21 10:12:00	BASE	4.78	205	11.37	218	-4.2	83	-6.7	0	0	994.9	NA	0.0000		9999	1940	0	0	0
2019/04/21 10:13:00	BASE	5.63	197	9.16	226	-4.2	83	-6.7	0	0	995.0	NA	0.0000		9999	1970	0	0	0
2019/04/21 10:14:01	BASE	5.63	183	6.94	197	-4.2	83	-6.7	0	0	995.0	NA	0.0000		9999	1970	0	0	0
2019/04/21 10:15:01	BASE	4.71	176	6.94	197	-4.2	83	-6.7	0	0	995.1	NA	0.0000		9999	2000	0	0	0
2019/04/21 10:16:00	BASE	3.65	167	6.94	197	-4.2	83	-6.7	0	0	995.1	NA	0.0000		9999	2000	0	0	0
2019/04/21 10:17:00	BASE	4.17	191	6.94	197	-4.2	83	-6.7	0	0	995.1	NA	0.0000		9999	1940	0	0	0
2019/04/21 10:18:01	BASE	4.96	224	6.94	197	-4.2	83	-6.7	0	0	995.1	NA	0.0000		9999	1970	0	0	0
2019/04/21 10:19:00	BASE	5.91	210	7.92	199	-4.2	83	-6.6	0	0	995.1	NA	0.0000		9999	2000	0	0	0
2019/04/21 10:20:00	BASE	6.72	196	7.92	199	-4.2	83	-6.6	0	0	995.1	NA	0.0000		9999	2000	0	0	0
2019/04/21 10:21:00	BASE	7.58	194	9.05	201	-4.2	84	-6.5	0	0	995.1	NA	0.0000		9999	2030	0	0	0
2019/04/21 10:22:00	BASE	8.11	192	9.05	201	-4.2	84	-6.5	0	0	995.1	NA	0.0000		9999	2000	0	0	0
2019/04/21 10:23:00	BASE	7.89	190	9.05	201	-4.2	84	-6.5	0	0	995.1	NA	0.0000		9999	1970	0	0	0
2019/04/21 10:24:00	BASE	7.91	199	9.31	202	-4.2	84	-6.5	0	0	995.1	NA	0.0000		9999	2000	0	0	0
2019/04/21 10:25:00	BASE	8.28	206	9.88	199	-4.2	84	-6.5	0	0	995.1	NA	0.0000		9999	2000	0	0	0
2019/04/21 10:26:00	BASE	8.82	201	9.88	199	-4.2	84	-6.5	0	0	995.1	NA	0.0000		9999	2000	0	0	0
2019/04/21 10:27:01	BASE	8.59	204	9.88	199	-4.2	84	-6.5	0	0	995.2	NA	0.0000		9999	1970	0	0	0
2019/04/21 10:28:00	BASE	7.05	214	9.88	199	-4.3	84	-6.6	0	0	995.2	NA	0.0000		9999	1970	0	0	0
2019/04/21 10:29:01	BASE	5.04	214	9.88	199	-4.3	84	-6.6	0	0	995.2	NA	0.0000		9999	1900	0	0	0
2019/04/21 10:30:01	BASE	4.82	201	9.88	199	-4.3	83	-6.7	0	0	995.2	NA	0.0000		9999	1970	0	0	0
2019/04/21 10:31:00	BASE	5.63	191	9.88	199	-4.3	83	-6.7	0	0	995.2	NA	0.0000		9999	2070	0	0	0
2019/04/21 10:32:00	BASE	6.15	192	9.88	199	-4.3	83	-6.7	0	0	995.2	NA	0.0000		9999	2070	0	0	0
2019/04/21 10:33:00	BASE	6.57	197	9.88	199	-4.3	83	-6.7	0	0	995.2	NA	0.0000		9999	2070	0	0	0
2019/04/21 10:34:00	BASE	7.08	208	9.88	199	-4.3	83	-6.7	0	0	995.2	NA	0.0000		9999	2070	0	0	0
2019/04/21 10:35:00	BASE	7.49	225	9.77	194	-4.2	83	-6.7	0	0	995.2	NA	0.0000		9999	1970	0	0	0
2019/04/21 10:36:01	BASE	7.89	227	9.52	224	-4.2	83	-6.7	0	0	995.2	NA	0.0000		9999	1940	0	0	0
2019/04/21 10:37:00	BASE	7.90	216	9.52	224	-4.3	83	-6.7	0	0	995.2	NA	0.0000		9999	1970	0	0	0
2019/04/21 10:38:00	BASE	6.55	207	9.52	224	-4.3	83	-6.7	0	0	995.2	NA	0.0000		9999	2070	0	0	0
2019/04/21 10:39:00	BASE	4.84	197	9.52	224	-4.3	83	-6.8	0	0	995.2	NA	0.0000		9999	2000	0	0	0
2019/04/21 10:40:00	BASE	4.15	190	9.52	224	-4.4	83	-6.9	0	0	995.2	NA	0.0000		9999	1970	0	0	0
2019/04/21 10:41:00	BASE	3.59	193	9.52	224	-4.4	82	-6.9	0	0	995.2	NA	0.0000		9999	2000	0	0	0
2019/04/21 10:42:00	BASE	3.03	201	9.52	224	-4.4	82	-7.0	0	0	995.2	NA	0.0000		9999	2000	0	0	0
2019/04/21 10:43:00	BASE	3.33	220	9.52	224	-4.4	82	-7.0	0	0	995.3	NA	0.0000		9999	2070	0	0	0
2019/04/21 10:44:00	BASE	3.09	235	9.52	224	-4.4	82	-7.0	0	0	995.3	NA	0.0000		9999	2070	0	0	0
2019/04/21 10:45:00	BASE	2.57	237	9.41	216	-4.4	82	-7.0	0	0	995.3	NA	0.0000		9999	2030	0	0	0
2019/04/21 10:46:00	BASE	2.57	238	8.85	202	-4.4	82	-7.0	0	0	995.3	NA	0.0000		9999	2000	0	0	0
2019/04/21 10:47:00	BASE	1.98	238	6.94	199	-4.4	82	-7.0	0	0	995.3	NA	0.0000		9999	2030	0	0	0
2019/04/21 10:48:00	BASE	1.34	239	4.89	190	-4.4	82	-7.0	0	0	995.3	NA	0.0000		9999	1940	0	0	0
2019/04/21 10:49:00	BASE	2.23	228	4.84	185	-4.4	82	-7.1	0	0	995.3	NA	0.0000		9999	2000	0	0	0
2019/04/21 10:50:00	BASE	3.15	214	4.48	223	-4.4	81	-7.1	0	0	995.3	NA	0.0000		9999	1970	0	0	0
2019/04/21 10:51:00	BASE	3.14	204	4.48	223	-4.4	81	-7.1	0	0	995.3	NA	0.0000		9999	1940	0	0	0
2019/04/21 10:52:00	BASE	3.99	206	6.69	214	-4.3	81	-7.0	0	0	995.3	NA	0.0000		9999	1900	0	0	0
2019/04/21 10:53:00	BASE	5.45	212	7.00	220	-4.3	82	-7.0	0	0	995.3	NA	0.0000		9999	1900	0	0	0
2019/04/21 10:54:00	BASE	6.11	206	7.15	188	-4.3	82	-6.9	0	0	995.3	NA	0.0000		9999	2000	0	0	0
2019/04/21 10:55:00	BASE	7.28	194	9.41	188	-4.2	82	-6.9	0	0	995.3	NA	0.0000		9999	2030	0	0	0
2019/04/21 10:56:00	BASE	8.49	193	9.41	200	-4.2	82	-6.8	0	0	995.3	NA	0.0000		9999	2030	0	0	0
2019/04/21 10:57:00	BASE	8.61	198	9.41	200	-4.2	82	-6.8	0	0	995.3	NA	0.0000		9999	1970	0	0	0
2019/04/21 10:58:00	BASE	9.08	198	11.01	201	-4.2	83	-6.8	0	0	995.3	NA	0.0000		9999	1970	0	0	0
2019/04/21 10:59:00	BASE	8.90	200	11.01	201	-4.2	83	-6.7	0	0	995.3	NA	0.0000		9999	1940	0	0	0
2019/04/21 11:00:00	BASE	6.81	210	11.01	201	-4.3	83	-6.7	0	0	995.3	NA	0.0000		9999	1870	0	0	0
2019/04/21 11:01:00	BASE	5.31	213	11.01	201	-4.3	83	-6.8	0	0	995.3	NA	0.0000		9999	1970	0	0	0
2019/04/21 11:02:00	BASE	4.53	199	11.01	201	-4.3	83	-6.8	0	0	995.3	NA	0.0000		9999	2030	0	0	0
2019/04/21 11:03:00	BASE	3.87	188	11.01	201	-4.3	82	-6.9	0	0	995.3	NA	0.0000		9999	2000	0	0	0
2019/04/21 11:04:00	BASE	4.66	182	11.01	201	-4.3	82	-6.9	0	0	995.3	NA	0.0000		9999	2000	0	0	0
2019/04/21 11:05:00	BASE	4.69	168	11.01	201	-4.3	82	-6.9	0	0	995.3	NA	0.0000		9999	2030	0	0	0
2019/04/21 11:06:00	BASE	3.73	165	11.01	201	-4.3	82	-6.9	0	0	995.3	NA	0.0000		9999	2030	0	0	0
2019/04/21 11:07:00	BASE	3.20	186	11.01	201	-4.3	82	-6.9	0	0	995.3	NA	0.0000		9999	2030	0	0	0
2019/04/21 11:08:00	BASE	2.99	194	9.21	197	-4.3	82	-6.9	0	0	995.3	NA	0.0000		9999	2000	0	0	0
2019/04/21 11:09:00	BASE	3.37	192	7.20	176	-4.3	82	-6.9	0	0	995.3	NA	0.0000		9999	2030	0	0	0
2019/04/21 11:10:00	BASE	3.17	190	7.20	176	-4.3	82	-6.9	0	0	995.3	NA	0.0000		9999	2030	0	0	0
2019/04/21 11:11:00	BASE	2.45	184	7.20	176	-4.3	82	-6.9	0	0	995.3	NA	0.0000		9999	2030	0	0	0
2019/04/21 11:12:00	BASE	3.34	183	7.20	176	-4.3	82	-6.8	0	0	995.3	NA	0.0000		9999	2000	0	0	0
2019/04/21 11:13:00	BASE	4.76	188	7.20	176	-4.3	83	-6.8	0	0	995.3	NA	0.0000		9999	2000	0	0	0
2019/04/21 11:14:00	BASE	5.96	200	8.23	215	-4.3	83	-6.7	0	0	995.3	NA	0.0000		9999	1970	0	0	0
2019/04/21 11:15:00	BASE	6.76	214	8.23	215	-4.3	83	-6.7	0	0	995.3	NA	0.0000		9999	1940	0	0	0
2019/04/21 11:16:00	BASE	6.09	218	8.23	215	-4.3	83	-6.7	0	0	995.3	NA	0.0000		9999	1940	0	0	0
2019/04/21 11:17:00	BASE	4.60	208	8.23	215	-4.3	83	-6.7	0	0	995.3	NA	0.0000		9999	1870	0	0	0
2019/04/21 11:18:00	BASE	3.58	195	8.23	215	-4.3	83	-6.7	0	0	995.3	NA	0.0000		9999	1940	0	0	0
2019/04/21 11:19:00	BASE	3.39	199	8.23	215	-4.3	83	-6.7	0	0	995.3	NA	0.0000		9999	1900	0	0	0
2019/04/21 11:20:00	BASE	3.33	215	8.23	215	-4.3	83	-6.7	0	0	995.3	NA	0.0000		9999	1940	0	0	0
2019/04/21 11:21:00	BASE	2.56	210	8.23	215	-4.3	83	-6.7	0	0	995.3	NA	0.0000		9999	1970	0	0	0
2019/04/21 11:22:00	BASE	2.29	192	8.23	215	-4.3	83	-6.8	0	0	995.3	NA	0.0000		9999	1940	0	0	0
2019/04/21 11:23:00	BASE	3.18	194	8.23	215	-4.3	83	-6.8	0	0	995.3	NA	0.0000		9999	1900	0	0	0
2019/04/21 11:24:00	BASE	3.84	209	7.82	224	-4.3	83	-6.7	0	0	995.3	NA	0.0000		9999	1870	0	0	0
2019/04/21 11:25:00	BASE	4.26	219	6.58	212	-4.3	83	-6.7	0	0	995.3	NA	0.0000		9999	1800	0	0	0
2019/04/21 11:26:00	BASE	4.42	222	4.99	221	-4.2	83	-6.7	0	0	995.3	NA	0.0000		9999	1840	0	0	0
2019/04/21 11:27:00	BASE	4.39	221	5.04	223	-4.2	83	-6.6	0	0	995.3	NA	0.0000		9999	1870	0	0	0
2019/04/21 11:28:00	BASE	3.81	227	5.04	223	-4.2	83	-6.6	0	0	995.3	NA	0.0000		9999	1870	0	0	0
2019/04/21 11:29:00	BASE	3.04	235	5.04	223	-4.2	84	-6.5	0	0	995.3	NA	0.0000		9999	1840	0	0	0
2019/04/21 11:30:00	BASE	3.85	228	6.38	211	-4.2	84	-6.5	0	0	995.3	NA	0.0000		9999	1870	0	0	0
2019/04/21 11:31:00	BASE	3.94	232	6.38	211	-4.2	84	-6.5	1	0	995.3	NA	0.0000		9999	1800	0	0	0
2019/04/21 11:32:00	BASE	4.19	228	6.48	197	-4.2	84	-6.4	1	0	995.3	NA	0.0000		9999	1840	0	0	0
2019/04/21 11:33:00	BASE	6.04	214	8.08	215	-4.2	85	-6.4	1	0	995.3	NA	0.0000		9999	1800	0	0	0
2019/04/21 11:34:00	BASE	6.15	228	8.08	215	-4.1	85	-6.3	1	0	995.3	NA	0.0000		9999	1840	0	0	0
2019/04/21 11:35:00	BASE	5.38	239	8.08	215	-4.1	85	-6.3	1	0	995.3	NA	0.0000		9999	1840	0	0	0
2019/04/21 11:36:00	BASE	5.75	243	8.08	215	-4.1	85	-6.3	1	0	995.3	NA	0.0000		9999	1840	0	0	0
2019/04/21 11:37:00	BASE	5.44	250	8.08	215	-4.1	85	-6.3	1	0	995.3	NA	0.0000		9999	1840	0	0	0
2019/04/21 11:38:00	BASE	4.80	251	8.08	215	-4.2	85	-6.3	1	0	995.3	NA	0.0000		9999	1800	0	0	0
2019/04/21 11:39:00	BASE	5.13	249	8.08	215	-4.2	85	-6.3	1	0	995.3	NA	0.0000		9999	1840	0	0	0
2019/04/21 11:40:00	BASE	5.58	245	8.08	215	-4.2	86	-6.3	1	0	995.3	NA	0.0000		9999	1840	0	0	0
2019/04/21 11:41:00	BASE	6.70	240	8.64	248	-4.2	86	-6.2	1	0	995.3	NA	0.0000		9999	1800	0	0	0
2019/04/21 11:42:00	BASE	6.99	239	8.64	248	-4.2	86	-6.2	1	0	995.3	NA	0.0000		9999	1800	0	0	0
2019/04/21 11:43:00	BASE	7.28	234	8.85	237	-4.2	86	-6.2	1	0	995.3	NA	0.0000		9999	1800	0	0	0
2019/04/21 11:44:00	BASE	8.13	231	9.31	237	-4.2	86	-6.2	1	0	995.4	NA	0.0000		9999	1800	0	0	0
2019/04/21 11:45:00	BASE	7.65	236	9.31	237	-4.2	86	-6.2	1	0	995.4	NA	0.0000		9999	1840	0	0	0
2019/04/21 11:46:00	BASE	6.99	227	9.31	237	-4.2	86	-6.2	2	0	995.4	NA	0.0000		9999	1840	0	0	0
2019/04/21 11:47:00	BASE	7.68	221	9.88	223	-4.2	86	-6.2	2	0	995.4	NA	0.0000		9999	1870	0	0	0
2019/04/21 11:48:00	BASE	8.80	218	9.93	213	-4.2	86	-6.2	2	0	995.4	NA	0.0000		9999	1840	0	0	0
2019/04/21 11:49:00	BASE	8.58	216	9.93	213	-4.2	86	-6.2	2	0	995.4	NA	0.0000		9999	1840	0	0	0
2019/04/21 11:50:00	BASE	7.86	225	9.93	213	-4.2	86	-6.2	2	0	995.4	NA	0.0000		9999	1870	0	0	0
2019/04/21 11:51:00	BASE	7.52	224	9.93	213	-4.2	86	-6.2	2	0	995.4	NA	0.0000		9999	1770	0	0	0
2019/04/21 11:52:00	BASE	6.97	220	9.93	213	-4.3	86	-6.3	2	0	995.4	NA	0.0000		9999	1840	0	0	0
2019/04/21 11:53:00	BASE	6.58	231	9.93	213	-4.3	86	-6.3	2	0	995.4	NA	0.0000		9999	1800	0	0	0
2019/04/21 11:54:00	BASE	6.60	241	9.93	213	-4.3	86	-6.3	2	0	995.4	NA	0.0000		9999	1900	0	0	0
2019/04/21 11:55:00	BASE	6.52	239	9.93	213	-4.3	86	-6.3	2	0	995.4	NA	0.0000		9999	1870	0	0	0
2019/04/21 11:56:00	BASE	6.00	228	9.93	213	-4.3	86	-6.3	2	0	995.4	NA	0.0000		9999	1840	0	0	0
2019/04/21 11:57:00	BASE	4.93	211	9.93	213	-4.3	86	-6.3	2	0	995.4	NA	0.0000		9999	1800	0	0	0
2019/04/21 11:58:00	BASE	4.23	203	8.75	233	-4.3	86	-6.3	3	0	995.4	NA	0.0000		9999	1800	0	0	0
2019/04/21 11:59:00	BASE	3.86	201	8.64	217	-4.3	86	-6.3	3	0	995.4	NA	0.0000		9999	1800	0	0	0
2019/04/21 12:00:00	BASE	3.40	200	8.64	217	-4.3	86	-6.3	3	0	995.4	NA	0.0000		9999	1800	0	0	0
2019/04/21 12:01:00	BASE	3.01	204	7.87	228	-4.3	86	-6.3	3	0	995.4	NA	0.0000		9999	1800	0	0	0
2019/04/21 12:02:00	BASE	3.79	211	7.61	237	-4.3	86	-6.3	3	0	995.5	NA	0.0000		9999	1800	0	0	0
2019/04/21 12:03:00	BASE	4.89	226	7.00	243	-4.3	86	-6.3	3	0	995.5	NA	0.0000		9999	1870	0	0	0
2019/04/21 12:04:00	BASE	5.18	232	7.00	243	-4.3	86	-6.3	3	0	995.5	NA	0.0000		9999	1870	0	0	0
2019/04/21 12:05:00	BASE	5.70	234	6.79	226	-4.3	86	-6.3	3	0	995.5	NA	0.0000		9999	1870	0	0	0
2019/04/21 12:06:00	BASE	5.55	244	6.74	249	-4.3	86	-6.3	3	0	995.5	NA	0.0000		9999	1870	0	0	0
2019/04/21 12:07:00	BASE	5.17	250	6.74	249	-4.3	86	-6.3	3	0	995.6	NA	0.0000		9999	1840	0	0	0
2019/04/21 12:08:00	BASE	5.12	255	6.74	249	-4.4	86	-6.4	3	0	995.7	NA	0.0000		9999	1870	0	0	0
2019/04/21 12:09:00	BASE	4.60	257	6.74	249	-4.4	86	-6.4	4	0	995.6	NA	0.0000		9999	1870	0	0	0
2019/04/21 12:10:00	BASE	4.79	247	6.74	249	-4.4	86	-6.4	4	0	995.6	NA	0.0000		9999	1870	0	0	0
2019/04/21 12:11:00	BASE	4.88	246	6.74	249	-4.4	86	-6.4	4	0	995.6	NA	0.0000		9999	1900	0	0	0
2019/04/21 12:12:00	BASE	5.02	249	6.74	249	-4.4	86	-6.4	4	0	995.7	NA	0.0000		9999	1870	0	0	0
2019/04/21 12:13:00	BASE	5.40	244	6.74	249	-4.4	86	-6.4	4	0	995.7	NA	0.0000		9999	1940	0	0	0
2019/04/21 12:14:00	BASE	5.46	236	7.25	233	-4.4	86	-6.4	4	0	995.6	NA	0.0000		9999	1900	0	0	0
2019/04/21 12:15:00	BASE	6.36	226	8.54	208	-4.4	86	-6.3	4	0	995.7	NA	0.0000		9999	1940	0	0	0
2019/04/21 12:16:00	BASE	7.36	213	8.75	208	-4.3	86	-6.3	4	0	995.7	NA	0.0000		9000	1940	0	0	0
2019/04/21 12:17:00	BASE	8.00	208	9.52	203	-4.3	86	-6.3	4	0	995.8	NA	0.0000		9999	1970	0	0	0
2019/04/21 12:18:00	BASE	9.35	206	12.55	205	-4.3	86	-6.2	5	0	995.7	NA	0.0000		9999	1900	0	0	0
2019/04/21 12:19:00	BASE	10.00	204	12.55	205	-4.3	86	-6.3	5	0	995.7	NA	0.0000		9999	1870	0	0	0
2019/04/21 12:20:00	BASE	8.37	200	12.55	205	-4.3	86	-6.4	5	0	995.8	NA	0.0000		9999	1840	0	0	0
2019/04/21 12:21:00	BASE	5.71	185	12.55	205	-4.4	85	-6.5	5	0	995.8	NA	0.0000		9999	1770	0	0	0
2019/04/21 12:22:00	BASE	3.62	178	12.55	205	-4.4	85	-6.5	6	0	995.9	NA	0.0000		9999	1800	0	0	0
2019/04/21 12:23:00	BASE	3.10	221	12.55	205	-4.5	85	-6.6	6	0	995.9	NA	0.0000		9999	1800	0	0	0
2019/04/21 12:24:00	BASE	3.73	261	12.55	205	-4.5	85	-6.6	7	0	995.9	NA	0.0000		9999	1840	0	0	0
2019/04/21 12:25:00	BASE	3.04	264	12.55	205	-4.5	85	-6.6	8	0	995.9	NA	0.0000		9999	1800	0	0	0
2019/04/21 12:26:00	BASE	2.19	248	12.55	205	-4.5	85	-6.6	8	0	995.9	NA	0.0000		9999	1840	0	0	0
2019/04/21 12:27:00	BASE	1.99	228	12.55	205	-4.5	85	-6.6	9	0	995.9	NA	0.0000		9999	1900	0	0	0
2019/04/21 12:28:00	BASE	0.73	224	11.88	201	-4.5	85	-6.6	9	0	995.9	NA	0.0000		9999	1900	0	0	0
2019/04/21 12:29:00	BASE	0.00	246	8.18	199	-4.5	85	-6.7	9	0	995.9	NA	0.0000		9999	1870	0	0	0
2019/04/21 12:30:00	BASE	0.05	282	6.02	267	-4.5	84	-6.7	10	0	996.0	NA	0.0000		9999	1940	0	0	0
2019/04/21 12:31:00	BASE	0.75	287	6.02	267	-4.4	84	-6.7	10	0	996.0	NA	0.0000		9999	1900	0	0	0
2019/04/21 12:32:00	BASE	1.70	274	6.02	267	-4.4	84	-6.7	10	0	996.0	NA	0.0000		9999	1900	0	0	0
2019/04/21 12:33:00	BASE	3.02	264	6.02	267	-4.4	84	-6.7	11	0	995.9	NA	0.0000		9999	1840	0	0	0
2019/04/21 12:34:00	BASE	4.12	257	5.25	245	-4.4	84	-6.7	11	0	995.9	NA	0.0000		9999	1840	0	0	0
2019/04/21 12:35:00	BASE	3.99	256	5.25	245	-4.4	84	-6.7	11	0	995.9	NA	0.0000		9999	1900	0	0	0
2019/04/21 12:36:00	BASE	3.25	264	5.25	245	-4.4	84	-6.7	11	0	995.9	NA	0.0000		9999	1900	0	0	0
2019/04/21 12:37:00	BASE	2.44	273	5.25	245	-4.4	84	-6.6	11	0	996.0	NA	0.0000		9999	1900	0	0	0
2019/04/21 12:38:00	BASE	1.98	274	5.25	245	-4.4	85	-6.6	11	0	996.0	NA	0.0000		9999	1900	0	0	0
2019/04/21 12:39:00	BASE	1.99	257	5.25	245	-4.4	85	-6.6	12	0	996.0	NA	0.0000		9999	1900	0	0	0
2019/04/21 12:40:00	BASE	3.37	244	5.61	245	-4.4	85	-6.5	12	0	996.0	NA	0.0000		9999	1900	0	0	0
2019/04/21 12:41:00	BASE	4.84	240	6.28	237	-4.4	85	-6.5	12	0	996.0	NA	0.0000		9999	1940	0	0	0
2019/04/21 12:42:00	BASE	6.04	230	7.87	227	-4.4	85	-6.5	13	0	996.0	NA	0.0000		9999	1900	0	0	0
2019/04/21 12:43:00	BASE	6.80	226	7.87	227	-4.4	85	-6.5	13	0	996.0	NA	0.0000		9999	1900	0	0	0
2019/04/21 12:44:00	BASE	6.69	224	7.87	227	-4.4	85	-6.5	14	0	996.0	NA	0.0000		9999	1970	0	0	0
2019/04/21 12:45:00	BASE	6.31	222	7.87	227	-4.4	85	-6.6	14	0	996.0	NA	0.0000		9999	2000	0	0	0
2019/04/21 12:46:00	BASE	5.93	213	7.87	227	-4.4	85	-6.5	15	0	996.0	NA	0.0000		9999	1970	0	0	0
2019/04/21 12:47:00	BASE	5.76	203	7.87	227	-4.4	85	-6.5	16	0	996.0	NA	0.0000		9999	1970	0	0	0
2019/04/21 12:48:00	BASE	5.42	208	7.87	227	-4.4	85	-6.5	17	0	996.0	NA	0.0000		9999	1940	0	0	0
2019/04/21 12:49:00	BASE	5.14	215	7.87	227	-4.4	85	-6.5	17	0	996.1	NA	0.0000		9999	1900	0	0	0
2019/04/21 12:50:00	BASE	5.41	217	7.87	227	-4.4	85	-6.5	18	0	996.1	NA	0.0000		9999	1770	0	0	0
2019/04/21 12:51:00	BASE	5.73	227	7.87	227	-4.4	85	-6.5	18	0	996.1	NA	0.0000		9999	1840	0	0	0
2019/04/21 12:52:00	BASE	6.73	234	8.85	234	-4.4	85	-6.5	19	0	996.0	NA	0.0000		9999	1870	0	0	0
2019/04/21 12:53:00	BASE	7.23	234	8.85	234	-4.4	85	-6.6	19	0	996.1	NA	0.0000		9999	1870	0	0	0
2019/04/21 12:54:00	BASE	6.33	235	8.85	234	-4.4	85	-6.6	19	0	996.1	NA	0.0000		9999	1940	0	0	0
2019/04/21 12:55:00	BASE	5.67	241	8.85	234	-4.5	84	-6.7	19	0	996.1	NA	0.0000		9999	1970	0	0	0
2019/04/21 12:56:00	BASE	5.22	248	8.85	234	-4.5	84	-6.8	20	0	996.0	NA	0.0000		9999	1940	0	0	0
2019/04/21 12:57:00	BASE	4.58	248	8.85	234	-4.6	84	-6.9	21	0	996.0	NA	0.0000		9999	1940	0	0	0
2019/04/21 12:58:00	BASE	3.59	244	8.85	234	-4.6	84	-6.9	22	0	996.0	NA	0.0000		9999	1940	0	0	0
2019/04/21 12:59:00	BASE	2.69	244	8.85	234	-4.6	84	-7.0	22	0	996.0	NA	0.0000		9999	2000	0	0	0
2019/04/21 13:00:00	BASE	2.03	262	8.85	234	-4.6	83	-7.0	22	0	996.0	NA	0.0000		9999	2000	0	0	0
2019/04/21 13:01:00	BASE	1.86	270	8.85	234	-4.6	83	-7.0	22	0	996.1	NA	0.0000		9999	1800	0	0	0
2019/04/21 13:02:00	BASE	1.67	258	7.25	233	-4.6	83	-7.1	23	0	996.1	NA	0.0000		9999	1870	0	0	0
2019/04/21 13:03:00	BASE	1.17	266	6.28	237	-4.6	83	-7.1	23	0	996.1	NA	0.0000		9999	1900	0	0	0
2019/04/21 13:04:00	BASE	0.87	272	6.12	251	-4.6	82	-7.1	23	0	996.1	NA	0.0000		9999	1900	0	0	0
2019/04/21 13:05:00	BASE	1.45	259	6.12	251	-4.6	82	-7.2	23	0	996.1	NA	0.0000		9999	1970	0	0	0
2019/04/21 13:06:00	BASE	2.28	247	4.42	245	-4.6	82	-7.2	23	0	996.1	NA	0.0000		9999	1900	0	0	0
2019/04/21 13:07:00	BASE	3.05	247	4.32	252	-4.6	82	-7.1	24	0	996.1	NA	0.0000		9999	1870	0	0	0
2019/04/21 13:08:00	BASE	3.76	252	4.32	252	-4.6	82	-7.1	25	0	996.0	NA	0.0000		9999	1840	0	0	0
2019/04/21 13:09:00	BASE	3.79	259	4.94	267	-4.5	83	-7.0	26	0	996.0	NA	0.0000		9999	1840	0	0	0
2019/04/21 13:10:00	BASE	2.91	267	4.94	267	-4.5	83	-7.0	26	0	996.0	NA	0.0000		9999	1870	0	0	0
2019/04/21 13:11:00	BASE	2.01	283	4.94	267	-4.5	83	-7.0	27	0	996.0	NA	0.0000		9999	1870	0	0	0
2019/04/21 13:12:00	BASE	1.79	284	4.94	267	-4.5	83	-7.0	27	0	996.0	NA	0.0000		9999	1900	0	0	0
2019/04/21 13:13:00	BASE	2.16	267	4.94	267	-4.5	83	-7.0	28	0	996.0	NA	0.0000		9999	1900	0	0	0
2019/04/21 13:14:00	BASE	2.18	261	4.94	267	-4.5	83	-6.9	28	0	996.1	NA	0.0000		9999	1870	0	0	0
2019/04/21 13:15:00	BASE	1.55	259	4.94	267	-4.5	83	-6.9	28	0	996.1	NA	0.0000		9999	1900	0	0	0
2019/04/21 13:16:00	BASE	1.75	248	4.94	267	-4.5	84	-6.9	29	0	996.1	NA	0.0000		9999	1940	0	0	0
2019/04/21 13:17:00	BASE	2.34	238	4.94	267	-4.5	84	-6.9	29	0	996.1	NA	0.0000		9999	1940	0	0	0
2019/04/21 13:18:00	BASE	2.06	232	4.94	267	-4.6	84	-6.8	29	0	996.1	NA	0.0000		9999	1940	0	0	0
2019/04/21 13:19:00	BASE	1.62	237	3.65	257	-4.5	84	-6.8	30	0	996.1	NA	0.0000		9999	1940	0	0	0
2019/04/21 13:20:00	BASE	2.16	247	3.65	257	-4.5	84	-6.8	31	0	996.1	NA	0.0000		9999	1940	0	0	0
2019/04/21 13:21:00	BASE	3.07	240	4.37	241	-4.5	84	-6.8	32	0	996.1	NA	0.0000		9999	1940	0	0	0
2019/04/21 13:22:00	BASE	3.99	234	4.99	228	-4.5	84	-6.8	32	0	996.1	NA	0.0000		9999	1970	0	0	0
2019/04/21 13:23:00	BASE	4.53	233	5.92	231	-4.5	84	-6.8	32	0	996.1	NA	0.0000		9999	1900	0	0	0
2019/04/21 13:24:00	BASE	4.76	231	6.48	223	-4.4	84	-6.7	33	0	996.1	NA	0.0000		9999	1870	0	0	0
2019/04/21 13:25:00	BASE	5.25	229	6.48	223	-4.4	84	-6.7	34	0	996.1	NA	0.0000		9999	1900	0	0	0
2019/04/21 13:26:00	BASE	5.53	229	6.48	228	-4.4	84	-6.6	34	0	996.1	NA	0.0000		9999	1900	0	0	0
2019/04/21 13:27:00	BASE	5.63	230	6.48	228	-4.4	85	-6.6	34	0	996.1	NA	0.0000		9999	1900	0	0	0
2019/04/21 13:28:00	BASE	5.09	229	6.48	228	-4.4	85	-6.5	34	0	996.2	NA	0.0000		9999	1900	0	0	0
2019/04/21 13:29:00	BASE	4.61	227	6.48	228	-4.4	85	-6.5	34	0	996.3	NA	0.0000		9999	1900	0	0	0
2019/04/21 13:30:00	BASE	5.48	224	6.94	225	-4.4	85	-6.5	35	0	996.2	NA	0.0000		9999	1840	0	0	0
2019/04/21 13:31:00	BASE	5.52	223	6.94	225	-4.4	85	-6.5	36	0	996.2	NA	0.0000		9999	1900	0	0	0
2019/04/21 13:32:00	BASE	4.48	230	6.94	225	-4.4	85	-6.6	37	0	996.3	NA	0.0000		9999	1900	0	0	0
2019/04/21 13:33:00	BASE	4.24	239	6.94	225	-4.4	85	-6.6	39	0	996.3	NA	0.0000		9999	1870	0	0	0
2019/04/21 13:34:00	BASE	3.60	242	6.94	225	-4.4	85	-6.6	40	0	996.3	NA	0.0000		9999	1870	0	0	0
2019/04/21 13:35:00	BASE	2.35	239	6.94	225	-4.5	85	-6.7	40	0	996.3	NA	0.0000		9999	1870	0	0	0
2019/04/21 13:36:00	BASE	2.10	232	6.94	225	-4.5	84	-6.7	40	0	996.3	NA	0.0000		9999	1900	0	0	0
2019/04/21 13:37:00	BASE	2.74	210	6.94	225	-4.5	84	-6.8	41	0	996.3	NA	0.0000		9999	1840	0	0	0
2019/04/21 13:38:00	BASE	2.41	188	6.94	225	-4.5	84	-6.8	40	0	996.3	NA	0.0000		9999	1770	0	0	0
2019/04/21 13:39:00	BASE	1.86	174	6.94	225	-4.5	84	-6.8	41	0	996.3	NA	0.0000		9999	1840	0	0	0
2019/04/21 13:40:00	BASE	2.39	167	6.17	229	-4.5	84	-6.8	41	0	996.3	NA	0.0000		9999	1870	0	0	0
2019/04/21 13:41:00	BASE	2.37	174	4.78	243	-4.5	84	-6.8	42	0	996.3	NA	0.0000		9999	1840	0	0	0
2019/04/21 13:42:00	BASE	2.18	175	4.68	240	-4.5	84	-6.8	43	0	996.4	NA	0.0000		9999	1800	22640	0	0
2019/04/21 13:43:00	BASE	3.23	172	4.78	177	-4.5	84	-6.8	44	0	996.3	NA	0.0000		9999	1800	0	0	0
2019/04/21 13:44:00	BASE	4.58	176	6.28	176	-4.5	84	-6.8	45	0	996.3	NA	0.0000		9999	1870	0	0	0
2019/04/21 13:45:00	BASE	5.37	178	6.28	177	-4.5	84	-6.8	46	0	996.3	NA	0.0000		9999	1800	0	0	0
2019/04/21 13:46:00	BASE	5.45	175	6.28	177	-4.5	84	-6.8	47	0	996.3	NA	0.0000		9999	1840	0	0	0
2019/04/21 13:47:00	BASE	5.49	170	6.28	166	-4.4	84	-6.7	49	0	996.3	NA	0.0000		9999	1770	0	0	0
2019/04/21 13:48:00	BASE	5.33	169	6.28	166	-4.5	84	-6.8	49	0	996.3	NA	0.0000		9999	1770	0	0	0
2019/04/21 13:49:00	BASE	4.88	171	6.28	166	-4.5	84	-6.8	50	0	996.3	NA	0.0000		9999	1870	0	0	0
2019/04/21 13:50:00	BASE	4.60	175	6.28	166	-4.5	84	-6.8	49	0	996.4	NA	0.0000		9999	1870	0	0	0
2019/04/21 13:51:00	BASE	3.79	182	6.28	166	-4.5	84	-6.8	50	0	996.4	NA	0.0000		9999	1940	0	0	0
2019/04/21 13:52:00	BASE	3.02	179	6.28	166	-4.5	84	-6.8	50	0	996.4	NA	0.0000		9999	1940	0	0	0
2019/04/21 13:53:00	BASE	3.24	162	6.28	166	-4.5	84	-6.8	51	0	996.4	NA	0.0000		9999	1870	0	0	0
2019/04/21 13:54:00	BASE	3.64	152	6.28	166	-4.5	84	-6.8	52	0	996.3	NA	0.0000		9999	1840	0	0	0
2019/04/21 13:55:00	BASE	3.61	158	6.28	166	-4.5	84	-6.8	51	0	996.3	NA	0.0000		9999	1900	0	0	0
2019/04/21 13:56:00	BASE	3.28	164	6.28	166	-4.5	84	-6.8	50	0	996.4	NA	0.0000		9999	1900	0	0	0
2019/04/21 13:57:00	BASE	3.33	169	5.20	180	-4.5	84	-6.8	49	0	996.4	NA	0.0000		9999	1870	0	0	0
2019/04/21 13:58:00	BASE	4.12	186	5.25	198	-4.5	84	-6.8	49	0	996.4	NA	0.0000		9999	1870	0	0	0
2019/04/21 13:59:00	BASE	4.30	195	5.25	198	-4.5	84	-6.8	49	0	996.4	NA	0.0000		9999	1900	0	0	0
2019/04/21 14:00:00	BASE	3.91	191	5.35	180	-4.4	84	-6.7	50	0	996.4	NA	0.0000		9999	1900	0	0	0
2019/04/21 14:01:00	BASE	4.23	186	5.35	180	-4.4	84	-6.7	50	0	996.4	NA	0.0000		9999	1900	0	0	0
2019/04/21 14:02:00	BASE	5.32	187	7.05	185	-4.4	84	-6.7	51	0	996.5	NA	0.0000		9999	1840	22670	0	0
2019/04/21 14:03:00	BASE	5.64	191	7.05	185	-4.4	84	-6.7	52	0	996.4	NA	0.0000		9999	1900	0	0	0
2019/04/21 14:04:00	BASE	5.42	192	7.05	185	-4.4	84	-6.6	54	0	996.4	NA	0.0000		9999	1870	0	0	0
2019/04/21 14:05:00	BASE	6.20	195	8.13	198	-4.4	85	-6.6	57	0	996.5	NA	0.0000		9999	1870	0	0	0
2019/04/21 14:06:00	BASE	6.49	204	8.13	198	-4.4	85	-6.6	60	0	996.4	NA	0.0000		9999	1800	0	0	0
2019/04/21 14:07:00	BASE	6.01	207	8.13	198	-4.5	85	-6.7	63	0	996.5	NA	0.0000		9999	1940	0	0	0
2019/04/21 14:08:00	BASE	5.43	204	8.13	198	-4.5	84	-6.7	65	0	996.5	NA	0.0000		9999	1970	0	0	0
2019/04/21 14:09:00	BASE	4.30	198	8.13	198	-4.5	84	-6.7	66	0	996.5	NA	0.0000		9999	1940	0	0	0
2019/04/21 14:10:00	BASE	3.43	190	8.13	198	-4.5	84	-6.8	66	0	996.5	NA	0.0000		9999	1940	0	0	0
2019/04/21 14:11:00	BASE	3.95	177	8.13	198	-4.5	84	-6.8	64	0	996.5	NA	0.0000		9999	1970	0	0	0
2019/04/21 14:12:00	BASE	4.14	163	8.13	198	-4.5	84	-6.8	64	0	996.5	NA	0.0000		9999	1970	0	0	0
2019/04/21 14:13:00	BASE	3.95	169	8.13	198	-4.5	84	-6.8	64	0	996.5	NA	0.0000		9999	1940	0	0	0
2019/04/21 14:14:00	BASE	5.42	188	8.13	198	-4.4	84	-6.7	63	0	996.5	NA	0.0000		9999	1940	0	0	0
2019/04/21 14:15:00	BASE	6.23	197	7.61	216	-4.5	84	-6.7	61	0	996.6	NA	0.0000		9999	1940	0	0	0
2019/04/21 14:16:00	BASE	6.24	194	7.61	216	-4.5	84	-6.8	61	0	996.5	NA	0.0000		9999	1940	0	0	0
2019/04/21 14:17:00	BASE	5.83	188	7.61	216	-4.5	84	-6.8	62	0	996.5	NA	0.0000		9999	1900	0	0	0
2019/04/21 14:18:00	BASE	4.59	185	7.61	216	-4.5	84	-6.8	63	0	996.5	NA	0.0000		9999	1870	0	0	0
2019/04/21 14:19:00	BASE	4.05	186	7.61	216	-4.5	84	-6.9	64	0	996.6	NA	0.0000		9999	1870	0	0	0
2019/04/21 14:20:00	BASE	3.71	190	7.61	216	-4.5	84	-6.9	64	0	996.6	NA	0.0000		9999	1800	0	0	0
2019/04/21 14:21:00	BASE	2.69	204	7.61	216	-4.5	84	-6.8	65	0	996.6	NA	0.0000		9999	1840	0	0	0
2019/04/21 14:22:00	BASE	1.49	226	7.61	216	-4.5	84	-6.8	66	0	996.6	NA	0.0000		9999	1840	0	0	0
2019/04/21 14:23:00	BASE	1.18	232	7.61	216	-4.5	84	-6.8	67	0	996.6	NA	0.0000		9999	1840	0	0	0
2019/04/21 14:24:00	BASE	2.17	219	7.61	216	-4.4	83	-6.8	69	0	996.6	NA	0.0000		9999	1800	0	0	0
2019/04/21 14:25:00	BASE	2.09	211	6.89	188	-4.4	83	-6.8	69	0	996.6	NA	0.0000		9999	1840	0	0	0
2019/04/21 14:26:00	BASE	0.74	219	6.89	188	-4.4	83	-6.9	70	0	996.6	NA	0.0000		9999	1870	0	0	0
2019/04/21 14:27:00	BASE	0.23	226	4.99	177	-4.4	83	-6.9	70	0	996.7	NA	0.0000		9999	1870	0	0	0
2019/04/21 14:28:00	BASE	0.51	238	4.99	177	-4.4	83	-6.9	70	0	996.7	NA	0.0000		9999	1870	0	0	0
2019/04/21 14:29:00	BASE	0.38	264	4.37	188	-4.4	83	-6.9	69	0	996.7	NA	0.0000		9999	1870	0	0	0
2019/04/21 14:30:00	BASE	0.00	282	3.76	205	-4.4	83	-6.9	67	0	996.7	NA	0.0000		9999	1870	0	0	0
2019/04/21 14:31:00	BASE	0.00	290	3.76	205	-4.4	83	-6.9	66	0	996.7	NA	0.0000		9999	1870	0	0	0
2019/04/21 14:32:00	BASE	0.64	285	3.76	205	-4.4	83	-6.9	66	0	996.7	NA	0.0000		9999	1870	0	0	0
2019/04/21 14:33:00	BASE	1.88	264	3.76	205	-4.4	83	-6.9	65	0	996.7	NA	0.0000		9999	1870	0	0	0
2019/04/21 14:34:00	BASE	2.30	238	3.24	238	-4.4	83	-6.9	65	0	996.7	NA	0.0000		9999	1870	0	0	0
2019/04/21 14:35:00	BASE	1.35	220	3.24	238	-4.4	83	-6.9	65	0	996.7	NA	0.0000		9999	1870	0	0	0
2019/04/21 14:36:00	BASE	0.38	203	3.24	238	-4.4	83	-6.9	65	0	996.7	NA	0.0000		9999	1870	0	0	0
2019/04/21 14:37:00	BASE	0.40	210	3.24	238	-4.4	83	-6.9	65	0	996.8	NA	0.0000		9999	1900	0	0	0
2019/04/21 14:38:00	BASE	1.10	246	3.24	238	-4.4	83	-6.9	66	0	996.8	NA	0.0000		9999	1900	0	0	0
2019/04/21 14:39:00	BASE	1.07	265	3.24	238	-4.4	83	-6.9	66	0	996.8	NA	0.0000		9999	1900	0	0	0
2019/04/21 14:40:00	BASE	0.69	246	3.24	238	-4.4	83	-6.9	66	0	996.8	NA	0.0000		9999	1870	0	0	0
2019/04/21 14:41:00	BASE	1.26	220	3.24	238	-4.4	82	-6.9	67	0	996.8	NA	0.0000		9999	1900	0	0	0
2019/04/21 14:42:00	BASE	1.29	203	3.24	238	-4.4	82	-7.0	68	0	996.8	NA	0.0000		9999	1870	0	0	0
2019/04/21 14:43:00	BASE	0.60	184	3.09	230	-4.4	82	-6.9	69	0	996.8	NA	0.0000		9999	1870	0	0	0
2019/04/21 14:44:00	BASE	0.49	167	1.90	222	-4.4	83	-6.9	70	0	996.8	NA	0.0000		9999	1870	0	0	0
2019/04/21 14:45:00	BASE	0.57	160	1.90	222	-4.3	83	-6.9	71	0	996.8	NA	0.0000		9999	1870	0	0	0
2019/04/21 14:46:00	BASE	0.27	161	1.90	222	-4.3	83	-6.8	73	0	996.8	NA	0.0000		9999	1840	0	0	0
2019/04/21 14:47:00	BASE	0.74	154	1.90	222	-4.3	83	-6.8	73	0	996.8	NA	0.0000		9999	1840	0	0	0
2019/04/21 14:48:00	BASE	1.51	147	2.47	157	-4.3	83	-6.8	73	0	996.8	NA	0.0000		9999	1900	0	0	0
2019/04/21 14:49:00	BASE	1.85	152	2.47	157	-4.3	83	-6.8	73	0	996.8	NA	0.0000		9999	1870	0	0	0
2019/04/21 14:50:00	BASE	1.63	159	2.47	157	-4.3	82	-6.8	74	0	996.8	NA	0.0000		9999	1870	0	0	0
2019/04/21 14:51:00	BASE	0.62	161	2.47	157	-4.3	82	-6.9	74	0	996.8	NA	0.0000		9999	1840	0	0	0
2019/04/21 14:52:00	BASE	0.05	137	2.47	157	-4.3	82	-6.9	74	0	996.8	NA	0.0000		9999	1800	0	0	0
2019/04/21 14:53:00	BASE	0.09	78	2.47	157	-4.3	82	-6.9	73	0	996.8	NA	0.0000		9999	1800	0	0	0
2019/04/21 14:54:00	BASE	0.27	43	2.47	157	-4.3	82	-6.9	71	0	996.8	NA	0.0000		9999	1870	0	0	0
2019/04/21 14:55:00	BASE	0.31	34	2.47	157	-4.3	82	-6.9	71	0	996.9	NA	0.0000		9999	1900	0	0	0
2019/04/21 14:56:00	BASE	0.43	18	2.47	157	-4.3	82	-6.9	71	0	996.9	NA	0.0000		9999	1870	0	0	0
2019/04/21 14:57:00	BASE	0.59	11	2.47	157	-4.3	82	-6.9	71	0	996.9	NA	0.0000		9999	1900	0	0	0
2019/04/21 14:58:01	BASE	0.25	9	2.31	154	-4.3	82	-6.9	71	0	996.8	NA	0.0000		9999	1900	0	0	0
2019/04/21 14:59:01	BASE	0.00	12	1.95	161	-4.3	82	-6.9	71	0	996.8	NA	0.0000		9999	1900	0	0	0
2019/04/21 15:00:01	BASE	0.00	16	1.59	360	-4.3	82	-6.9	72	0	996.9	NA	0.0000		9999	1870	0	0	0
2019/04/21 15:01:01	BASE	0.00	17	1.59	360	-4.3	82	-6.9	72	0	997.0	NA	0.0000		9999	1900	0	0	0
2019/04/21 15:02:01	BASE	0.00	18	1.59	360	-4.3	82	-6.9	72	0	997.0	NA	0.0000		9999	1870	0	0	0
2019/04/21 15:03:01	BASE	0.00	40	1.59	360	-4.3	82	-6.9	73	0	997.0	NA	0.0000		9999	1940	0	0	0
2019/04/21 15:04:01	BASE	0.00	83	1.59	360	-4.2	82	-6.8	75	0	997.0	NA	0.0000		9999	1800	0	0	0
2019/04/21 15:05:01	BASE	0.47	100	1.59	360	-4.2	82	-6.8	78	0	997.0	NA	0.0000		9999	1870	0	0	0
2019/04/21 15:06:01	BASE	1.20	92	1.90	97	-4.2	82	-6.8	80	0	996.9	NA	0.0000		9999	1900	0	0	0
2019/04/21 15:07:01	BASE	1.44	92	1.90	97	-4.3	82	-6.8	82	0	996.8	NA	0.0000		9999	1840	0	0	0
2019/04/21 15:08:01	BASE	1.50	92	1.90	97	-4.3	82	-6.8	84	0	996.8	NA	0.0000		9999	1840	0	0	0
2019/04/21 15:09:01	BASE	1.31	90	1.90	97	-4.3	83	-6.8	85	0	996.8	NA	0.0000		9999	1840	0	0	0
2019/04/21 15:10:01	BASE	1.18	81	1.90	97	-4.3	83	-6.8	86	0	996.8	NA	0.0000		9999	1770	0	0	0
2019/04/21 15:11:01	BASE	1.35	64	1.90	97	-4.3	83	-6.8	86	0	996.8	NA	0.0000		9999	1840	0	0	0
2019/04/21 15:12:01	BASE	1.45	60	1.90	97	-4.3	83	-6.7	88	0	996.8	NA	0.0000		9999	1870	0	0	0
2019/04/21 15:13:01	BASE	1.07	69	1.90	97	-4.3	83	-6.7	90	0	996.8	NA	0.0000		9999	1870	0	0	0
2019/04/21 15:14:01	BASE	0.31	76	1.90	97	-4.3	83	-6.7	90	0	996.8	NA	0.0000		9999	1870	0	0	0
2019/04/21 15:15:01	BASE	0.00	68	1.90	97	-4.3	83	-6.7	89	0	996.8	NA	0.0000		9999	1840	0	0	0
2019/04/21 15:16:01	BASE	0.05	42	1.70	63	-4.3	83	-6.7	88	0	996.8	NA	0.0000		9999	1870	0	0	0
2019/04/21 15:17:01	BASE	0.20	35	1.70	63	-4.3	83	-6.7	87	0	996.9	NA	0.0000		9999	1970	0	0	0
2019/04/21 15:18:01	BASE	1.03	52	3.50	70	-4.3	84	-6.6	86	0	997.0	NA	0.0000		9999	1940	0	0	0
2019/04/21 15:19:01	BASE	1.71	57	3.60	68	-4.2	84	-6.6	85	0	997.0	NA	0.0000		9999	1870	0	0	0
2019/04/21 15:20:01	BASE	0.83	51	3.60	68	-4.2	84	-6.5	84	0	997.0	NA	0.0000		9999	1940	0	0	0
2019/04/21 15:21:01	BASE	0.00	62	3.60	68	-4.2	84	-6.5	82	0	997.0	NA	0.0000		9999	1900	0	0	0
2019/04/21 15:22:01	BASE	0.09	166	3.60	68	-4.2	84	-6.6	81	0	997.0	NA	0.0000		9999	1870	0	0	0
2019/04/21 15:23:01	BASE	0.77	189	3.60	68	-4.2	84	-6.6	80	0	997.0	NA	0.0000		9999	1870	0	0	0
2019/04/21 15:24:01	BASE	1.53	188	3.60	68	-4.2	84	-6.6	79	0	997.0	NA	0.0000		9999	1870	0	0	0
2019/04/21 15:25:01	BASE	1.54	187	3.60	68	-4.2	84	-6.6	79	0	997.1	NA	0.0000		9999	1840	0	0	0
2019/04/21 15:26:01	BASE	1.23	194	3.60	68	-4.2	84	-6.6	79	0	997.0	NA	0.0000		9999	1840	0	0	0
2019/04/21 15:27:01	BASE	0.69	181	3.60	68	-4.2	84	-6.5	80	0	997.0	NA	0.0000		9999	1870	0	0	0
2019/04/21 15:28:01	BASE	0.14	157	3.60	68	-4.2	84	-6.5	81	0	997.0	NA	0.0000		9999	1900	0	0	0
2019/04/21 15:29:01	BASE	0.14	151	1.85	176	-4.2	84	-6.5	81	0	997.0	NA	0.0000		9999	1900	0	0	0
2019/04/21 15:30:01	BASE	0.93	146	1.95	130	-4.2	84	-6.5	82	0	997.0	NA	0.0000		9999	1900	0	0	0
2019/04/21 15:31:01	BASE	1.59	145	2.42	164	-4.2	84	-6.4	82	0	997.0	NA	0.0000		9999	1940	0	0	0
2019/04/21 15:32:01	BASE	2.28	161	3.65	174	-4.2	85	-6.4	82	0	997.0	NA	0.0000		9999	1940	0	0	0
2019/04/21 15:33:01	BASE	3.05	164	3.65	174	-4.2	85	-6.3	83	0	997.0	NA	0.0000		9999	1900	0	0	0
2019/04/21 15:34:01	BASE	2.94	142	3.65	174	-4.2	85	-6.3	85	0	997.0	NA	0.0000		9999	1900	0	0	0
2019/04/21 15:37:25	BASE	M	M	M	M	-4.2	85	-6.3	M	M	M	NA	0.0000		M	M	M	M	M
2019/04/21 15:38:00	BASE	M	M	M	M	-4.2	85	-6.3	86	0	996.9	NA	0.0000		9999	1840	0	0	0
2019/04/21 15:39:00	BASE	1.85	97	M	M	-4.2	85	-6.3	86	0	997.0	NA	0.0000		9999	1900	0	0	0
2019/04/21 15:40:00	BASE	1.57	103	M	M	-4.2	85	-6.3	88	0	997.0	NA	0.0000		9999	1870	0	0	0
2019/04/21 15:41:00	BASE	1.20	117	M	M	-4.2	85	-6.3	90	0	997.0	NA	0.0000		9999	1840	0	0	0
2019/04/21 15:42:01	BASE	1.28	127	M	M	-4.2	86	-6.2	91	0	997.0	NA	0.0000		9999	1900	0	0	0
2019/04/21 15:43:00	BASE	1.13	135	M	M	-4.2	86	-6.2	91	0	997.0	NA	0.0000		9999	1870	0	0	0
2019/04/21 15:44:00	BASE	0.88	131	M	M	-4.2	86	-6.2	91	0	996.9	NA	0.0000		9999	1870	0	0	0
2019/04/21 15:45:01	BASE	1.29	121	2.57	93	-4.2	86	-6.2	90	0	996.9	NA	0.0000		9999	1900	0	0	0
2019/04/21 15:46:00	BASE	1.63	119	2.57	93	-4.2	86	-6.2	88	0	997.0	NA	0.0000		9999	1900	0	0	0
2019/04/21 15:47:00	BASE	1.35	111	2.57	93	-4.2	86	-6.2	86	0	997.0	NA	0.0000		9999	1900	0	0	0
2019/04/21 15:48:00	BASE	0.73	94	2.26	116	-4.2	86	-6.2	85	0	997.0	NA	0.0000		9999	1870	0	0	0
2019/04/21 15:49:00	BASE	0.54	89	2.26	116	-4.2	86	-6.2	84	0	997.0	NA	0.0000		9999	1900	0	0	0
2019/04/21 15:50:00	BASE	0.86	296	2.26	116	-4.2	86	-6.2	84	0	997.0	NA	0.0000		9999	1870	0	0	0
2019/04/21 15:51:00	BASE	1.43	301	2.31	302	-4.2	86	-6.2	84	0	997.0	NA	0.0000		9999	1870	0	0	0
2019/04/21 15:52:01	BASE	1.64	302	2.31	302	-4.1	86	-6.1	84	0	997.0	NA	0.0000		9999	1870	0	0	0
2019/04/21 15:53:01	BASE	1.41	284	2.31	302	-4.1	86	-6.1	85	0	997.1	NA	0.0000		9999	1940	0	0	0
2019/04/21 15:54:01	BASE	1.08	275	2.57	286	-4.1	86	-6.1	86	0	997.1	NA	0.0000		9999	1900	0	0	0
2019/04/21 15:55:00	BASE	1.89	275	5.14	259	-4.1	86	-6.2	87	0	997.0	NA	0.0000		9999	1940	0	0	0
2019/04/21 15:56:00	BASE	4.09	255	6.69	244	-4.1	85	-6.2	87	0	997.0	NA	0.0000		9999	1970	0	0	0
2019/04/21 15:57:00	BASE	5.69	250	6.69	244	-4.1	85	-6.2	88	0	997.0	NA	0.0000		9999	1970	0	0	0
2019/04/21 15:58:00	BASE	5.75	251	6.69	244	-4.1	85	-6.3	88	0	997.0	NA	0.0000		9999	1970	0	0	0
2019/04/21 15:59:00	BASE	5.35	247	6.69	244	-4.1	85	-6.3	89	0	997.0	NA	0.0000		9999	1940	20800	0	0
2019/04/21 16:00:00	BASE	5.28	247	6.69	244	-4.2	85	-6.3	90	0	997.0	NA	0.0000		9999	1940	0	0	0
2019/04/21 16:01:00	BASE	5.92	249	6.89	255	-4.2	85	-6.3	92	0	997.0	NA	0.0000		9999	1970	0	0	0
2019/04/21 16:02:00	BASE	5.75	251	6.89	255	-4.2	85	-6.4	94	0	997.0	NA	0.0000		9999	1970	0	0	0
2019/04/21 16:03:00	BASE	4.48	250	6.89	255	-4.2	85	-6.4	95	0	997.1	NA	0.0000		9999	1970	0	0	0
2019/04/21 16:04:00	BASE	4.52	248	6.89	255	-4.2	84	-6.4	96	0	997.1	NA	0.0000		9999	1970	0	0	0
2019/04/21 16:05:00	BASE	4.51	242	6.89	255	-4.2	84	-6.5	96	0	997.1	NA	0.0000		9999	1900	0	0	0
2019/04/21 16:06:00	BASE	4.30	237	6.89	255	-4.2	84	-6.5	94	0	997.1	NA	0.0000		9999	1870	0	0	0
2019/04/21 16:07:00	BASE	4.35	237	6.89	255	-4.2	84	-6.5	92	0	997.1	NA	0.0000		9999	1900	0	0	0
2019/04/21 16:08:00	BASE	4.11	233	6.89	255	-4.1	84	-6.4	92	0	997.2	NA	0.0000		9999	1900	0	0	0
2019/04/21 16:09:00	BASE	4.89	231	6.89	255	-4.1	84	-6.4	93	0	997.2	NA	0.0000		9999	1940	0	0	0
2019/04/21 16:10:00	BASE	5.58	233	6.89	255	-4.2	84	-6.5	93	0	997.2	NA	0.0000		9999	1940	0	0	0
2019/04/21 16:11:00	BASE	5.53	237	6.28	237	-4.2	84	-6.5	95	0	997.2	NA	0.0000		9999	1970	0	0	0
2019/04/21 16:12:00	BASE	5.35	236	6.28	237	-4.2	84	-6.6	96	0	997.2	NA	0.0000		9999	2000	0	0	0
2019/04/21 16:13:00	BASE	4.44	234	6.28	237	-4.2	83	-6.6	98	0	997.2	NA	0.0000		9999	2070	0	0	0
2019/04/21 16:14:00	BASE	3.02	235	6.28	237	-4.2	83	-6.6	101	0	997.2	NA	0.0000		9999	1970	0	0	0
2019/04/21 16:15:00	BASE	2.13	237	6.28	237	-4.2	83	-6.7	104	0	997.2	NA	0.0000		9999	1940	0	0	0
2019/04/21 16:16:00	BASE	2.04	223	6.28	237	-4.2	83	-6.7	107	0	997.2	NA	0.0000		9999	2030	0	0	0
2019/04/21 16:17:00	BASE	2.87	202	6.28	237	-4.2	82	-6.7	109	0	997.2	NA	0.0000		9999	2000	0	0	0
2019/04/21 16:18:00	BASE	3.25	193	6.28	237	-4.2	82	-6.8	110	0	997.2	NA	0.0000		9999	2000	0	0	0
2019/04/21 16:19:00	BASE	3.52	184	6.22	245	-4.2	82	-6.8	110	0	997.2	NA	0.0000		9999	2030	0	0	0
2019/04/21 16:20:00	BASE	4.01	171	6.22	245	-4.1	82	-6.8	108	0	997.2	NA	0.0000		9999	2030	0	0	0
2019/04/21 16:21:00	BASE	3.42	166	5.97	238	-4.1	82	-6.8	108	0	997.2	NA	0.0000		9999	2000	0	0	0
2019/04/21 16:22:00	BASE	2.92	169	4.68	174	-4.1	82	-6.8	107	0	997.2	NA	0.0000		9999	2000	0	0	0
2019/04/21 16:23:00	BASE	3.99	180	6.02	185	-4.2	82	-6.8	106	0	997.2	NA	0.0000		9999	2070	0	0	0
2019/04/21 16:24:00	BASE	4.57	192	6.02	185	-4.2	82	-6.8	104	0	997.1	NA	0.0000		9999	2000	0	0	0
2019/04/21 16:25:00	BASE	3.26	202	6.02	185	-4.2	82	-6.8	101	0	997.2	NA	0.0000		9999	2070	0	0	0
2019/04/21 16:26:00	BASE	1.94	201	6.02	185	-4.2	82	-6.8	99	0	997.1	NA	0.0000		9999	2070	0	0	0
2019/04/21 16:27:00	BASE	0.99	204	6.02	185	-4.2	82	-6.9	99	0	997.2	NA	0.0000		9999	2030	0	0	0
2019/04/21 16:28:00	BASE	1.00	200	6.02	185	-4.2	81	-6.9	101	0	997.2	NA	0.0000		9999	2030	0	0	0
2019/04/21 16:29:00	BASE	2.03	193	6.02	185	-4.1	81	-6.9	102	0	997.2	NA	0.0000		9999	2070	0	0	0
2019/04/21 16:30:00	BASE	2.39	195	6.02	185	-4.1	81	-6.9	105	0	997.2	NA	0.0000		9999	2200	0	0	0
2019/04/21 16:31:00	BASE	2.17	200	6.02	185	-4.1	81	-6.9	111	0	997.2	NA	0.0000		9999	2170	0	0	0
2019/04/21 16:32:00	BASE	2.20	205	6.02	185	-4.2	81	-6.9	117	0	997.2	NA	0.0000		9999	2100	0	0	0
2019/04/21 16:33:00	BASE	2.64	211	5.14	192	-4.2	81	-7.0	124	0	997.2	NA	0.0000		9999	1940	0	0	0
2019/04/21 16:34:00	BASE	3.18	218	3.91	234	-4.2	81	-7.0	133	0	997.1	NA	0.0000		9999	1940	0	0	0
2019/04/21 16:35:00	BASE	3.44	234	4.27	251	-4.2	81	-6.9	139	0	997.1	NA	0.0000		9999	1970	0	0	0
2019/04/21 16:36:00	BASE	3.44	256	4.27	251	-4.2	81	-6.9	143	0	997.1	NA	0.0000		9999	1870	0	0	0
2019/04/21 16:37:00	BASE	2.83	270	4.27	251	-4.2	81	-6.9	146	0	997.2	NA	0.0000		9999	1940	0	0	0
2019/04/21 16:38:00	BASE	2.46	269	4.27	251	-4.2	82	-6.8	150	0	997.2	NA	0.0000		9999	1940	0	0	0
2019/04/21 16:39:00	BASE	1.93	252	4.27	251	-4.2	82	-6.8	155	0	997.2	NA	0.0000		9999	1970	0	0	0
2019/04/21 16:40:00	BASE	0.80	262	4.27	251	-4.2	82	-6.8	155	0	997.2	NA	0.0000		9999	1900	0	0	0
2019/04/21 16:41:00	BASE	0.20	282	4.27	251	-4.1	82	-6.8	153	0	997.2	NA	0.0000		9999	1900	0	0	0
2019/04/21 16:42:00	BASE	0.00	300	4.27	251	-4.1	81	-6.8	144	0	997.2	NA	0.0000		9999	1940	0	0	0
2019/04/21 16:43:00	BASE	0.00	290	4.27	251	-4.1	81	-6.8	134	0	997.2	NA	0.0000		9999	1940	0	0	0
2019/04/21 16:44:00	BASE	0.04	256	4.27	251	-4.1	81	-6.8	129	0	997.3	NA	0.0000		9999	1940	23130	0	0
2019/04/21 16:45:00	BASE	0.22	241	4.12	260	-4.0	81	-6.8	127	0	997.3	NA	0.0000		9999	1970	0	0	0
2019/04/21 16:46:00	BASE	0.18	251	3.70	251	-4.0	81	-6.8	127	0	997.3	NA	0.0000		9999	1970	0	0	0
2019/04/21 16:47:00	BASE	0.00	269	3.70	251	-4.0	81	-6.8	124	0	997.3	NA	0.0000		9999	1940	0	0	0
2019/04/21 16:48:00	BASE	0.00	288	2.78	234	-4.0	81	-6.8	124	0	997.3	NA	0.0000		9999	1970	0	0	0
2019/04/21 16:49:00	BASE	0.00	330	1.39	277	-4.0	81	-6.8	123	0	997.3	NA	0.0000		9999	1970	0	0	0
2019/04/21 16:50:00	BASE	0.00	344	1.18	231	-4.0	81	-6.9	122	0	997.3	NA	0.0000		9999	1900	0	0	0
2019/04/21 16:51:00	BASE	0.00	308	1.18	231	-4.0	80	-6.9	120	0	997.3	NA	0.0000		9999	1900	0	0	0
2019/04/21 16:52:00	BASE	0.25	151	1.29	138	-4.0	80	-6.9	117	0	997.3	NA	0.0000		9999	1940	0	0	0
2019/04/21 16:53:00	BASE	0.86	134	1.39	140	-4.0	80	-6.9	115	0	997.4	NA	0.0000		9999	1940	0	0	0
2019/04/21 16:54:00	BASE	1.15	140	1.39	140	-4.0	80	-6.9	114	0	997.4	NA	0.0000		9999	1900	21820	0	0
2019/04/21 16:55:00	BASE	0.72	138	1.39	140	-4.0	81	-6.8	111	0	997.5	NA	0.0000		9999	1940	0	0	0
2019/04/21 16:56:00	BASE	0.99	122	2.68	110	-4.0	81	-6.8	107	0	997.5	NA	0.0000		9999	1940	0	0	0
2019/04/21 16:57:00	BASE	2.03	110	2.68	105	-4.0	81	-6.8	105	0	997.5	NA	0.0000		9999	1900	0	0	0
2019/04/21 16:58:00	BASE	2.60	107	3.65	135	-4.0	81	-6.8	104	0	997.5	NA	0.0000		9999	1870	0	0	0
2019/04/21 16:59:00	BASE	3.14	129	4.12	152	-4.0	81	-6.8	102	0	997.5	NA	0.0000		9999	1970	0	0	0
2019/04/21 17:00:00	BASE	3.01	144	4.12	152	-4.0	81	-6.7	100	0	997.5	NA	0.0000		9999	1970	0	0	0
2019/04/21 17:01:00	BASE	2.32	141	4.12	152	-4.0	82	-6.7	97	0	997.4	NA	0.0000		9999	1970	0	0	0
2019/04/21 17:02:00	BASE	2.28	146	4.12	152	-4.0	82	-6.6	95	0	997.4	NA	0.0000		9999	1940	0	0	0
2019/04/21 17:03:00	BASE	2.52	157	4.12	152	-4.0	82	-6.6	93	0	997.5	NA	0.0000		9999	1940	0	0	0
2019/04/21 17:04:00	BASE	3.44	164	4.68	165	-4.0	83	-6.5	92	0	997.5	NA	0.0000		9999	1940	0	0	0
2019/04/21 17:05:00	BASE	4.14	171	4.68	173	-4.0	83	-6.5	91	0	997.5	NA	0.0000		9999	1970	0	0	0
2019/04/21 17:06:00	BASE	3.69	167	4.68	173	-4.1	83	-6.5	90	0	997.5	NA	0.0000		9999	1970	0	0	0
2019/04/21 17:07:00	BASE	3.82	156	4.84	152	-4.1	83	-6.5	88	0	997.5	NA	0.0000		9999	1940	0	0	0
2019/04/21 17:08:00	BASE	4.29	155	5.30	162	-4.1	83	-6.5	88	0	997.5	NA	0.0000		9999	2000	0	0	0
2019/04/21 17:09:00	BASE	3.88	162	5.30	162	-4.1	83	-6.5	87	0	997.5	NA	0.0000		9999	2000	0	0	0
2019/04/21 17:10:00	BASE	3.03	171	5.30	162	-4.1	83	-6.5	87	0	997.5	NA	0.0000		9999	2000	0	0	0
2019/04/21 17:11:00	BASE	2.42	174	5.30	162	-4.1	83	-6.6	86	0	997.4	NA	0.0000		9999	1970	0	0	0
2019/04/21 17:12:00	BASE	2.01	179	5.30	162	-4.1	83	-6.6	86	0	997.5	NA	0.0000		9999	1970	0	0	0
2019/04/21 17:13:00	BASE	1.88	188	5.30	162	-4.1	83	-6.6	86	0	997.5	NA	0.0000		9999	1970	0	0	0
2019/04/21 17:14:00	BASE	2.65	193	5.30	162	-4.1	82	-6.6	85	0	997.5	NA	0.0000		9999	2000	0	0	0
2019/04/21 17:15:00	BASE	3.43	199	5.30	162	-4.1	82	-6.6	85	0	997.5	NA	0.0000		9999	1970	0	0	0
2019/04/21 17:16:00	BASE	3.16	205	5.30	162	-4.1	82	-6.7	86	0	997.5	NA	0.0000		9999	2000	0	0	0
2019/04/21 17:17:00	BASE	2.17	199	5.30	162	-4.1	82	-6.7	87	0	997.6	NA	0.0000		9999	1970	0	0	0
2019/04/21 17:18:00	BASE	1.44	197	4.12	163	-4.0	82	-6.7	89	0	997.5	NA	0.0000		9999	1940	0	0	0
2019/04/21 17:19:00	BASE	0.86	211	4.06	197	-4.0	82	-6.7	91	0	997.6	NA	0.0000		9999	1940	0	0	0
2019/04/21 17:20:00	BASE	0.47	229	4.06	197	-4.0	82	-6.6	92	0	997.6	NA	0.0000		9999	1940	0	0	0
2019/04/21 17:21:00	BASE	0.75	242	4.06	197	-4.0	82	-6.6	95	0	997.5	NA	0.0000		9999	1900	0	0	0
2019/04/21 17:22:00	BASE	0.48	247	4.06	197	-4.0	82	-6.6	96	0	997.5	NA	0.0000		9999	1870	0	0	0
2019/04/21 17:23:00	BASE	0.00	249	4.06	197	-4.0	83	-6.5	95	0	997.5	NA	0.0000		9999	1900	0	0	0
2019/04/21 17:24:00	BASE	0.00	290	4.01	205	-4.0	83	-6.5	93	0	997.5	NA	0.0000		9999	1740	0	0	0
2019/04/21 17:25:00	BASE	0.64	311	3.34	208	-4.0	83	-6.4	89	0	997.5	NA	0.0000		9999	1770	0	0	0
2019/04/21 17:26:00	BASE	1.48	296	2.31	203	-3.9	83	-6.4	86	0	997.5	NA	0.0000		9999	1800	0	0	0
2019/04/21 17:27:00	BASE	1.88	291	2.62	288	-3.9	83	-6.4	83	0	997.5	NA	0.0000		9999	1870	0	0	0
2019/04/21 17:28:00	BASE	1.91	287	2.62	288	-3.9	83	-6.4	81	0	997.6	NA	0.0000		9999	1900	0	0	0
2019/04/21 17:29:00	BASE	1.59	274	2.62	288	-3.9	83	-6.4	80	0	997.6	NA	0.0000		9999	1870	0	0	0
2019/04/21 17:30:00	BASE	1.87	258	2.68	252	-3.9	83	-6.4	79	0	997.6	NA	0.0000		9999	1870	0	0	0
2019/04/21 17:31:00	BASE	2.43	243	2.88	221	-4.0	83	-6.4	77	0	997.7	NA	0.0000		9999	1900	0	0	0
2019/04/21 17:32:00	BASE	2.63	232	2.88	221	-4.0	83	-6.4	75	0	997.7	NA	0.0000		9999	1900	0	0	0
2019/04/21 17:33:00	BASE	2.48	234	2.88	221	-4.0	83	-6.5	74	0	997.7	NA	0.0000		9999	1900	0	0	0
2019/04/21 17:34:00	BASE	2.27	246	2.88	221	-4.0	83	-6.5	73	0	997.7	NA	0.0000		9999	1840	0	0	0
2019/04/21 17:35:00	BASE	1.86	256	2.88	221	-4.0	83	-6.5	73	0	997.7	NA	0.0000		9999	1770	0	0	0
2019/04/21 17:36:00	BASE	1.08	256	2.88	221	-4.0	83	-6.5	74	0	997.7	NA	0.0000		9999	1900	0	0	0
2019/04/21 17:37:00	BASE	0.34	235	2.88	221	-4.0	83	-6.5	74	0	997.8	NA	0.0000		9999	1900	0	0	0
2019/04/21 17:38:00	BASE	0.04	216	2.88	221	-4.0	83	-6.5	73	0	997.8	NA	0.0000		9999	1900	0	0	0
2019/04/21 17:39:00	BASE	0.25	214	2.88	221	-4.0	83	-6.5	72	0	997.7	NA	0.0000		9999	1900	0	0	0
2019/04/21 17:40:00	BASE	0.57	219	2.88	221	-4.0	83	-6.4	72	0	997.8	NA	0.0000		9999	1800	0	0	0
2019/04/21 17:41:00	BASE	0.36	226	2.83	237	-4.0	83	-6.4	72	0	997.8	NA	0.0000		9999	1840	0	0	0
2019/04/21 17:42:00	BASE	0.00	254	2.62	247	-3.9	84	-6.3	72	0	997.8	NA	0.0000		9999	1840	0	0	0
2019/04/21 17:43:00	BASE	0.00	295	2.62	247	-3.9	84	-6.3	71	0	997.8	NA	0.0000		9999	1940	0	0	0
2019/04/21 17:44:00	BASE	0.00	302	1.95	261	-3.9	84	-6.2	71	0	997.7	NA	0.0000		9999	1940	0	0	0
2019/04/21 17:45:00	BASE	0.00	286	1.49	245	-3.9	84	-6.2	70	0	997.7	NA	0.0000		9999	1900	0	0	0
2019/04/21 17:46:00	BASE	0.00	258	1.49	245	-3.9	84	-6.2	69	0	997.7	NA	0.0000		9999	1900	0	0	0
2019/04/21 17:47:00	BASE	0.00	229	1.49	245	-3.9	84	-6.2	69	0	997.8	NA	0.0000		9999	1900	0	0	0
2019/04/21 17:48:00	BASE	0.00	228	1.49	245	-3.9	84	-6.2	68	0	997.8	NA	0.0000		9999	1900	0	0	0
2019/04/21 17:49:00	BASE	0.09	240	1.49	245	-3.9	84	-6.2	67	0	997.8	NA	0.0000		9999	1900	0	0	0
2019/04/21 17:50:00	BASE	0.77	232	2.42	191	-3.9	84	-6.2	64	0	997.7	NA	0.0000		9999	1870	0	0	0
2019/04/21 17:51:00	BASE	1.72	227	2.57	225	-3.9	84	-6.2	63	0	997.8	NA	0.0000		9999	1870	0	0	0
2019/04/21 17:52:00	BASE	1.99	222	2.57	225	-4.0	84	-6.3	62	0	997.8	NA	0.0000		9999	1870	0	0	0
2019/04/21 17:53:00	BASE	1.89	210	2.57	225	-4.0	84	-6.3	62	0	997.8	NA	0.0000		9999	1800	0	0	0
2019/04/21 17:54:00	BASE	1.94	203	2.57	225	-4.0	84	-6.3	62	0	997.8	NA	0.0000		9999	1740	0	0	0
2019/04/21 17:55:00	BASE	1.47	216	2.57	225	-4.0	84	-6.3	62	0	997.8	NA	0.0000		9999	1800	0	0	0
2019/04/21 17:56:00	BASE	0.47	222	2.57	225	-4.0	84	-6.3	62	0	997.8	NA	0.0000		9999	1840	0	0	0
2019/04/21 17:57:00	BASE	0.16	228	2.57	225	-4.0	84	-6.3	63	0	997.8	NA	0.0000		9999	1840	0	0	0
2019/04/21 17:58:00	BASE	1.13	247	2.57	248	-3.9	84	-6.2	63	0	997.8	NA	0.0000		9999	1870	0	0	0
2019/04/21 17:59:00	BASE	1.95	258	2.57	248	-3.9	84	-6.2	61	0	997.8	NA	0.0000		9999	1870	0	0	0
2019/04/21 18:00:00	BASE	2.03	259	2.57	248	-3.9	84	-6.2	60	0	997.8	NA	0.0000		9999	1870	0	0	0
2019/04/21 18:01:00	BASE	2.23	257	2.68	254	-3.9	84	-6.2	59	0	997.8	NA	0.0000		9999	1840	0	0	0
2019/04/21 18:02:00	BASE	2.30	253	2.68	254	-3.9	84	-6.2	59	0	997.8	NA	0.0000		9999	1800	0	0	0
2019/04/21 18:03:00	BASE	2.46	241	3.55	218	-3.9	84	-6.2	59	0	997.8	NA	0.0000		9999	1840	0	0	0
2019/04/21 18:04:00	BASE	3.99	223	6.48	212	-3.9	84	-6.2	59	0	997.8	NA	0.0000		9999	1840	0	0	0
2019/04/21 18:05:00	BASE	5.61	215	6.74	208	-3.9	84	-6.1	59	0	997.9	NA	0.0000		9999	1800	0	0	0
2019/04/21 18:06:00	BASE	5.93	215	6.74	223	-3.9	85	-6.1	59	0	997.9	NA	0.0000		9999	1800	0	0	0
2019/04/21 18:07:00	BASE	5.89	218	6.74	223	-3.9	85	-6.1	58	0	997.9	NA	0.0000		9999	1840	0	0	0
2019/04/21 18:08:00	BASE	5.14	220	6.74	223	-4.0	85	-6.1	57	0	997.9	NA	0.0000		9999	1840	0	0	0
2019/04/21 18:09:00	BASE	4.19	219	6.74	223	-4.0	85	-6.2	57	0	997.9	NA	0.0000		9999	1870	0	0	0
2019/04/21 18:10:00	BASE	4.20	223	6.74	223	-4.0	85	-6.2	57	0	997.9	NA	0.0000		9999	1840	0	0	0
2019/04/21 18:11:00	BASE	4.54	227	6.74	223	-4.0	85	-6.2	58	0	998.0	NA	0.0000		9999	1800	0	0	0
2019/04/21 18:12:00	BASE	4.81	227	6.74	223	-4.0	85	-6.2	58	0	998.0	NA	0.0000		9999	1740	0	0	0
2019/04/21 18:13:00	BASE	5.75	235	6.94	256	-4.0	85	-6.2	59	0	998.0	NA	0.0000		9999	1710	0	0	0
2019/04/21 18:14:00	BASE	6.35	247	7.05	251	-4.0	85	-6.1	60	0	998.0	NA	0.0000		9999	1800	0	0	0
2019/04/21 18:15:00	BASE	5.49	252	7.05	251	-4.0	85	-6.2	60	0	998.0	NA	0.0000		9999	1800	0	0	0
2019/04/21 18:16:00	BASE	5.62	250	7.36	246	-4.0	85	-6.2	60	0	998.0	NA	0.0000		9999	1800	0	0	0
2019/04/21 18:17:00	BASE	5.92	256	7.36	246	-4.1	85	-6.2	60	0	998.0	NA	0.0000		9999	1840	0	0	0
2019/04/21 18:18:00	BASE	6.18	262	8.18	246	-4.1	85	-6.2	59	0	998.0	NA	0.0000		9999	1870	0	0	0
2019/04/21 18:19:00	BASE	7.03	254	8.18	246	-4.1	86	-6.1	58	0	998.0	NA	0.0000		9999	1870	0	0	0
2019/04/21 18:20:00	BASE	7.18	250	8.18	246	-4.1	86	-6.1	57	0	998.0	NA	0.0000		9999	1840	0	0	0
2019/04/21 18:21:00	BASE	7.06	253	8.18	246	-4.1	86	-6.1	58	0	998.0	NA	0.0000		9999	1800	0	0	0
2019/04/21 18:22:00	BASE	6.71	256	8.18	246	-4.1	86	-6.1	58	0	998.0	NA	0.0000		9999	1840	0	0	0
2019/04/21 18:23:00	BASE	6.50	257	8.18	246	-4.2	86	-6.1	57	0	998.0	NA	0.0000		9999	1870	0	0	0
2019/04/21 18:24:00	BASE	6.51	251	8.18	246	-4.2	86	-6.2	58	0	998.0	NA	0.0000		9999	1840	0	0	0
2019/04/21 18:25:00	BASE	6.35	247	8.18	246	-4.2	86	-6.2	58	0	998.0	NA	0.0000		9999	1770	0	0	0
2019/04/21 18:26:00	BASE	6.17	247	8.18	246	-4.2	86	-6.2	58	0	998.0	NA	0.0000		9999	1800	17780	19000	0
2019/04/21 18:27:00	BASE	6.30	250	8.18	246	-4.3	86	-6.2	58	0	998.0	NA	0.0000		9999	1840	0	0	0
2019/04/21 18:28:00	BASE	6.18	254	7.97	254	-4.3	86	-6.2	59	0	998.0	NA	0.0000		9999	1840	0	0	0
2019/04/21 18:29:00	BASE	5.78	255	7.97	254	-4.3	86	-6.3	59	0	998.0	NA	0.0000		9999	1870	0	0	0
2019/04/21 18:30:00	BASE	4.72	250	7.46	261	-4.3	86	-6.3	59	0	998.0	NA	0.0000		9999	1870	0	0	0
2019/04/21 18:31:00	BASE	3.85	243	7.46	261	-4.3	86	-6.3	58	0	998.0	NA	0.0000		9999	1800	0	0	0
2019/04/21 18:32:00	BASE	3.87	235	6.94	250	-4.3	85	-6.4	58	0	998.0	NA	0.0000		9999	1840	0	0	0
2019/04/21 18:33:00	BASE	3.89	237	6.89	246	-4.3	85	-6.4	56	0	998.0	NA	0.0000		9999	1870	0	0	0
2019/04/21 18:34:00	BASE	4.17	248	6.89	246	-4.3	85	-6.5	53	0	998.0	NA	0.0000		9999	1870	0	0	0
2019/04/21 18:35:00	BASE	4.58	251	6.89	246	-4.3	85	-6.5	52	0	998.0	NA	0.0000		9999	1900	0	0	0
2019/04/21 18:36:00	BASE	4.93	251	6.89	246	-4.3	85	-6.4	51	0	998.0	NA	0.0000		9999	1940	0	0	0
2019/04/21 18:37:00	BASE	5.42	255	6.48	256	-4.3	85	-6.5	49	0	998.0	NA	0.0000		9999	1870	0	0	0
2019/04/21 18:38:00	BASE	5.26	256	6.38	257	-4.3	85	-6.5	48	0	998.1	NA	0.0000		9999	1900	0	0	0
2019/04/21 18:39:00	BASE	4.07	252	6.38	257	-4.3	85	-6.5	49	0	998.1	NA	0.0000		9999	1800	0	0	0
2019/04/21 18:40:00	BASE	3.46	249	6.38	257	-4.4	85	-6.5	50	0	998.0	NA	0.0000		9999	1840	0	0	0
2019/04/21 18:41:00	BASE	3.41	262	6.38	257	-4.4	85	-6.5	51	0	998.0	NA	0.0000		9999	1800	0	0	0
2019/04/21 18:42:00	BASE	2.56	258	6.38	257	-4.4	85	-6.5	52	0	998.0	NA	0.0000		9999	1840	0	0	0
2019/04/21 18:43:00	BASE	1.61	237	6.38	257	-4.4	85	-6.5	53	0	998.0	NA	0.0000		9999	1800	0	0	0
2019/04/21 18:44:00	BASE	1.24	251	6.38	257	-4.4	85	-6.6	53	0	998.0	NA	0.0000		9999	1770	0	0	0
2019/04/21 18:45:00	BASE	1.07	281	6.38	257	-4.4	84	-6.6	53	0	998.0	NA	0.0000		9999	1800	0	0	0
2019/04/21 18:46:00	BASE	0.48	313	6.38	257	-4.4	84	-6.6	55	0	998.0	NA	0.0000		9999	1840	0	0	0
2019/04/21 18:47:00	BASE	0.00	342	6.02	258	-4.4	84	-6.7	56	0	998.0	NA	0.0000		9999	1840	0	0	0
2019/04/21 18:48:00	BASE	0.11	4	4.01	241	-4.4	84	-6.7	57	0	998.0	NA	0.0000		9999	1840	0	0	0
2019/04/21 18:49:00	BASE	0.15	41	4.01	241	-4.4	84	-6.6	58	0	998.0	NA	0.0000		9999	1870	21420	0	0
2019/04/21 18:50:00	BASE	0.05	122	3.81	268	-4.3	84	-6.6	57	0	997.9	NA	0.0000		9999	1840	0	0	0
2019/04/21 18:51:00	BASE	0.00	222	2.83	266	-4.3	84	-6.6	57	0	997.9	NA	0.0000		9999	1870	0	0	0
2019/04/21 18:52:00	BASE	0.00	271	1.80	276	-4.3	84	-6.6	55	0	997.9	NA	0.0000		9999	1840	0	0	0
2019/04/21 18:53:00	BASE	0.62	295	1.95	308	-4.3	84	-6.6	53	0	997.9	NA	0.0000		9999	1800	0	0	0
2019/04/21 18:54:00	BASE	2.52	304	5.40	293	-4.3	84	-6.6	52	0	997.9	NA	0.0000		9999	1870	0	0	0
2019/04/21 18:55:00	BASE	5.06	296	7.25	293	-4.3	84	-6.6	55	0	997.9	NA	0.0000		9999	1870	0	0	0
2019/04/21 18:56:00	BASE	6.02	293	7.25	293	-4.3	84	-6.6	55	0	997.9	NA	0.0000		9999	1840	0	0	0
2019/04/21 18:57:00	BASE	4.91	296	7.25	293	-4.2	84	-6.5	54	0	997.9	NA	0.0000		9999	1800	0	0	0
2019/04/21 18:58:00	BASE	3.73	297	7.25	293	-4.2	84	-6.5	54	0	997.9	NA	0.0000		9999	1840	0	0	0
2019/04/21 18:59:00	BASE	3.50	300	7.25	293	-4.3	84	-6.5	56	0	998.0	NA	0.0000		9999	1870	0	0	0
2019/04/21 19:00:00	BASE	3.25	301	7.25	293	-4.3	84	-6.5	58	0	998.0	NA	0.0000		9999	1870	0	0	0
2019/04/21 19:01:00	BASE	2.84	297	7.25	293	-4.3	84	-6.6	59	0	998.0	NA	0.0000		9999	1870	0	0	0
2019/04/21 19:02:00	BASE	3.18	296	7.25	293	-4.3	84	-6.6	61	0	998.0	NA	0.0000		9999	1840	0	0	0
2019/04/21 19:03:00	BASE	3.53	305	7.25	293	-4.3	84	-6.5	63	0	998.0	NA	0.0000		9999	1800	0	0	0
2019/04/21 19:04:00	BASE	3.24	308	7.25	293	-4.3	84	-6.6	64	0	998.0	NA	0.0000		9999	1870	0	0	0
2019/04/21 19:05:00	BASE	3.64	308	7.25	314	-4.3	84	-6.6	64	0	998.0	NA	0.0000		9999	1840	0	0	0
2019/04/21 19:06:00	BASE	4.05	297	7.25	314	-4.2	84	-6.5	63	0	998.0	NA	0.0000		9999	1840	0	0	0
2019/04/21 19:07:00	BASE	4.13	283	7.25	314	-4.2	84	-6.5	62	0	998.0	NA	0.0000		9999	1840	0	0	0
2019/04/21 19:08:00	BASE	4.42	281	7.25	314	-4.2	84	-6.5	59	0	998.0	NA	0.0000		9999	1870	0	0	0
2019/04/21 19:09:00	BASE	4.17	282	7.25	314	-4.2	84	-6.5	55	0	998.0	NA	0.0000		9999	1870	0	0	0
2019/04/21 19:10:00	BASE	4.11	288	7.25	314	-4.2	84	-6.5	51	0	998.0	NA	0.0000		9999	1840	0	0	0
2019/04/21 19:11:00	BASE	4.76	288	7.25	314	-4.2	84	-6.5	47	0	998.1	NA	0.0000		9999	1770	0	0	0
2019/04/21 19:12:00	BASE	4.87	285	7.25	314	-4.2	84	-6.5	43	0	998.1	NA	0.0000		9999	1740	0	0	0
2019/04/21 19:13:00	BASE	3.69	291	7.25	314	-4.2	84	-6.5	40	0	998.2	NA	0.0000		9999	1770	0	0	0
2019/04/21 19:14:00	BASE	3.05	302	7.25	314	-4.3	84	-6.6	40	0	998.2	NA	0.0000		9999	1840	0	0	0
2019/04/21 19:15:00	BASE	2.97	309	5.71	283	-4.3	84	-6.6	39	0	998.2	NA	0.0000		9999	1840	0	0	0
2019/04/21 19:16:00	BASE	2.59	312	5.71	283	-4.3	84	-6.6	37	0	998.2	NA	0.0000		9999	1840	0	0	0
2019/04/21 19:17:00	BASE	2.28	313	5.71	283	-4.3	84	-6.6	35	0	998.2	NA	0.0000		9999	1840	0	0	0
2019/04/21 19:18:00	BASE	2.04	306	5.71	283	-4.3	84	-6.6	35	0	998.2	NA	0.0000		9999	1840	0	0	0
2019/04/21 19:19:00	BASE	2.26	307	5.71	283	-4.3	84	-6.6	34	0	998.2	NA	0.0000		9999	1840	0	0	0
2019/04/21 19:20:00	BASE	2.59	310	5.71	283	-4.3	84	-6.6	33	0	998.2	NA	0.0000		9999	1770	0	0	0
2019/04/21 19:21:00	BASE	2.74	315	5.09	272	-4.3	84	-6.6	31	0	998.2	NA	0.0000		9999	1770	0	0	0
2019/04/21 19:22:00	BASE	2.96	321	3.96	308	-4.3	84	-6.6	29	0	998.2	NA	0.0000		9999	1770	0	0	0
2019/04/21 19:23:00	BASE	2.66	322	3.96	308	-4.4	84	-6.6	28	0	998.2	NA	0.0000		9999	1800	0	0	0
2019/04/21 19:24:00	BASE	2.58	334	3.60	320	-4.3	84	-6.6	27	0	998.2	NA	0.0000		9999	1800	0	0	0
2019/04/21 19:25:00	BASE	2.79	343	3.60	320	-4.3	84	-6.6	25	0	998.1	NA	0.0000		9999	1800	0	0	0
2019/04/21 19:26:00	BASE	2.77	341	3.65	332	-4.3	84	-6.6	24	0	998.2	NA	0.0000		9999	1770	0	0	0
2019/04/21 19:27:00	BASE	2.30	328	3.65	332	-4.3	84	-6.6	23	0	998.3	NA	0.0000		9999	1800	0	0	0
2019/04/21 19:28:00	BASE	1.67	326	3.65	332	-4.3	84	-6.6	23	0	998.3	NA	0.0000		9999	1840	0	0	0
2019/04/21 19:29:00	BASE	1.67	322	3.65	332	-4.4	84	-6.7	23	0	998.3	NA	0.0000		9999	1800	0	0	0
2019/04/21 19:30:00	BASE	2.52	300	3.65	287	-4.4	84	-6.7	23	0	998.3	NA	0.0000		9999	1800	0	0	0
2019/04/21 19:31:00	BASE	3.15	288	3.65	287	-4.4	84	-6.7	23	0	998.3	NA	0.0000		9999	1800	0	0	0
2019/04/21 19:32:00	BASE	2.58	270	3.65	287	-4.3	84	-6.6	22	0	998.4	NA	0.0000		9999	1840	0	0	0
2019/04/21 19:33:00	BASE	2.54	246	3.65	287	-4.3	84	-6.5	22	0	998.4	NA	0.0000		9999	1840	0	0	0
2019/04/21 19:34:00	BASE	2.81	233	3.65	287	-4.3	85	-6.5	22	0	998.4	NA	0.0000		9999	1840	0	0	0
2019/04/21 19:35:00	BASE	2.48	246	3.65	287	-4.3	85	-6.5	21	0	998.4	NA	0.0000		9999	1800	0	0	0
2019/04/21 19:36:00	BASE	2.18	265	3.65	287	-4.3	85	-6.4	21	0	998.4	NA	0.0000		9999	1840	0	0	0
2019/04/21 19:37:00	BASE	1.93	255	3.65	287	-4.3	85	-6.4	21	0	998.4	NA	0.0000		9999	1840	0	0	0
2019/04/21 19:38:00	BASE	1.99	245	3.65	287	-4.3	85	-6.4	21	0	998.4	NA	0.0000		9999	1870	0	0	0
2019/04/21 19:39:00	BASE	2.57	238	3.65	287	-4.3	85	-6.4	22	0	998.4	NA	0.0000		9999	1800	0	0	0
2019/04/21 19:40:00	BASE	2.79	225	3.50	230	-4.3	85	-6.4	22	0	998.4	NA	0.0000		9999	1800	0	0	0
2019/04/21 19:41:00	BASE	3.41	207	5.30	201	-4.3	85	-6.4	22	0	998.4	NA	0.0000		9999	1800	0	0	0
2019/04/21 19:42:00	BASE	4.25	195	5.30	201	-4.3	85	-6.4	22	0	998.3	NA	0.0000		9999	1800	0	0	0
2019/04/21 19:43:00	BASE	4.26	199	5.30	201	-4.3	85	-6.4	21	0	998.3	NA	0.0000		9999	1800	0	0	0
2019/04/21 19:44:00	BASE	4.33	211	5.30	201	-4.3	85	-6.5	20	0	998.3	NA	0.0000		9999	1800	0	0	0
2019/04/21 19:45:00	BASE	4.80	240	6.12	264	-4.3	85	-6.4	20	0	998.2	NA	0.0000		9999	1800	0	0	0
2019/04/21 19:46:00	BASE	4.98	252	6.12	264	-4.3	85	-6.4	20	0	998.3	NA	0.0000		9999	1770	0	0	0
2019/04/21 19:47:00	BASE	3.95	241	6.12	264	-4.3	85	-6.4	20	0	998.3	NA	0.0000		9999	1770	0	0	0
2019/04/21 19:48:00	BASE	2.77	240	6.12	264	-4.3	85	-6.5	20	0	998.3	NA	0.0000		9999	1800	0	0	0
2019/04/21 19:49:00	BASE	2.38	244	6.12	264	-4.3	85	-6.5	20	0	998.3	NA	0.0000		9999	1740	0	0	0
2019/04/21 19:50:00	BASE	1.79	254	6.12	264	-4.4	85	-6.5	19	0	998.3	NA	0.0000		9999	1770	0	0	0
2019/04/21 19:51:00	BASE	1.26	275	6.12	264	-4.4	85	-6.5	19	0	998.3	NA	0.0000		9999	1770	0	0	0
2019/04/21 19:52:00	BASE	1.65	303	6.12	264	-4.4	85	-6.5	19	0	998.2	NA	0.0000		9999	1840	0	0	0
2019/04/21 19:53:00	BASE	1.87	336	6.12	264	-4.3	85	-6.5	18	0	998.2	NA	0.0000		9999	1800	0	0	0
2019/04/21 19:54:00	BASE	1.66	360	6.12	264	-4.3	85	-6.5	18	0	998.2	NA	0.0000		9999	1800	0	0	0
2019/04/21 19:55:00	BASE	1.68	11	5.81	261	-4.3	84	-6.6	17	0	998.2	NA	0.0000		9999	1710	0	0	0
2019/04/21 19:56:00	BASE	1.65	21	4.01	225	-4.3	84	-6.6	16	0	998.2	NA	0.0000		9999	1710	0	0	0
2019/04/21 19:57:00	BASE	1.57	19	3.24	313	-4.3	84	-6.6	16	0	998.2	NA	0.0000		9999	1800	0	0	0
2019/04/21 19:58:00	BASE	1.53	16	3.24	313	-4.3	84	-6.6	16	0	998.3	NA	0.0000		9999	1800	0	0	0
2019/04/21 19:59:00	BASE	0.96	20	3.24	313	-4.3	84	-6.6	15	0	998.3	NA	0.0000		9999	1770	0	0	0
2019/04/21 20:00:00	BASE	0.20	26	3.24	313	-4.3	84	-6.6	14	0	998.3	NA	0.0000		9999	1800	0	0	0
2019/04/21 20:01:00	BASE	0.00	1	3.24	313	-4.3	84	-6.5	14	0	998.3	NA	0.0000		9999	1800	0	0	0
2019/04/21 20:02:00	BASE	0.00	346	2.42	1	-4.3	84	-6.5	14	0	998.3	NA	0.0000		9999	1800	0	0	0
2019/04/21 20:03:00	BASE	0.00	349	2.42	1	-4.3	84	-6.5	14	0	998.3	NA	0.0000		9999	1800	0	0	0
2019/04/21 20:04:00	BASE	0.00	3	2.21	22	-4.3	84	-6.5	13	0	998.3	NA	0.0000		9999	1800	0	0	0
2019/04/21 20:05:00	BASE	0.00	40	2.21	22	-4.3	84	-6.5	12	0	998.2	NA	0.0000		9999	1800	0	0	0
2019/04/21 20:06:00	BASE	0.00	57	2.21	22	-4.3	84	-6.5	12	0	998.3	NA	0.0000		9999	1800	0	0	0
2019/04/21 20:07:00	BASE	0.45	94	2.21	22	-4.3	85	-6.5	12	0	998.3	NA	0.0000		9999	1800	0	0	0
2019/04/21 20:08:00	BASE	1.54	116	2.31	113	-4.3	85	-6.5	12	0	998.3	NA	0.0000		9999	1800	0	0	0
2019/04/21 20:09:00	BASE	2.10	128	2.31	113	-4.3	85	-6.5	12	0	998.2	NA	0.0000		9999	1800	0	0	0
2019/04/21 20:10:00	BASE	1.86	124	2.31	113	-4.3	85	-6.5	13	0	998.2	NA	0.0000		9999	1800	0	0	0
2019/04/21 20:11:00	BASE	1.67	106	2.31	113	-4.4	85	-6.5	12	0	998.2	NA	0.0000		9999	1800	0	0	0
2019/04/21 20:12:00	BASE	1.58	110	2.31	113	-4.4	85	-6.5	12	0	998.2	NA	0.0000		9999	1800	0	0	0
2019/04/21 20:13:00	BASE	1.79	107	2.42	96	-4.4	86	-6.5	11	0	998.2	NA	0.0000		9999	1800	0	0	0
2019/04/21 20:14:00	BASE	2.15	95	2.42	85	-4.4	86	-6.5	10	0	998.2	NA	0.0000		9999	1740	0	0	0
2019/04/21 20:15:00	BASE	1.93	92	2.42	85	-4.5	86	-6.4	9	0	998.2	NA	0.0000		9999	1640	0	0	0
2019/04/21 20:16:00	BASE	1.75	90	2.42	85	-4.5	86	-6.5	8	0	998.2	NA	0.0000		9999	1710	0	0	0
2019/04/21 20:17:00	BASE	1.97	75	2.47	55	-4.5	86	-6.5	7	0	998.2	NA	0.0000		9999	1770	0	0	0
2019/04/21 20:18:00	BASE	2.21	62	2.68	57	-4.5	86	-6.5	6	0	998.2	NA	0.0000		9999	1770	0	0	0
2019/04/21 20:19:00	BASE	2.29	57	2.68	57	-4.5	86	-6.5	6	0	998.3	NA	0.0000		9999	1740	0	0	0
2019/04/21 20:20:00	BASE	2.23	57	2.68	57	-4.5	86	-6.5	5	0	998.3	NA	0.0000		9999	1770	0	0	0
2019/04/21 20:21:00	BASE	2.45	59	2.98	58	-4.5	86	-6.5	5	0	998.3	NA	0.0000		9999	1710	0	0	0
2019/04/21 20:22:00	BASE	2.69	58	2.98	58	-4.5	86	-6.5	5	0	998.2	NA	0.0000		9999	1740	0	0	0
2019/04/21 20:23:00	BASE	2.72	54	2.98	58	-4.5	86	-6.5	4	0	998.2	NA	0.0000		9999	1740	0	0	0
2019/04/21 20:24:00	BASE	2.83	48	3.14	43	-4.5	86	-6.5	4	0	998.2	NA	0.0000		9999	1710	0	0	0
2019/04/21 20:25:00	BASE	2.84	43	3.14	43	-4.5	86	-6.5	4	0	998.2	NA	0.0000		9999	1710	0	0	0
2019/04/21 20:26:00	BASE	2.66	46	3.14	43	-4.5	86	-6.5	4	0	998.3	NA	0.0000		9999	1710	0	0	0
2019/04/21 20:27:00	BASE	2.62	55	3.24	50	-4.5	86	-6.5	4	0	998.3	NA	0.0000		9999	1770	0	0	0
2019/04/21 20:28:00	BASE	3.03	53	3.76	45	-4.5	86	-6.4	3	0	998.3	NA	0.0000		9999	1770	0	0	0
2019/04/21 20:29:00	BASE	3.17	38	3.76	45	-4.5	86	-6.4	3	0	998.3	NA	0.0000		9999	1740	0	0	0
2019/04/21 20:30:00	BASE	2.81	31	3.76	45	-4.4	87	-6.3	3	0	998.3	NA	0.0000		9999	1770	0	0	0
2019/04/21 20:31:00	BASE	2.72	33	3.76	45	-4.4	87	-6.3	3	0	998.3	NA	0.0000		9999	1670	0	0	0
2019/04/21 20:32:00	BASE	2.48	25	3.76	45	-4.4	87	-6.2	3	0	998.4	NA	0.0000		9999	1670	0	0	0
2019/04/21 20:33:00	BASE	2.52	13	3.76	45	-4.4	87	-6.2	2	0	998.4	NA	0.0000		9999	1710	0	0	0
2019/04/21 20:34:00	BASE	2.60	16	3.76	45	-4.3	87	-6.2	2	0	998.4	NA	0.0000		9999	1740	0	0	0
2019/04/21 20:35:00	BASE	1.89	25	3.76	45	-4.3	87	-6.2	2	0	998.4	NA	0.0000		9999	1710	0	0	0
2019/04/21 20:36:00	BASE	1.24	28	3.76	45	-4.3	87	-6.2	2	0	998.4	NA	0.0000		9999	1740	0	0	0
2019/04/21 20:37:00	BASE	0.67	25	3.76	45	-4.3	87	-6.2	2	0	998.4	NA	0.0000		9999	1740	0	0	0
2019/04/21 20:38:00	BASE	0.88	14	3.29	15	-4.3	86	-6.2	2	0	998.4	NA	0.0000		9999	1740	0	0	0
2019/04/21 20:39:00	BASE	1.17	342	3.29	15	-4.3	86	-6.3	2	0	998.5	NA	0.0000		9999	1740	0	0	0
2019/04/21 20:40:00	BASE	0.72	308	3.29	15	-4.3	86	-6.3	2	0	998.5	NA	0.0000		9999	1740	0	0	0
2019/04/21 20:41:00	BASE	0.32	305	3.29	15	-4.3	86	-6.2	1	0	998.5	NA	0.0000		9999	1710	0	0	0
2019/04/21 20:42:00	BASE	0.48	320	3.29	15	-4.3	87	-6.2	1	0	998.5	NA	0.0000		9999	1710	0	0	0
2019/04/21 20:43:00	BASE	0.44	312	2.78	16	-4.3	87	-6.1	1	0	998.4	NA	0.0000		9999	1740	0	0	0
2019/04/21 20:44:00	BASE	0.00	316	2.01	16	-4.2	87	-6.1	1	0	998.4	NA	0.0000		9999	1710	0	0	0
2019/04/21 20:45:00	BASE	0.00	338	2.01	16	-4.2	87	-6.1	1	0	998.4	NA	0.0000		9999	1740	0	0	0
2019/04/21 20:46:00	BASE	0.00	344	2.01	16	-4.2	86	-6.1	1	0	998.4	NA	0.0000		9999	1740	0	0	0
2019/04/21 20:47:00	BASE	0.00	358	2.01	16	-4.2	86	-6.2	1	0	998.3	NA	0.0000		9999	1740	0	0	0
2019/04/21 20:48:00	BASE	0.00	32	1.59	313	-4.2	86	-6.2	1	0	998.3	NA	0.0000		9999	1740	0	0	0
2019/04/21 20:49:00	BASE	0.00	68	1.59	313	-4.2	86	-6.1	1	0	998.2	NA	0.0000		9999	1710	0	0	0
2019/04/21 20:50:00	BASE	0.05	107	1.59	313	-4.2	87	-6.1	1	0	998.2	NA	0.0000		9999	1740	0	0	0
2019/04/21 20:51:00	BASE	0.05	150	1.59	313	-4.2	87	-6.1	1	0	998.2	NA	0.0000		9999	1740	0	0	0
2019/04/21 20:52:00	BASE	0.00	160	1.13	102	-4.2	87	-6.1	1	0	998.2	NA	0.0000		9999	1740	0	0	0
2019/04/21 20:53:00	BASE	0.00	163	1.13	102	-4.3	87	-6.1	1	0	998.2	NA	0.0000		9999	1740	0	0	0
2019/04/21 20:54:00	BASE	0.00	196	1.13	102	-4.3	87	-6.1	1	0	998.2	NA	0.0000		9999	1740	0	0	0
2019/04/21 20:55:00	BASE	0.00	255	1.13	102	-4.3	87	-6.2	1	0	998.2	NA	0.0000		9999	1710	0	0	0
2019/04/21 20:56:00	BASE	0.00	320	1.13	102	-4.3	87	-6.2	1	0	998.2	NA	0.0000		9999	1710	0	0	0
2019/04/21 20:57:00	BASE	0.38	30	1.54	60	-4.3	87	-6.2	1	0	998.2	NA	0.0000		9999	1710	0	0	0
2019/04/21 20:58:00	BASE	1.33	59	3.09	74	-4.3	87	-6.2	1	0	998.1	NA	0.0000		9999	1710	0	0	0
2019/04/21 20:59:00	BASE	1.54	76	3.19	66	-4.3	87	-6.1	1	0	998.1	NA	0.0000		9999	1710	0	0	0
2019/04/21 21:00:00	BASE	0.84	74	3.19	66	-4.3	87	-6.1	0	0	998.1	NA	0.0000		9999	1740	0	0	0
2019/04/21 21:01:00	BASE	0.41	50	3.19	66	-4.3	87	-6.1	0	0	998.0	NA	0.0000		9999	1740	0	0	0
2019/04/21 21:02:00	BASE	0.73	61	3.19	66	-4.3	87	-6.1	0	0	998.0	NA	0.0000		9999	1740	0	0	0
2019/04/21 21:03:01	BASE	1.01	78	3.19	66	-4.3	87	-6.1	0	0	998.0	NA	0.0000		9999	1770	0	0	0
2019/04/21 21:04:00	BASE	1.06	83	3.19	66	-4.3	87	-6.1	0	0	998.0	NA	0.0000		9999	1740	0	0	0
2019/04/21 21:05:00	BASE	1.45	82	3.19	66	-4.3	87	-6.2	0	0	998.0	NA	0.0000		9999	1710	0	0	0
2019/04/21 21:06:00	BASE	2.12	73	3.19	66	-4.3	87	-6.2	0	0	998.0	NA	0.0000		9999	1710	0	0	0
2019/04/21 21:07:00	BASE	2.52	64	3.19	66	-4.4	87	-6.2	0	0	998.0	NA	0.0000		9999	1710	0	0	0
2019/04/21 21:08:00	BASE	2.29	56	3.19	66	-4.4	87	-6.2	0	0	998.0	NA	0.0000		9999	1710	0	0	0
2019/04/21 21:09:00	BASE	2.01	49	2.83	77	-4.4	87	-6.3	0	0	998.0	NA	0.0000		9999	1670	0	0	0
2019/04/21 21:10:00	BASE	1.75	40	2.83	77	-4.5	87	-6.3	0	0	998.0	NA	0.0000		9999	1740	0	0	0
2019/04/21 21:11:00	BASE	1.65	33	2.83	77	-4.5	87	-6.3	0	0	998.0	NA	0.0000		9999	1740	0	0	0
2019/04/21 21:12:00	BASE	2.03	28	2.83	77	-4.5	88	-6.2	0	0	998.1	NA	0.0000		9999	1740	0	0	0
2019/04/21 21:13:00	BASE	2.48	25	3.04	20	-4.5	88	-6.2	0	0	998.2	NA	0.0000		9999	1740	0	0	0
2019/04/21 21:14:00	BASE	2.77	23	3.34	28	-4.5	88	-6.2	0	0	998.2	NA	0.0000		9999	1770	0	0	0
2019/04/21 21:15:00	BASE	3.12	22	3.65	20	-4.5	88	-6.2	0	0	998.2	NA	0.0000		9999	1740	0	0	0
2019/04/21 21:16:00	BASE	3.70	22	4.78	23	-4.5	88	-6.1	0	0	998.2	NA	0.0000		9999	1770	0	0	0
2019/04/21 21:17:00	BASE	4.61	22	5.97	20	-4.5	88	-6.2	0	0	998.2	NA	0.0000		9999	1800	0	0	0
2019/04/21 21:18:00	BASE	5.80	23	7.20	25	-4.5	88	-6.2	0	0	998.2	NA	0.0000		9999	1800	0	0	0
2019/04/21 21:19:00	BASE	6.53	25	7.20	25	-4.6	88	-6.3	0	0	998.2	NA	0.0000		9999	1770	0	0	0
2019/04/21 21:20:00	BASE	6.40	29	7.20	25	-4.7	88	-6.4	0	0	998.2	NA	0.0000		9999	1710	0	0	0
2019/04/21 21:21:00	BASE	6.12	32	7.20	25	-4.9	88	-6.5	0	0	998.2	NA	0.0000		9999	1670	0	0	0
2019/04/21 21:22:00	BASE	5.86	28	7.20	25	-5.0	89	-6.6	0	0	998.3	NA	0.0000		9999	1710	0	0	0
2019/04/21 21:23:00	BASE	5.62	24	7.20	25	-5.0	89	-6.6	0	0	998.3	NA	0.0000		9999	1740	0	0	0
2019/04/21 21:24:00	BASE	5.82	25	7.20	25	-5.0	89	-6.6	0	0	998.3	NA	0.0000		9999	1740	0	0	0
2019/04/21 21:25:00	BASE	5.93	30	7.20	25	-5.0	89	-6.6	0	0	998.3	NA	0.0000		9999	1740	0	0	0
2019/04/21 21:26:00	BASE	5.65	34	7.20	25	-5.1	89	-6.6	0	0	998.3	NA	0.0000		9999	1770	0	0	0
2019/04/21 21:27:00	BASE	5.55	32	7.20	25	-5.0	89	-6.6	0	0	998.3	NA	0.0000		9999	1770	0	0	0
2019/04/21 21:28:00	BASE	5.66	33	7.00	23	-5.1	89	-6.6	0	0	998.3	NA	0.0000		9999	1840	0	0	0
2019/04/21 21:29:00	BASE	5.74	34	6.84	28	-5.1	89	-6.6	0	0	998.4	NA	0.0000		9999	1840	0	0	0
2019/04/21 21:30:00	BASE	5.76	35	6.84	28	-5.1	90	-6.6	0	0	998.4	NA	0.0000		9999	1770	0	0	0
2019/04/21 21:31:00	BASE	5.53	37	6.84	28	-5.2	90	-6.6	0	0	998.4	NA	0.0000		9999	1770	0	0	0
2019/04/21 21:32:00	BASE	4.70	27	6.84	28	-5.2	90	-6.6	0	0	998.4	NA	0.0000		9999	1840	0	0	0
2019/04/21 21:33:00	BASE	3.87	13	6.84	28	-5.1	90	-6.5	0	0	998.4	NA	0.0000		9999	1800	0	0	0
2019/04/21 21:34:00	BASE	3.43	21	6.38	28	-5.0	90	-6.4	0	0	998.4	NA	0.0000		9999	1840	0	0	0
2019/04/21 21:35:00	BASE	3.35	36	6.38	28	-5.0	90	-6.3	0	0	998.4	NA	0.0000		9999	1800	0	0	0
2019/04/21 21:36:00	BASE	4.04	30	6.38	28	-4.9	90	-6.3	0	0	998.4	NA	0.0000		9999	1800	0	0	0
2019/04/21 21:37:00	BASE	4.25	22	6.38	28	-4.8	90	-6.2	0	0	998.4	NA	0.0000		9999	1840	0	0	0
2019/04/21 21:38:00	BASE	3.64	23	6.38	28	-4.8	90	-6.2	0	0	998.3	NA	0.0000		9999	1770	0	0	0
2019/04/21 21:39:00	BASE	3.33	26	6.28	32	-4.8	90	-6.2	0	0	998.3	NA	0.0000		9999	1740	0	0	0
2019/04/21 21:40:00	BASE	3.34	27	5.76	36	-4.8	90	-6.2	0	0	998.3	NA	0.0000		9999	1800	0	0	0
2019/04/21 21:41:00	BASE	3.19	13	5.45	20	-4.8	90	-6.2	0	0	998.3	NA	0.0000		9999	1800	0	0	0
2019/04/21 21:42:00	BASE	3.24	14	5.45	20	-4.8	90	-6.2	0	0	998.3	NA	0.0000		9999	1710	0	0	0
2019/04/21 21:43:01	BASE	3.91	30	5.45	20	-4.8	90	-6.2	0	0	998.3	NA	0.0000		9999	1800	0	0	0
2019/04/21 21:44:00	BASE	4.35	32	5.45	20	-4.8	90	-6.2	0	0	998.3	NA	0.0000		9999	1770	0	0	0
2019/04/21 21:45:00	BASE	4.46	32	5.45	20	-4.8	90	-6.2	0	0	998.3	NA	0.0000		9999	1770	0	0	0
2019/04/21 21:46:00	BASE	4.61	31	5.61	37	-4.9	90	-6.2	0	0	998.3	NA	0.0000		9999	1740	0	0	0
2019/04/21 21:47:00	BASE	4.89	32	5.61	37	-4.9	90	-6.3	0	0	998.3	NA	0.0000		9999	1770	0	0	0
2019/04/21 21:48:00	BASE	5.00	35	5.61	35	-4.9	90	-6.3	0	0	998.3	NA	0.0000		9999	1840	0	0	0
2019/04/21 21:49:00	BASE	4.95	37	5.97	31	-4.9	90	-6.3	0	0	998.3	NA	0.0000		9999	1770	0	0	0
2019/04/21 21:50:00	BASE	5.06	36	5.97	31	-4.9	90	-6.3	0	0	998.3	NA	0.0000		9999	1770	0	0	0
2019/04/21 21:51:00	BASE	4.86	37	5.97	31	-5.0	91	-6.3	0	0	998.3	NA	0.0000		9999	1740	0	0	0
2019/04/21 21:52:00	BASE	4.56	44	5.97	31	-5.0	91	-6.3	0	0	998.3	NA	0.0000		9999	1710	0	0	0
2019/04/21 21:53:00	BASE	4.55	48	5.97	31	-5.0	91	-6.2	0	0	998.3	NA	0.0000		9999	1740	0	0	0
2019/04/21 21:54:00	BASE	4.56	53	5.97	31	-5.0	91	-6.2	0	0	998.3	NA	0.0000		9999	1670	0	0	0
2019/04/21 21:55:00	BASE	4.44	58	5.97	31	-5.0	91	-6.2	0	0	998.2	NA	0.0000		9999	1740	0	0	0
2019/04/21 21:56:00	BASE	4.22	58	5.97	31	-5.0	91	-6.2	0	0	998.2	NA	0.0000		9999	1740	0	0	0
2019/04/21 21:57:00	BASE	4.01	57	5.97	31	-5.1	92	-6.2	0	0	998.3	NA	0.0000		9999	1740	0	0	0
2019/04/21 21:58:00	BASE	3.89	59	5.97	31	-5.1	92	-6.2	0	0	998.3	NA	0.0000		9999	1770	0	0	0
2019/04/21 21:59:00	BASE	3.63	62	5.50	37	-5.1	92	-6.2	0	0	998.3	NA	0.0000		9999	1710	0	0	0
2019/04/21 22:00:00	BASE	3.20	66	5.25	33	-5.1	92	-6.2	0	0	998.3	NA	0.0000		9999	1740	0	0	0
2019/04/21 22:01:00	BASE	2.98	65	4.89	46	-5.1	92	-6.2	0	0	998.3	NA	0.0000		9999	1740	0	0	0
2019/04/21 22:02:00	BASE	3.21	60	4.89	46	-5.1	92	-6.2	0	0	998.3	NA	0.0000		9999	1740	0	0	0
2019/04/21 22:03:00	BASE	3.50	59	4.78	59	-5.1	92	-6.2	0	0	998.3	NA	0.0000		9999	1710	0	0	0
2019/04/21 22:04:00	BASE	3.20	65	4.53	59	-5.0	92	-6.1	0	0	998.3	NA	0.0000		9999	1740	0	0	0
2019/04/21 22:05:00	BASE	2.60	69	4.42	55	-5.1	92	-6.2	0	0	998.3	NA	0.0000		9999	1710	0	0	0
2019/04/21 22:06:00	BASE	2.54	66	4.32	57	-5.1	92	-6.2	0	0	998.3	NA	0.0000		9999	1770	0	0	0
2019/04/21 22:07:00	BASE	2.90	64	4.32	57	-5.1	92	-6.2	0	0	998.3	NA	0.0000		9999	1740	0	0	0
2019/04/21 22:08:00	BASE	2.87	64	4.01	55	-5.1	92	-6.2	0	0	998.3	NA	0.0000		9999	1770	0	0	0
2019/04/21 22:09:00	BASE	2.75	68	4.01	55	-5.1	91	-6.3	0	0	998.4	NA	0.0000		9999	1710	0	0	0
2019/04/21 22:10:00	BASE	2.76	70	4.01	55	-5.1	91	-6.3	0	0	998.4	NA	0.0000		9999	1740	0	0	0
2019/04/21 22:11:00	BASE	2.74	64	4.01	55	-5.1	91	-6.3	0	0	998.4	NA	0.0000		9999	1770	0	0	0
2019/04/21 22:12:00	BASE	2.73	62	4.01	55	-5.1	91	-6.3	0	0	998.4	NA	0.0000		9999	1800	0	0	0
2019/04/21 22:13:00	BASE	2.55	66	3.50	65	-5.0	91	-6.3	0	0	998.3	NA	0.0000		9999	1740	0	0	0
2019/04/21 22:14:00	BASE	2.57	62	3.50	65	-5.0	91	-6.3	0	0	998.3	NA	0.0000		9999	1710	0	0	0
2019/04/21 22:15:00	BASE	2.59	56	3.50	65	-5.0	91	-6.3	0	0	998.3	NA	0.0000		9999	1770	0	0	0
2019/04/21 22:16:00	BASE	2.19	59	3.50	65	-5.0	91	-6.2	0	0	998.4	NA	0.0000		9999	1770	0	0	0
2019/04/21 22:17:00	BASE	2.22	66	3.34	60	-5.0	91	-6.3	0	0	998.4	NA	0.0000		9999	1800	0	0	0
2019/04/21 22:18:00	BASE	2.63	67	3.24	53	-5.0	90	-6.3	0	0	998.4	NA	0.0000		9999	1770	0	0	0
2019/04/21 22:19:00	BASE	2.87	65	3.24	53	-4.9	90	-6.3	0	0	998.4	NA	0.0000		9999	1770	0	0	0
2019/04/21 22:20:00	BASE	2.82	63	3.24	53	-4.9	90	-6.2	0	0	998.4	NA	0.0000		9999	1740	0	0	0
2019/04/21 22:21:00	BASE	2.87	61	3.55	64	-4.9	90	-6.3	0	0	998.4	NA	0.0000		9999	1770	0	0	0
2019/04/21 22:22:00	BASE	3.20	60	3.55	52	-4.9	90	-6.3	0	0	998.4	NA	0.0000		9999	1770	0	0	0
2019/04/21 22:23:00	BASE	2.96	59	3.55	52	-4.9	90	-6.3	0	0	998.4	NA	0.0000		9999	1770	0	0	0
2019/04/21 22:24:00	BASE	2.56	59	3.55	52	-4.9	90	-6.3	0	0	998.4	NA	0.0000		9999	1770	0	0	0
2019/04/21 22:25:00	BASE	2.60	58	3.55	52	-4.9	90	-6.3	0	0	998.4	NA	0.0000		9999	1740	0	0	0
2019/04/21 22:26:00	BASE	2.71	59	3.55	52	-4.9	90	-6.3	0	0	998.4	NA	0.0000		9999	1740	0	0	0
2019/04/21 22:27:00	BASE	2.63	61	3.55	52	-4.9	90	-6.2	0	0	998.4	NA	0.0000		9999	1740	0	0	0
2019/04/21 22:28:00	BASE	2.60	61	3.55	52	-4.9	91	-6.2	0	0	998.4	NA	0.0000		9999	1770	0	0	0
2019/04/21 22:29:00	BASE	2.72	58	3.55	52	-4.9	91	-6.2	0	0	998.5	NA	0.0000		9999	1800	0	0	0
2019/04/21 22:30:00	BASE	2.26	49	3.55	52	-4.9	91	-6.2	0	0	998.5	NA	0.0000		9999	1770	0	0	0
2019/04/21 22:31:00	BASE	1.19	44	3.55	52	-4.9	91	-6.1	0	0	998.5	NA	0.0000		9999	1770	0	0	0
2019/04/21 22:32:00	BASE	1.13	48	3.34	65	-4.8	91	-6.1	0	0	998.5	NA	0.0000		9999	1800	0	0	0
2019/04/21 22:33:00	BASE	1.08	46	3.34	65	-4.8	91	-6.0	0	0	998.5	NA	0.0000		9999	1740	0	0	0
2019/04/21 22:34:00	BASE	1.10	47	3.24	50	-4.7	91	-6.0	0	0	998.5	NA	0.0000		9999	1740	0	0	0
2019/04/21 22:35:00	BASE	1.76	52	3.24	50	-4.7	91	-6.0	0	0	998.5	NA	0.0000		9999	1740	0	0	0
2019/04/21 22:36:00	BASE	1.99	46	3.24	50	-4.7	91	-5.9	0	0	998.5	NA	0.0000		9999	1770	0	0	0
2019/04/21 22:37:00	BASE	2.43	43	3.24	50	-4.7	91	-6.0	0	0	998.4	NA	0.0000		9999	1800	0	0	0
2019/04/21 22:38:00	BASE	2.65	48	3.24	50	-4.7	91	-6.0	0	0	998.4	NA	0.0000		9999	1770	0	0	0
2019/04/21 22:39:00	BASE	2.71	56	3.14	57	-4.7	91	-6.0	0	0	998.4	NA	0.0000		9999	1770	0	0	0
2019/04/21 22:40:00	BASE	2.75	62	3.14	57	-4.8	91	-6.0	0	0	998.3	NA	0.0000		9999	1740	0	0	0
2019/04/21 22:41:00	BASE	2.88	65	3.34	74	-4.8	91	-6.0	0	0	998.3	NA	0.0000		9999	1670	0	0	0
2019/04/21 22:42:00	BASE	2.89	69	3.34	74	-4.8	91	-6.1	0	0	998.3	NA	0.0000		9999	1740	0	0	0
2019/04/21 22:43:00	BASE	2.87	70	3.34	74	-4.8	91	-6.1	0	0	998.3	NA	0.0000		9999	1710	0	0	0
2019/04/21 22:44:00	BASE	3.02	66	3.45	66	-4.9	91	-6.1	0	0	998.3	NA	0.0000		9999	1710	0	0	0
2019/04/21 22:45:00	BASE	3.05	62	3.45	66	-4.9	91	-6.1	0	0	998.4	NA	0.0000		9999	1740	0	0	0
2019/04/21 22:46:00	BASE	3.07	57	3.45	66	-4.9	91	-6.1	0	0	998.4	NA	0.0000		9999	1710	0	0	0
2019/04/21 22:47:00	BASE	3.06	58	3.45	66	-4.9	92	-6.1	0	0	998.4	NA	0.0000		9999	1800	0	0	0
2019/04/21 22:48:00	BASE	3.15	63	3.65	69	-4.9	92	-6.1	0	0	998.4	NA	0.0000		9999	1740	0	0	0
2019/04/21 22:49:00	BASE	3.06	65	3.65	69	-4.9	92	-6.0	0	0	998.4	NA	0.0000		9999	1800	0	0	0
2019/04/21 22:50:00	BASE	2.55	65	3.65	69	-4.9	92	-6.0	0	0	998.4	NA	0.0000		9999	1740	0	0	0
2019/04/21 22:51:00	BASE	2.12	59	3.65	69	-4.9	92	-6.0	0	0	998.5	NA	0.0000		9999	1770	0	0	0
2019/04/21 22:52:00	BASE	1.79	49	3.65	69	-4.8	92	-5.9	0	0	998.5	NA	0.0000		9999	1800	0	0	0
2019/04/21 22:53:00	BASE	1.56	47	3.65	69	-4.8	92	-5.9	0	0	998.5	NA	0.0000		9999	1770	0	0	0
2019/04/21 22:54:00	BASE	1.54	49	3.65	69	-4.8	92	-5.9	0	0	998.5	NA	0.0000		9999	1800	0	0	0
2019/04/21 22:55:00	BASE	1.65	54	3.65	69	-4.8	92	-5.9	0	0	998.5	NA	0.0000		9999	1740	0	0	0
2019/04/21 22:56:00	BASE	2.06	61	3.65	69	-4.7	92	-5.8	0	0	998.5	NA	0.0000		9999	1740	0	0	0
2019/04/21 22:57:00	BASE	2.82	58	3.76	42	-4.8	92	-5.9	0	0	998.5	NA	0.0000		9999	1710	0	0	0
2019/04/21 22:58:00	BASE	3.14	51	3.76	42	-4.8	92	-5.9	0	0	998.4	NA	0.0000		9999	1640	0	0	0
2019/04/21 22:59:00	BASE	2.99	59	3.76	42	-4.8	92	-5.9	0	0	998.4	NA	0.0000		9999	1670	0	0	0
2019/04/21 23:00:00	BASE	2.88	72	3.76	42	-4.8	92	-5.9	0	0	998.4	NA	0.0000		9999	1710	0	0	0
2019/04/21 23:01:00	BASE	2.74	73	3.76	42	-4.8	92	-5.9	0	0	998.4	NA	0.0000		9999	1670	0	0	0
2019/04/21 23:02:00	BASE	2.45	68	3.76	42	-4.8	92	-5.9	0	0	998.4	NA	0.0000		9999	1670	0	0	0
2019/04/21 23:03:00	BASE	2.43	68	3.76	42	-4.8	92	-5.9	0	0	998.4	NA	0.0000		9999	1670	0	0	0
2019/04/21 23:04:00	BASE	2.51	66	3.76	42	-4.8	92	-5.9	0	0	998.3	NA	0.0000		9999	1610	0	0	0
2019/04/21 23:05:00	BASE	2.68	69	3.76	42	-4.9	92	-6.0	0	0	998.4	NA	0.0000		9999	1710	0	0	0
2019/04/21 23:06:00	BASE	3.10	78	3.76	42	-4.9	92	-6.0	0	0	998.4	NA	0.0000		9999	1640	0	0	0
2019/04/21 23:07:00	BASE	3.27	84	3.65	74	-5.0	92	-6.1	0	0	998.4	NA	0.0000		9999	1670	0	0	0
2019/04/21 23:08:00	BASE	3.25	81	3.65	74	-5.0	92	-6.1	0	0	998.4	NA	0.0000		9999	1640	0	0	0
2019/04/21 23:09:00	BASE	3.09	80	3.65	74	-5.0	92	-6.1	0	0	998.4	NA	0.0000		9999	1670	0	0	0
2019/04/21 23:10:00	BASE	2.97	81	3.65	74	-5.1	92	-6.2	0	0	998.4	NA	0.0000		9999	1640	0	0	0
2019/04/21 23:11:00	BASE	2.57	69	3.65	74	-5.1	92	-6.2	0	0	998.4	NA	0.0000		9999	1670	0	0	0
2019/04/21 23:12:00	BASE	2.15	58	3.65	74	-5.1	92	-6.2	0	0	998.5	NA	0.0000		9999	1670	0	0	0
2019/04/21 23:13:00	BASE	1.91	44	3.65	74	-5.1	92	-6.2	0	0	998.5	NA	0.0000		9999	1670	0	0	0
2019/04/21 23:14:00	BASE	0.88	23	3.65	74	-5.1	92	-6.1	0	0	998.5	NA	0.0000		9999	1640	0	0	0
2019/04/21 23:15:00	BASE	0.63	35	3.65	74	-5.0	92	-6.0	0	0	998.5	NA	0.0000		9999	1710	0	0	0
2019/04/21 23:16:00	BASE	1.64	58	3.60	95	-4.9	92	-6.0	0	0	998.5	NA	0.0000		9999	1710	0	0	0
2019/04/21 23:17:00	BASE	2.10	64	3.50	77	-4.9	92	-5.9	0	0	998.5	NA	0.0000		9999	1670	0	0	0
2019/04/21 23:18:00	BASE	2.06	64	3.34	79	-4.9	92	-6.0	0	0	998.5	NA	0.0000		9999	1740	0	0	0
2019/04/21 23:19:00	BASE	2.28	65	3.34	79	-4.9	92	-6.0	0	0	998.4	NA	0.0000		9999	1740	0	0	0
2019/04/21 23:20:00	BASE	2.55	71	2.98	67	-5.0	92	-6.1	0	0	998.4	NA	0.0000		9999	1710	0	0	0
2019/04/21 23:21:00	BASE	2.51	74	2.98	67	-5.0	92	-6.1	0	0	998.4	NA	0.0000		9999	1740	0	0	0
2019/04/21 23:22:00	BASE	2.56	75	3.19	79	-5.1	92	-6.2	0	0	998.4	NA	0.0000		9999	1740	0	0	0
2019/04/21 23:23:00	BASE	2.51	74	3.19	79	-5.1	92	-6.2	0	0	998.4	NA	0.0000		9999	1740	0	0	0
2019/04/21 23:24:00	BASE	2.36	76	3.19	79	-5.1	92	-6.2	0	0	998.4	NA	0.0000		9999	1770	0	0	0
2019/04/21 23:25:00	BASE	2.18	73	3.19	79	-5.1	92	-6.1	0	0	998.4	NA	0.0000		9999	1710	0	0	0
2019/04/21 23:26:00	BASE	1.83	77	3.19	79	-5.1	93	-6.1	0	0	998.4	NA	0.0000		9999	1740	0	0	0
2019/04/21 23:27:00	BASE	1.26	82	3.19	79	-5.0	93	-6.0	0	0	998.4	NA	0.0000		9999	1670	0	0	0
2019/04/21 23:28:00	BASE	1.57	69	3.19	79	-5.0	93	-6.0	0	0	998.4	NA	0.0000		9999	1710	0	0	0
2019/04/21 23:29:00	BASE	2.05	52	3.19	79	-5.0	93	-5.9	0	0	998.4	NA	0.0000		9999	1640	0	0	0
2019/04/21 23:30:00	BASE	2.25	50	4.01	39	-5.0	93	-5.9	0	0	998.4	NA	0.0000		9999	1670	0	0	0
2019/04/21 23:31:00	BASE	3.14	45	4.01	39	-5.0	93	-6.0	0	0	998.4	NA	0.0000		9999	1670	0	0	0
2019/04/21 23:32:00	BASE	3.60	36	4.01	39	-5.0	92	-6.1	0	0	998.4	NA	0.0000		9999	1670	0	0	0
2019/04/21 23:33:00	BASE	3.50	41	4.48	44	-5.1	92	-6.1	0	0	998.4	NA	0.0000		9999	1710	0	0	0
2019/04/21 23:34:00	BASE	4.07	44	5.30	47	-5.1	92	-6.2	0	0	998.3	NA	0.0000		9999	1710	0	0	0
2019/04/21 23:35:00	BASE	4.54	47	5.30	47	-5.2	92	-6.2	0	0	998.3	NA	0.0000		9999	1740	0	0	0
2019/04/21 23:36:00	BASE	4.23	56	5.30	47	-5.2	93	-6.3	0	0	998.3	NA	0.0000		9999	1740	0	0	0
2019/04/21 23:37:00	BASE	3.64	62	5.30	47	-5.3	93	-6.2	0	0	998.3	NA	0.0000		9999	1710	0	0	0
2019/04/21 23:38:00	BASE	3.30	56	5.30	47	-5.3	93	-6.2	0	0	998.3	NA	0.0000		9999	1710	0	0	0
2019/04/21 23:39:00	BASE	3.43	48	5.30	47	-5.3	94	-6.2	0	0	998.3	NA	0.0000		9999	1710	0	0	0
2019/04/21 23:40:00	BASE	3.48	44	5.30	47	-5.3	94	-6.2	0	0	998.3	NA	0.0000		9999	1740	0	0	0
2019/04/21 23:41:00	BASE	3.80	43	5.30	47	-5.4	94	-6.2	0	0	998.3	NA	0.0000		9999	1710	0	0	0
2019/04/21 23:42:00	BASE	4.09	44	5.30	47	-5.4	94	-6.2	0	0	998.3	NA	0.0000		9999	1710	0	0	0
2019/04/21 23:43:00	BASE	4.05	46	5.30	47	-5.4	94	-6.2	0	0	998.3	NA	0.0000		9999	1710	0	0	0
2019/04/21 23:44:00	BASE	3.84	57	4.84	45	-5.4	94	-6.1	0	0	998.3	NA	0.0000		9999	1640	0	0	0
2019/04/21 23:45:00	BASE	3.32	67	4.84	45	-5.3	95	-6.1	0	0	998.3	NA	0.0000		9999	1640	0	0	0
2019/04/21 23:46:00	BASE	3.06	68	4.84	45	-5.3	95	-6.0	0	0	998.3	NA	0.0000		9999	1670	0	0	0
2019/04/21 23:47:00	BASE	3.34	69	4.84	45	-5.3	95	-6.0	0	0	998.3	NA	0.0000		9999	1640	0	0	0
2019/04/21 23:48:00	BASE	3.41	61	4.84	45	-5.3	95	-6.1	0	0	998.3	NA	0.0000		9999	1640	0	0	0
2019/04/21 23:49:00	BASE	3.16	50	4.84	45	-5.4	94	-6.1	0	0	998.3	NA	0.0000		9999	1670	0	0	0
2019/04/21 23:50:00	BASE	2.82	41	4.84	45	-5.4	94	-6.2	0	0	998.3	NA	0.0000		9999	1670	0	0	0
2019/04/21 23:51:00	BASE	2.69	32	4.84	45	-5.4	94	-6.2	0	0	998.4	NA	0.0000		9999	1710	0	0	0
2019/04/21 23:52:00	BASE	2.78	30	4.42	49	-5.4	94	-6.2	0	0	998.4	NA	0.0000		9999	1670	0	0	0
2019/04/21 23:53:00	BASE	2.41	36	4.37	57	-5.4	94	-6.2	0	0	998.4	NA	0.0000		9999	1670	0	0	0
2019/04/21 23:54:00	BASE	1.88	45	3.81	53	-5.3	94	-6.2	0	0	998.4	NA	0.0000		9999	1710	0	0	0
2019/04/21 23:55:00	BASE	1.98	41	3.81	53	-5.3	94	-6.2	0	0	998.4	NA	0.0000		9999	1710	0	0	0
2019/04/21 23:56:00	BASE	2.37	32	3.81	53	-5.4	94	-6.2	0	0	998.4	NA	0.0000		9999	1670	0	0	0
2019/04/21 23:57:00	BASE	2.38	35	3.65	54	-5.3	94	-6.1	0	0	998.4	NA	0.0000		9999	1640	0	0	0
2019/04/21 23:58:00	BASE	2.90	33	4.32	22	-5.3	94	-6.1	0	0	998.4	NA	0.0000		9999	1640	0	0	0
2019/04/21 23:59:00	BASE	3.69	27	4.32	22	-5.4	94	-6.2	0	0	998.4	NA	0.0000		9999	1640	0	0	0